     2              OBSERVATION DATA    GPS                 RINEX VERSION / TYPE
TRRINEXO-V2.3.1-LH UCLA/SCEC 28-FEB-1994                    PGM / RUN BY / DATE
                                                            COMMENT
BIT 2 OF LLI (+4) FLAGS DATA COLLECTED UNDER "AS" CONDITION COMMENT
Original Marker Name: UCLA YOUNG HALL                       COMMENT
Campaign Name: Northridge 1994                              COMMENT
4-Character Station Name: UCLA                              COMMENT
6-Character Antenna Code: TRMSST                            COMMENT
Vertical Measurement Point: BPA                             COMMENT
Vertical Offset to Rinex Ref. Point: 0.0000                 COMMENT
Radial Measurement Point: RRP                               COMMENT
Radial Offset to Rinex Ref. Point: 0.0000                   COMMENT
Antenna Height from Field Measurement: 0.0000 m             COMMENT
Fixed station.                                              COMMENT
Original XYZ: -2518936.9445 -4650698.9261 3552876.7198      COMMENT
New XYZ position is based on association with SCEC monument COMMENT
E1C7Y6O1+0021. Position of that monument is believed to be  COMMENT
valid to within 1 m horizontally; vertical accuracy         COMMENT
should be no worse than 3-times this value.                 COMMENT
                                                            COMMENT
Revised Rinex header created by UCSD GPS archive for        COMMENT
GSAC on 30-May-1999 (1999:150) 19:51:52 GMT                 COMMENT
For assistance contact dagnew@ucsd.edu or hjohnson@ucsd.edu COMMENT
                                                            COMMENT
UCLA YOUNG HALL 1990                                        MARKER NAME
Z. SHEN UCLA                                                OBSERVER / AGENCY
497 TRIMBLE 4000 SST 4.81                                   REC # / TYPE / VERS
129 TR 4000SST L1/L2 GEO                                    ANT # / TYPE
 -2518952.0000 -4650737.0000  3552822.0000                  APPROX POSITION XYZ
        0.0000        0.0000        0.0000                  ANTENNA: DELTA H/E/N
     1     2     0                                          WAVELENGTH FACT L1/2
     3    C1    L1    L2                                    # / TYPES OF OBSERV
    30                                                      INTERVAL
  1994     2    20     0     1   30.000000                  TIME OF FIRST OBS
  1994     2    20    23    59   30.000000                  TIME OF LAST OBS
     0                                                      # OF SATELLITES
                                                            END OF HEADER
 94  2 20  0  1 30.0000000  0  6  2 27 26  7 19 15
  21079970.250          -0.34817
  20567562.109          -0.23117
  23336009.523          -0.46015
  21424059.977          -0.96117
  22292683.523          -0.83816
  24241093.414          -0.04515
 94  2 20  0  2  0.0000000  0  6  2 27 26  7 19 15
  21074147.500      -30606.709 7        -0.20919
  20568599.219        5443.384 7        -0.32419
  23319674.523      -85801.082 5        -0.40015
  21406775.508      -90829.625 7        -0.10719
  22300789.375       42587.303 6
  24228916.289      -63999.745 5        -0.30715
 94  2 20  0  2 30.0000000  0  6  2 27 26  7 19 15
  21068368.359      -60974.445 7    -23663.365 9
  20569713.391       11292.389 7      4557.338 9
  23303432.250     -171160.836 5    -66514.417 5
  21389575.461     -181222.237 7    -70435.861 9
  22308947.766       85454.853 6        -0.43117
  24216808.289     -127602.560 5    -49560.870 5
 94  2 20  0  3  0.0000000  0  6  2 27 26  7 19 15
  21062629.555      -91119.030 7    -47152.633 9
  20570902.016       17544.540 7      9429.141 9
  23287272.867     -256088.130 5   -132691.491 5
  21372452.539     -271189.805 7   -140540.406 9
  22317154.844      128591.467 6     33612.486 7
  24204783.367     -190810.420 5    -98813.709 5
 94  2 20  0  3 30.0000000  0  6  2 27 26  7 19 15
  21056935.242     -121057.003 7    -70480.915 9
  20572166.422       24195.430 7     14611.650 9
  23271191.109     -340591.264 5   -198538.016 5
  21355409.148     -360748.597 7   -210326.426 9
  22325414.398      171995.507 6     67433.797 7
  24192829.898     -253622.234 5   -147757.945 5
 94  2 20  0  4  0.0000000  0  6  2 27 26  7 19 15
  21051278.320     -150787.413 7    -93647.447 9
  20573512.867       31275.102 7     20128.272 9
  23255199.172     -424650.436 5   -264038.607 5
  21338449.352     -449883.645 7   -279782.253 9
  22333734.164      215700.524 6    101489.625 7
  24180961.625     -315997.862 5   -196362.257 5
 94  2 20  0  4 30.0000000  0  6  2 27 26  7 19 15
  21045641.789     -180399.573 7   -116721.836 9
  20574928.852       38713.547 7     25924.459 9
  23239270.352     -508337.349 5   -329249.119 6
  21321553.563     -538656.166 7   -348955.610 9
  22342092.633      259626.585 6    135717.704 7
  24169165.750     -378001.803 5   -244676.962 5
 94  2 20  0  5  0.0000000  0  6  2 27 26  7 19 15
  21040034.484     -209863.227 7   -139680.512 9
  20576417.773       46529.893 7     32015.103 9
  23223428.758     -591609.230 5   -394136.244 5
  21304737.625     -627029.593 7   -417817.967 9
  22350494.508      303792.820 6    170132.930 7
  24157440.141     -439608.616 5   -292682.231 5
 94  2 20  0  5 30.0000000  0  6  2 27 26  7 19 15
  21034455.906     -239175.261 7   -162521.033 9
  20577976.602       54725.258 7     38401.094 9
  23207655.148     -674466.420 5   -458700.239 5
  21288000.797     -714984.507 7   -486354.220 9
  22358951.813      348212.907 6    204745.959 7
  24145794.406     -500811.476 5   -340372.742 5
 94  2 20  0  6  0.0000000  0  6  2 27 26  7 19 15
  21028904.305     -268340.761 7   -185247.376 9
  20579609.695       63302.974 7     45085.018 9
  23191966.766     -756909.222 5   -522941.317 5
  21271342.406     -802522.605 7   -554565.700 9
  22367449.422      392896.304 6    239564.166 7
  24134226.602     -561610.731 5   -387748.718 5
 94  2 20  0  6 30.0000000  0  6  2 27 26  7 19 15
  21023388.055     -297332.379 7   -207838.227 9
  20581318.180       72282.859 7     52082.321 9
  23176362.961     -838929.307 5   -586853.027 5
  21254764.891     -889641.183 7   -622450.244 9
  22376009.141      437858.469 6    274599.590 7
  24122730.734     -622003.613 5   -434808.078 5
 94  2 20  0  7  0.0000000  0  6  2 27 26  7 19 15
  21017908.703     -326133.201 7   -230280.401 9
  20583105.141       81678.409 7     59403.520 9
  23160830.797     -920537.836 5   -650444.032 5
  21238265.141     -976344.078 7   -690010.902 9
  22384622.547      483118.560 6    309867.162 7
  24111314.805     -681987.388 5   -481548.647 5
 94  2 20  0  7 30.0000000  0  6  2 27 26  7 19 15
  21012461.578     -354755.234 7   -252583.263 9
  20584976.727       91507.568 7     67062.597 9
  23145375.898    -1001753.264 5   -713728.735 5
  21221843.187    -1062639.229 7   -757253.833 9
  22393294.219      528689.827 6    345377.207 7
  24099979.063     -741556.930 5   -527966.426 5
 94  2 20  0  8  0.0000000  0  6  2 27 26  7 19 15
  21007045.938     -383208.344 7   -274754.494 9
  20586931.188      101772.008 7     75060.858 9
  23129997.734    -1082568.464 5   -776701.545 5
  21205499.180    -1148535.446 7   -824185.910 9
  22402019.328      574553.690 6    381115.258 7
  24088721.641     -800716.459 5   -574064.711 5
 94  2 20  0  8 30.0000000  0  6  2 27 26  7 19 15
  21001668.625     -411480.750 7   -296784.914 9
  20588964.617      112472.400 7     83398.820 9
  23114700.953    -1162967.051 5   -839349.768 5
  21189232.164    -1234012.304 7   -890791.206 9
  22410801.141      620700.084 6    417073.466 7
  24077543.289     -859460.330 5   -619839.110 5
 94  2 20  0  9  0.0000000  0  6  2 27 26  7 19 15
  20996319.773     -439585.116 7   -318684.398 9
  20591082.250      123586.914 7     92059.476 9
  23099483.273    -1242934.028 5   -901661.641 5
  21173048.219    -1319058.936 7   -957061.278 9
  22419635.367      667114.192 6    453240.274 7
  24066447.625     -917786.906 5   -665288.320 5
 94  2 20  0  9 30.0000000  0  6  2 27 26  7 19 15
  20991002.094     -467525.635 7   -340456.207 9
  20593272.133      135101.943 7    101032.223 9
  23084353.188    -1322443.526 5   -963617.042 5
  21156951.508    -1403651.787 7  -1022977.752 9
  22428513.016      713777.150 6    489600.989 7
  24055425.547     -975691.031 5   -710408.367 5
 94  2 20  0 10  0.0000000  0  6  2 27 26  7 19 15
  20985723.836     -495279.116 7   -362082.273 9
  20595537.297      147001.450 7    110304.566 9
  23069313.836    -1401474.254 5  -1025199.373 5
  21140940.367    -1487778.343 7  -1088530.875 9
  22437441.883      760679.529 6    526148.270 7
  24044487.430    -1033170.838 5   -755197.784 5
 94  2 20  0 10 30.0000000  0  6  2 27 26  7 19 15
  20980478.766     -522828.546 7   -383549.339 9
  20597872.727      159282.750 7    119874.410 9
  23054364.547    -1480025.050 5  -1086407.728 5
  21125022.883    -1571439.180 7  -1153721.105 9
  22446410.289      807832.419 6    562890.757 7
  24033632.156    -1090224.275 5   -799654.930 5
 94  2 20  0 11  0.0000000  0  6  2 27 26  7 19 15
  20975273.609     -550180.960 7   -404862.889 9
  20600284.594      171950.681 7    129745.519 9
  23039504.102    -1558107.661 5  -1147251.274 5
  21109189.289    -1654638.497 7  -1218551.704 9
  22455433.297      855244.428 6    599835.149 7
  24022854.305    -1146850.086 5   -843778.886 5
 94  2 20  0 11 30.0000000  0  6  2 27 26  7 19 15
  20970107.305     -577337.086 7   -426023.493 9
  20602771.047      185027.553 7    139935.296 9
  23024732.422    -1635746.247 5  -1207748.819 5
  21093443.078    -1737386.524 7  -1283030.656 9
  22464505.734      902918.488 6    636983.739 7
  24012159.625    -1203046.465 5   -887568.217 5
 94  2 20  0 12  0.0000000  0  6  2 27 26  7 19 15
  20964975.203     -604301.378 7   -447034.611 9
  20605338.523      198521.825 7    150450.305 9
  23010039.648    -1712949.750 5  -1267907.345 6
  21077776.875    -1819703.089 7  -1347173.403 9
  22473631.164      950867.970 6    674346.945 7
  24001552.078    -1258811.941 5   -931021.784 5
 94  2 20  0 12 30.0000000  0  6  2 27 26  7 19 15
  20959877.242     -631089.683 7   -467908.606 9
  20607988.477      212449.071 7    161302.707 9
  22995427.117    -1789724.444 5  -1327731.729 6
  21062197.789    -1901580.398 7  -1410973.873 9
  22482808.609      999103.144 6    711932.763 7
  23991023.203    -1314137.391 5   -974132.473 5
 94  2 20  0 13  0.0000000  0  6  2 27 26  7 19 15
  20954807.492     -657732.745 7   -488669.411 9
  20610723.328      226806.414 7    172490.246 9
  22980902.594    -1866089.614 5  -1387237.006 5
  21046698.156    -1983032.380 7  -1474442.920 9
  22492039.453     1047607.239 6    749728.137 7
  23980575.883    -1369023.833 5  -1016901.065 5
 94  2 20  0 13 30.0000000  0  6  2 27 26  7 19 15
  20949766.609     -684229.361 7   -509316.119 9
  20613530.461      241570.062 7    183994.393 9
  22966446.672    -1942040.209 6  -1446419.251 5
  21031276.805    -2064081.845 7  -1537598.312 9
  22501318.172     1096366.717 6    787722.510 7
  23970210.266    -1423474.993 5  -1059330.481 5
 94  2 20  0 14  0.0000000  0  6  2 27 26  7 19 15
  20944754.234     -710576.577 7   -529846.398 9
  20616415.633      256721.823 7    195800.960 9
  22952072.133    -2017551.751 5  -1505259.361 6
  21015930.703    -2144719.545 7  -1600432.850 9
  22510644.984     1145382.970 6    825916.953 7
  23959935.859    -1477488.535 5  -1101418.901 5
 94  2 20  0 14 30.0000000  0  6  2 27 26  7 19 15
  20939768.070     -736771.896 7   -550258.322 9
  20619371.516      272260.249 7    207908.819 9
  22937792.781    -2092624.693 6  -1563757.711 6
  21000664.289    -2224942.840 7  -1662944.475 9
  22520016.969     1194644.837 6    864302.795 6
  23949743.336    -1531060.949 5  -1143163.576 5
 94  2 20  0 15  0.0000000  0  6  2 27 26  7 19 15
  20934814.414     -762800.598 7   -570540.416 9
  20622400.148      288173.327 7    220308.619 9
  22923588.734    -2167254.343 5  -1621910.642 6
  20985477.820    -2304757.190 7  -1725137.450 9
  22529439.156     1244143.934 6    902873.488 7
  23939630.461    -1584193.006 5  -1184565.131 5
 94  2 20  0 15 30.0000000  0  6  2 27 26  7 19 15
  20929895.656     -788640.389 7   -590675.300 9
  20625498.555      304460.378 7    232999.823 9
  22909475.984    -2241413.859 5  -1679697.233 6
  20970373.523    -2384127.007 7  -1786984.029 9
  22538906.516     1293893.528 6    941639.367 7
  23929606.758    -1636879.525 5  -1225619.517 5
 94  2 20  0 16  0.0000000  0  6  2 27 26  7 19 15
  20925014.328     -814303.341 7   -610672.387 9
  20628671.516      321137.992 7    245995.361 9
  22895455.117    -2315111.941 6  -1737124.274 6
  20955358.203    -2463032.938 7  -1848469.133 9
  22548420.328     1343893.560 6    980600.397 6
  23919664.164    -1689121.518 5  -1266327.508 5
 94  2 20  0 16 30.0000000  0  6  2 27 26  7 19 15
  20920164.008     -839779.645 7   -630524.043 9
  20631925.617      338228.206 7    259312.403 9
  22881516.406    -2388351.792 6  -1794194.241 5
  20940432.727    -2541476.139 7  -1909593.669 9
  22557988.094     1394157.132 6   1019766.781 7
  23909807.133    -1740909.064 5  -1306681.387 4
 94  2 20  0 17  0.0000000  0  6  2 27 26  7 19 15
  20915353.797     -865074.779 7   -650234.516 9
  20635256.219      355723.694 7    272945.253 9
  22867666.922    -2461127.505 5  -1850902.562 6
  20925593.750    -2619444.689 7  -1970348.344 9
  22567603.195     1444696.503 6   1059148.093 6
  23900039.695    -1792245.295 5  -1346683.598 5
 94  2 20  0 17 30.0000000  0  6  2 27 26  7 19 15
  20910568.844     -890211.362 7   -669821.456 9
  20638664.547      373643.874 7    286909.023 9
  22853908.648    -2533433.418 5  -1907244.788 5
  20910848.359    -2696936.107 7  -2030731.243 9
  22577276.703     1495513.580 6   1098745.783 6
  23890362.281    -1843130.170 5  -1386334.121 5
 94  2 20  0 18  0.0000000  0  6  2 27 26  7 19 15
  20905813.305     -915202.975 7   -689295.427 9
  20642155.789      391989.504 7    301204.311 9
  22840230.953    -2605292.614 6  -1963238.929 5
  20896187.945    -2773982.401 7  -2090767.285 9
  22586994.930     1546599.175 6   1138552.711 6
  23880760.188    -1893567.633 5  -1425635.973 5
 94  2 20  0 18 30.0000000  0  6  2 27 26  7 19 15
  20901086.008     -940047.960 7   -708655.139 9
  20645725.625      410757.587 7    315828.787 9
  22826644.547    -2676697.216 6  -2018878.852 6
  20881611.109    -2850574.689 7  -2150449.549 9
  22596766.617     1597952.911 6   1178568.588 6
  23871249.328    -1943549.937 5  -1464583.180 5
 94  2 20  0 19  0.0000000  0  6  2 27 26  7 19 15
  20896381.461     -964750.646 7   -727903.981 9
  20649378.391      429941.271 7    330777.106 9
  22813144.273    -2747640.120 6  -2074159.012 6
  20867125.391    -2926703.874 7  -2209770.966 9
  22606584.109     1649559.963 6   1218781.840 6
  23861822.961    -1993072.193 5  -1503171.930 5
 94  2 20  0 19 30.0000000  0  7  2 27 26  7 19 15 13
  20891710.383     -989306.833 7   -747038.649 9
  20653109.469      449547.833 7    346054.941 9
  22799729.016    -2818115.708 5  -2129075.013 6
  20852725.422    -3002377.239 7  -2268737.189 9
  22616455.125     1701409.189 6   1259183.808 6
  23852493.344    -2042128.333 5  -1541397.439 5
  24687767.094          -0.17313
 94  2 20  0 20 29.9990000  0  7  2 27 26  7 19 15 13
  20882454.081    -1037947.927 7   -784940.768 9
  20660800.464      489962.358 7    377546.767 9
  22773174.839    -2957673.506 6  -2237821.291 6
  20824184.034    -3152368.096 7  -2385613.114 9
  22636319.730     1805791.930 6   1340520.943 6
  23834080.667    -2138844.997 5  -1616761.001 5
  24633074.354     -287397.004 2
 94  2 20  0 20 59.9990000  0  7  2 27 26  7 19 15 13
  20877872.753    -1062029.332 7   -803705.480 9
  20664759.042      510779.363 7    393767.798 9
  22760040.034    -3026720.373 6  -2291624.003 6
  20810038.479    -3226690.104 7  -2443526.336 9
  22646316.214     1858336.730 6   1381464.911 6
  23825015.948    -2186501.535 5  -1653895.923 5
  24605741.159     -431053.511 3
 94  2 20  0 21 29.9990000  0  7  2 27 26  7 19 15 13
  20873321.136    -1085946.438 7   -822342.171 9
  20668800.159      532008.188 7    410309.735 9
  22746989.901    -3095283.779 6  -2345050.012 6
  20795978.206    -3300571.522 7  -2501096.239 9
  22656363.323     1911126.613 6   1422599.857 6
  23816030.237    -2233697.202 5  -1690671.706 5
  24578404.050     -574686.712 3        -0.04311
 94  2 20  0 21 59.9990000  0  7  2 27 26  7 19 15 13
  20868805.620    -1109680.799 7   -840836.461 9
  20672921.042      553655.374 7    427177.663 9
  22734036.698    -3163357.565 6  -2398094.501 6
  20782006.456    -3373997.401 7  -2558311.179 9
  22666456.073     1964175.737 6   1463936.805 6
  23807139.558    -2280420.977 5  -1727079.805 5
  24551087.495     -718284.313 3
 94  2 20  0 22 29.9990000  0  7  2 27 26  7 19 15 13
  20864322.558    -1133224.749 7   -859182.369 9
  20677116.425      575718.107 7    444369.395 9
  22721175.808    -3230940.128 6  -2450756.201 6
  20768122.308    -3446963.798 7  -2615168.076 9
  22676602.245     2017498.989 6   1505487.355 6
  23798342.831    -2326669.430 5  -1763117.519 5
  24523759.534     -861841.442 3
 94  2 20  0 22 59.9990000  0  7  2 27 26  7 19 15 13
  20859881.995    -1156569.260 7   -877372.893 9
  20681394.487      598188.207 7    461878.562 9
  22708400.097    -3298059.900 6  -2503057.288 6
  20754324.245    -3519465.065 7  -2671662.536 9
  22686801.433     2071090.535 6   1547246.951 6
  23789632.886    -2372445.369 5  -1798787.038 5
  24496447.972    -1005359.959 4        -0.10611
 94  2 20  0 23 29.9990000  0  7  2 27 26  7 19 15 13
  20855479.214    -1179709.422 7   -895404.170 9
  20685744.683      621049.805 7    479692.780 9
  22695717.925    -3364722.090 6  -2555001.815 6
  20740617.440    -3591495.460 7  -2727790.085 9
  22697051.276     2124947.794 6   1589213.607 6
  23781014.519    -2417740.930 5  -1834082.241 5
  24469148.503    -1148830.617 3   -111795.051 2
 94  2 20  0 23 59.9990000  0  7  2 27 26  7 19 15 13
  20851107.136    -1202682.185 7   -913305.010 9
  20690164.628      644285.604 7    497798.590 9
  22683117.870    -3430931.732 6  -2606593.694 6
  20727001.214    -3663064.758 7  -2783558.337 9
  22707347.761     2179054.376 6   1631374.530 6
  23772484.120    -2462560.342 5  -1869006.421 5
  24441854.159    -1292256.451 3
 94  2 20  0 24 29.9990000  0  7  2 27 26  7 19 15 13
  20846762.183    -1225508.946 7   -931092.084 9
  20694658.394      667908.188 7    516205.792 9
  22670607.956    -3496688.667 6  -2657832.836 6
  20713467.394    -3734174.099 7  -2838968.180 9
  22717688.956     2233411.654 6   1673730.814 6
  23764043.237    -2506896.424 5  -1903553.985 5
  24414574.440    -1435628.811 5        -0.04011
 94  2 20  0 24 59.9990000  0  7  2 27 26  7 19 15 13
  20842441.714    -1248209.090 7   -948780.501 9
  20699233.370      691931.751 7    534925.442 9
  22658179.417    -3561981.202 6  -2708710.105 6
  20700024.519    -3804816.189 7  -2894013.931 9
  22728079.628     2288004.952 6   1716271.007 6
  23755702.604    -2550745.649 5  -1937722.165 5
  24387308.995    -1578942.671 5   -111672.879 1
 94  2 20  0 25 29.9990000  0  7  2 27 26  7 19 15 13
  20838139.862    -1270811.514 7   -966392.767 9
  20703878.620      716359.191 7    553959.804 9
  22645845.862    -3626797.393 6  -2759216.194 6
  20686665.737    -3875007.716 7  -2948708.591 9
  22738511.667     2342823.113 6   1758986.411 6
  23747450.206    -2594113.420 5  -1971515.204 5
  24360047.714    -1722202.110 4   -223303.394 1
 94  2 20  0 25 59.9990000  0  7  2 27 26  7 19 15 13
  20833858.683    -1293314.254 7   -983927.363 9
  20708607.878      741199.990 7    573316.258 9
  22633603.667    -3691137.507 6  -2809351.302 6
  20673394.089    -3944754.476 7  -3003056.683 9
  22748984.659     2397852.321 6   1801866.264 6
  23739288.206    -2637006.754 5  -2004938.530 5
  24332787.464    -1865412.671 4
 94  2 20  0 26 29.9990000  0  7  2 27 26  7 19 15 13
  20829606.792    -1315663.593 7  -1001342.418 9
  20713417.948      766476.329 7    593012.094 9
  22621455.558    -3754979.252 6  -2859098.083 6
  20660212.222    -4014026.541 7  -3057034.885 9
  22759498.120     2453110.515 6   1844924.549 6
  23731219.722    -2679407.373 5  -2037977.927 5
  24305544.269    -2008554.933 3        -0.00411
 94  2 20  0 26 59.9990000  0  7  2 27 26  7 19 15 13
  20825387.073    -1337838.265 7  -1018621.378 9
  20718309.698      792188.352 7    613047.429 9
  22609400.886    -3818308.860 6  -2908445.778 6
  20647121.894    -4082815.180 7  -3110636.385 9
  22770059.354     2508595.951 6   1888159.908 6
  23723241.011    -2721316.119 5  -2070634.047 5
  24278318.394    -2151628.161 3   -111485.472 1
 94  2 20  0 27 29.9990000  0  7  2 27 26  7 19 15 13
  20821203.714    -1359822.165 7  -1035751.686 9
  20723282.847      818319.404 7    633409.280 9
  22597449.292    -3881127.705 6  -2957395.490 6
  20634123.003    -4151134.756 7  -3163872.390 9
  22780658.542     2564315.418 6   1931577.641 6
  23715361.362    -2762734.012 5  -2102907.684 5
  24251112.128    -2294632.016 3   -222916.911 1
 94  2 20  0 27 59.9990000  0  7  2 27 26  7 19 15 13
  20817058.839    -1381607.588 7  -1052727.325 9
  20728332.800      844856.063 7    654087.192 9
  22585590.534    -3943445.506 6  -3005954.764 6
  20621212.628    -4218973.780 7  -3216733.935 9
  22791307.112     2620267.423 6   1975176.558 6
  23707570.112    -2803663.893 5  -2134801.057 5
  24223911.237    -2437567.898 3   -334295.313 1
 94  2 20  0 28 29.9990000  0  7  2 27 26  7 19 15 13
  20812948.901    -1403207.186 7  -1069558.177 9
  20733461.120      871794.424 7    675078.110 9
  22573819.839    -4005264.610 6  -3054125.451 6
  20608394.933    -4286327.300 7  -3269217.173 9
  22802000.237     2676460.749 6   2018963.511 6
  23699879.769    -2844102.284 5  -2166311.438 5
  24196727.519    -2580430.561 3   -445616.688 1
 94  2 20  0 28 59.9990000  0  7  2 27 26  7 19 15 13
  20808872.620    -1424629.358 7  -1086250.769 9
  20738661.058      899131.699 7    696379.878 9
  22562159.628    -4066579.707 6  -3101903.404 6
  20595667.581    -4353208.368 7  -3321332.258 9
  22812737.722     2732899.178 6   2062941.458 6
  23692278.026    -2884043.046 5  -2197434.076 4
  24169558.769    -2723212.255 4   -556874.894 1
 94  2 20  0 29 29.9990000  0  7  2 27 26  7 19 15 13
  20804825.354    -1445885.572 7  -1102814.045 9
  20743936.815      926854.040 7    717981.701 9
  22550582.948    -4127400.142 6  -3149295.920 6
  20583032.151    -4419613.950 7  -3373076.838 9
  22823532.573     2789589.755 6   2107115.899 6
  23684771.800    -2923485.709 5  -2228168.563 5
  24142398.628    -2865910.983 3   -668068.470 1
 94  2 20  0 29 59.9990000  0  7  2 27 26  7 19 15 13
  20800811.644    -1466988.884 7  -1119258.165 9
  20749289.495      954976.242 7    739895.103 9
  22539102.792    -4187729.808 6  -3196306.001 6
  20570486.401    -4485540.341 7  -3424448.028 9
  22834365.612     2846537.406 6   2151490.652 6
  23677354.776    -2962429.953 5  -2258514.688 5
  24115264.112    -3008524.830 5   -779195.891 2
 94  2 20  0 30 29.9990000  0  7  2 27 26  7 19 15 13
  20796822.620    -1487937.208 7  -1135581.521 9
  20754717.589      983506.257 7    762126.272 9
  22527723.034    -4247559.440 6  -3242926.445 6
  20558028.870    -4551001.858 7  -3475456.975 9
  22845250.331     2903750.048 6   2196071.885 6
  23670045.628    -3000872.818 5  -2288470.149 5
  24088144.120    -3151049.329 5   -890253.670 1
 94  2 20  0 30 59.9990000  0  7  2 27 26  7 19 15 13
  20792871.011    -1508714.017 7  -1151771.226 9
  20760224.339     1012447.831 7    784678.148 9
  22516432.503    -4306876.021 6  -3289147.112 6
  20545660.933    -4615995.217 7  -3526101.124 9
  22856189.104     2961230.569 6   2240861.854 6
  23662822.417    -3038807.112 5  -2318029.288 5
  24061036.776    -3293475.597 5  -1001234.943 2
 94  2 20  0 31 29.9990000  0  7  2 27 26  7 19 15 13
  20788945.878    -1529336.145 7  -1167840.403 9
  20765809.815     1041795.679 7    807546.594 9
  22505238.784    -4365687.288 6  -3334974.034 6
  20533382.214    -4680516.723 7  -3576377.592 9
  22867176.565     3018968.285 6   2285852.227 6
  23655704.589    -3076237.383 5  -2347195.686 5
  24033952.886    -3435806.536 5  -1112141.938 1
 94  2 20  0 31 59.9990000  0  7  2 27 26  7 19 15 13
  20785052.050    -1549799.948 7  -1183786.204 9
  20771474.026     1071564.948 7    830743.419 9
  22494145.800    -4423987.086 6  -3380402.402 6
  20521195.464    -4744560.922 7  -3626282.134 9
  22878211.651     3076951.622 6   2331034.000 6
  23648675.167    -3113156.831 5  -2375964.045 5
  24006882.948    -3578033.582 5  -1222967.938 2
 94  2 20  0 32 29.9990000  0  7  2 27 26  7 19 15 13
  20781187.581    -1570104.141 7  -1199607.634 9
  20777219.847     1101749.082 7    854263.521 9
  22483149.894    -4481769.783 6  -3425427.842 6
  20509104.776    -4808109.429 7  -3675800.429 9
  22889295.167     3135175.922 6   2376403.527 6
  23641752.440    -3149560.643 5  -2404330.606 5
  23979841.628    -3720150.184 5  -1333707.885 1
 94  2 20  0 32 59.9990000  0  7  2 27 26  7 19 15 13
  20777353.292    -1590255.568 7  -1215310.020 9
  20783040.800     1132346.437 7    878105.606 9
  22472249.323    -4539042.275 6  -3470055.720 6
  20497108.979    -4871140.476 7  -3724915.501 9
  22900418.831     3193636.766 6   2421957.373 6
  23634922.800    -3185445.649 5  -2432292.906 5
  23952819.933    -3862151.906 5  -1444358.390 1
 94  2 20  0 33 29.9990000  0  7  2 27 26  7 19 15 13
  20773544.339    -1610272.668 7  -1230907.741 9
  20788941.581     1163357.601 7    902270.145 9
  22461444.737    -4595817.276 6  -3514295.929 6
  20485214.573    -4933648.790 7  -3773623.253 9
  22911586.612     3252337.150 6   2467697.898 5
  23628194.909    -3220818.476 5  -2459856.107 5
  23925824.542    -4004043.261 5  -1554922.878 1
 94  2 20  0 33 59.9990000  0  7  2 27 26  7 19 15 13
  20769763.628    -1630142.157 7  -1246390.442 9
  20794922.229     1194788.838 7    926761.996 9
  22450738.620    -4652097.495 6  -3558150.613 6
  20473415.753    -4995644.353 7  -3821931.453 9
  22922802.979     3311286.355 6   2513632.288 6
  23621557.511    -3255679.981 5  -2487020.883 5
  23898842.183    -4145823.352 5  -1665400.716 1
 94  2 20  0 34 29.9990000  0  7  2 27 26  7 19 15 13
  20766015.667    -1649849.454 7  -1261746.754 9
  20800984.448     1226636.575 7    951578.407 9
  22440122.800    -4707885.309 6  -3601621.602 6
  20461714.409    -5057133.610 7  -3869845.125 9
  22934071.940     3370498.131 6   2559771.263 6
  23615020.440    -3290026.359 5  -2513784.270 5
  23871874.339    -4287486.734 5  -1775787.659 1
 94  2 20  0 34 59.9990000  0  7  2 27 26  7 19 15 13
  20762294.729    -1669399.772 7  -1276980.753 9
  20807120.151     1258890.155 7    976711.051 9
  22429593.753    -4763190.643 6  -3644716.634 6
  20450107.495    -5118138.214 7  -3917381.154 9
  22945383.128     3429954.463 5   2606100.828 6
  23608580.847    -3323865.124 5  -2540152.080 5
  23844940.386    -4429038.976 4  -1886087.967 1
 94  2 20  0 35 29.9990000  0  7  2 27 26  7 19 15 13
  20758607.972    -1688767.365 7  -1292072.359 9
  20813338.339     1291564.064 7   1002171.229 9
  22419170.190    -4817989.008 6  -3687416.622 6
  20438588.987    -5178666.105 7  -3964545.710 9
  22956750.206     3489660.415 6   2652624.897 6
  23602245.300    -3357178.064 5  -2566110.178 5
  23818042.222    -4570459.754 5  -1996285.845 2
 94  2 20  0 35 59.9990000  0  7  2 27 26  7 19 15 13
  20754958.222    -1707958.291 7  -1307026.319 9
  20819630.495     1324633.995 7   1027939.989 9
  22408837.433    -4872282.903 6  -3729723.521 6
  20427157.675    -5238739.815 7  -4011356.366 9
  22968146.808     3549587.803 5   2699321.514 6
  23596001.378    -3389972.040 5  -2591663.896 5
  23791148.901    -4711754.390 5  -2106385.425 1
 94  2 20  0 36 29.9990000  0  7  2 27 26  7 19 15 13
  20751331.995    -1726986.812 7  -1321853.732 9
  20825995.776     1358082.212 7   1054003.522 9
  22398599.612    -4926070.135 6  -3771635.615 6
  20415812.815    -5298351.744 7  -4057807.184 9
  22979594.237     3609718.723 6   2746176.742 6
  23589859.620    -3422252.052 5  -2616817.096 5
  23764277.261    -4852926.013 5  -2216389.143 1
 94  2 20  0 36 59.9990000  0  7  2 27 26  7 19 15 13
  20747745.253    -1745851.148 7  -1336553.206 9
  20832434.800     1391912.556 7   1080364.822 9
  22388467.136    -4979320.904 6  -3813129.683 6
  20404558.753    -5357495.393 7  -4103893.118 9
  22991074.862     3670056.553 6   2793193.192 6
  23583813.878    -3454011.253 5  -2641564.489 5
  23737443.644    -4993965.814 5  -2326290.168 1
 94  2 20  0 37 29.9990000  0  7  2 27 26  7 19 15 13
  20744186.276    -1764552.610 7  -1351125.767 9
  20838943.753     1426122.418 7   1107021.844 9
  22378436.417    -5032028.138 6  -3854200.222 6
  20393392.089    -5416180.013 7  -4149621.366 9
  23002596.792     3730610.648 5   2840378.150 6
  23577869.683    -3485251.906 5  -2665907.801 5
  23710633.604    -5134873.819 5  -2436088.514 2
 94  2 20  0 37 59.9990000  0  7  2 27 26  7 19 15 13
  20740658.784    -1783080.941 7  -1365563.426 9
  20845528.706     1460726.228 7   1133985.847 9
  22368509.253    -5084181.032 6  -3894838.803 6
  20382318.104    -5474373.202 7  -4194966.685 9
  23014172.019     3791411.500 6   2887755.403 6
  23572025.276    -3515962.458 5  -2689838.082 5
  23683844.855    -5275636.909 5  -2545773.909 1
 94  2 20  0 38 29.9990000  0  7  2 27 26  7 19 15 13
  20737163.972    -1801447.219 7  -1379874.807 9
  20852188.620     1495725.177 7   1161257.742 9
  22358692.128    -5135797.435 6  -3935059.355 6
  20371336.214    -5532071.395 7  -4239926.282 9
  23025785.362     3852451.859 5   2935319.280 6
  23566278.581    -3546154.033 5  -2713363.916 5
  23657079.495    -5416263.858 5  -2655353.197 1
 94  2 20  0 38 59.9990000  0  7  2 27 26  7 19 15 13
  20733699.339    -1819662.129 7  -1394068.235 9
  20858927.323     1531133.110 7   1188848.333 9
  22348968.019    -5186890.142 6  -3974871.821 6
  20360453.456    -5589274.674 7  -4284500.245 9
  23037449.448     3913740.398 5   2983076.550 6
  23560636.628    -3575821.221 5  -2736481.194 5
  23630346.948    -5556747.351 5  -2764820.736 2
 94  2 20  0 39 29.9990000  0  7  2 27 26  7 19 15 13
  20730259.362    -1837737.062 7  -1408152.592 9
  20865745.604     1566960.739 7   1216765.957 9
  22339337.003    -5237491.991 6  -4014301.787 6
  20349663.573    -5645977.943 7  -4328684.576 9
  23049154.690     3975279.199 5   3031028.821 5
  23555089.347    -3604964.578 5  -2759190.275 5
  23603646.503    -5697086.147 5  -2874175.498 1
 94  2 20  0 39 59.9990000  0  7  2 27 26  7 19 15 13
  20726846.315    -1855677.346 7  -1422132.034 9
  20872642.253     1603211.141 7   1245013.013 9
  22329803.050    -5287615.413 6  -4053358.962 6
  20338967.448    -5702177.375 7  -4372476.314 9
  23060914.472     4037052.722 5   3079163.978 6
  23549644.206    -3633582.318 5  -2781489.758 5
  23576969.339    -5837276.061 5  -2983414.201 3
 94  2 20  0 40 29.9990000  0  7  2 27 26  7 19 15 13
  20723458.417    -1873486.790 7  -1436009.514 9
  20879619.722     1639880.585 7   1273586.597 9
  22320353.698    -5337263.866 6  -4092046.053 6
  20328364.823    -5757892.859 7  -4415890.943 9
  23072707.589     4099047.748 5   3127471.743 5
  23544296.112    -3661674.596 5  -2803379.825 5
  23550320.276    -5977315.589 5  -3092535.699 2
 94  2 20  0 40 59.9990000  0  7  2 27 26  7 19 15 13
  20720093.987    -1891145.073 7  -1449769.209 9
  20886681.276     1676978.955 7   1302494.413 9
  22310998.128    -5386416.899 6  -4130347.076 6
  20317852.448    -5813133.355 7  -4458935.455 9
  23084553.511     4161285.019 6   3175968.267 5
  23539054.573    -3689231.134 5  -2824852.433 5
  23523694.628    -6117191.957 5  -3201530.172 1
 94  2 20  0 41 29.9990000  0  7  2 27 26  7 19 15 13
  20716765.979    -1908641.203 7  -1463402.547 9
  20893817.878     1714488.298 7   1331722.469 9
  22301745.519    -5435062.077 6  -4168252.386 6
  20307428.839    -5867917.306 7  -4501624.218 9
  23096439.995     4223745.288 5   3224638.564 5
  23533907.308    -3716259.709 5  -2845913.610 5
  23497110.526    -6256910.945 5  -3310401.976 2
 94  2 20  0 41 59.9990000  0  7  2 27 26  7 19 15 13
  20713465.987    -1925978.159 7  -1476911.855 9
  20901032.612     1752391.035 7   1361257.064 9
  22292586.729    -5483184.433 6  -4205750.309 6
  20297088.972    -5922241.352 7  -4543954.615 9
  23108362.534     4286409.988 5   3273468.154 5
  23528866.120    -3742765.466 5  -2866567.406 5
  23470556.362    -6396475.726 5  -3419153.619 1
 94  2 20  0 42 29.9990000  0  7  2 27 26  7 19 15 13
  20710200.745    -1943132.751 7  -1490279.049 9
  20908319.237     1790704.851 7   1391111.973 8
  22283531.487    -5530759.722 6  -4242821.940 6
  20286847.081    -5976074.609 7  -4585902.573 9
  23120334.925     4349306.769 6   3322478.593 5
  23523924.425    -3768732.006 5  -2886801.058 5
  23444023.847    -6535867.414 5  -3527770.409 2
 94  2 20  0 42 59.9990000  0  7  2 27 26  7 19 15 13
  20706968.144    -1960127.050 7  -1503521.342 9
  20915688.456     1829413.583 7   1421274.614 9
  22274584.644    -5577800.448 6  -4279477.032 6
  20276695.417    -6029411.467 7  -4627463.731 9
  23132343.347     4412412.911 5   3371652.157 5
  23519082.565    -3794168.110 5  -2906621.346 5
  23417528.698    -6675092.844 5  -3636257.634 1
 94  2 20  0 43 29.9990000  0  7  2 27 26  7 19 15 13
  20703763.315    -1976972.532 7  -1516647.683 9
  20923128.011     1868510.447 7   1451739.695 8
  22265732.151    -5624304.519 6  -4315713.967 6
  20266647.940    -6082229.299 7  -4668620.456 9
  23144386.073     4475716.919 5   3420979.921 5
  23514346.940    -3819067.339 5  -2926023.304 5
  23391074.347    -6814143.392 5  -3744608.584 3
 94  2 20  0 43 59.9990000  0  7  2 27 26  7 19 15 13
  20700586.729    -1993677.061 7  -1529664.178 9
  20930641.167     1907994.052 7   1482506.131 8
  22256980.495    -5670286.376 6  -4351543.968 6
  20256698.206    -6134516.191 7  -4709363.454 9
  23156473.550     4539221.846 5   3470464.234 5
  23509707.644    -3843432.673 5  -2945009.267 5
  23364639.870    -6953019.668 5  -3852823.779 3
 94  2 20  0 44 29.9990000  0  7  2 27 26  7 19 15 13
  20697433.620    -2010237.113 7  -1542568.100 9
  20938227.839     1947866.054 7   1513575.218 9
  22248329.909    -5715752.318 6  -4386971.956 6
  20246845.362    -6186293.578 7  -4749709.444 9
  23168594.378     4602931.842 5   3520108.339 5
  23505172.878    -3867267.413 5  -2963581.766 5
  23338252.698    -7091722.854 5  -3960904.098 2
 94  2 20  0 44 59.9990000  0  7  2 27 26  7 19 15 13
  20694311.847    -2026645.855 7  -1555354.117 9
  20945889.011     1988128.990 7   1544948.917 9
  22239775.862    -5760688.007 6  -4421986.760 6
  20237083.503    -6237573.049 7  -4789667.442 9
  23180763.534     4666848.546 5   3569913.525 5
  23500739.519    -3890564.261 5  -2981735.126 5
  23311889.823    -7230243.267 5  -4068841.997 2
 94  2 20  0 45 29.9990000  0  7  2 27 26  7 19 15 13
  20691217.558    -2042890.396 7  -1568012.180 9
  20953627.237     2028790.492 7   1576633.188 8
  22231332.745    -5805090.479 6  -4456586.080 6
  20227420.448    -6288366.968 7  -4829247.093 9
  23192966.894     4730981.705 5   3619887.372 5
  23496408.097    -3913328.617 5  -2999473.563 5
  23285568.964    -7368583.760 5  -4176639.716 2
 94  2 20  0 45 59.9990000  0  7  2 27 26  7 19 15 13
  20688160.214    -2058961.438 7  -1580535.064 9
  20961443.995     2069866.864 7   1608640.736 9
  22222985.753    -5848952.061 6  -4490763.925 6
  20217846.026    -6338679.626 7  -4868451.740 9
  23205211.245     4795340.902 5   3670037.354 4
  23492180.925    -3935557.146 5  -3016794.497 5
  23259271.925    -7506738.927 5  -4284292.992 3
 94  2 20  0 46 29.9990000  0  7  2 27 26  7 19 15 13
  20685133.847    -2074867.327 7  -1592929.248 9
  20969340.956     2111356.128 7   1640970.015 8
  22214743.628    -5892264.059 6  -4524513.507 6
  20208361.964    -6388521.171 7  -4907289.276 9
  23217500.237     4859920.246 5   3720358.886 5
  23488050.362    -3957246.291 5  -3033695.086 5
  23233023.800    -7644702.702 5  -4391797.144 2
 94  2 20  0 46 59.9990000  0  7  2 27 26  7 19 15 13
  20682135.269    -2090612.622 7  -1605198.299 9
  20977314.956     2153264.560 7   1673625.921 8
  22206601.948    -5935024.719 6  -4557833.467 6
  20198971.612    -6437876.527 7  -4945747.967 9
  23229834.003     4924721.761 5   3770853.549 5
  23484029.487    -3978386.422 5  -3050167.900 5
  23206809.245    -7782463.276 5  -4499142.944 1
 94  2 20  0 47 29.9990000  0  7  2 27 26  7 19 15 13
  20679169.737    -2106218.041 7  -1617358.363 9
  20985366.815     2195582.390 7   1706600.832 8
  22198566.370    -5977260.587 6  -4590744.519 6
  20189666.847    -6486746.539 7  -4983828.468 9
  23242205.198     4989739.482 5   3821516.679 5
  23480105.237    -3998984.845 5  -3066218.603 4
  23180623.292    -7920025.355 5  -4606334.054 3
 94  2 20  0 47 59.9990000  0  7  2 27 26  7 19 15 13
  20676223.526    -2121700.001 7  -1629422.215 9
  20993491.480     2238283.868 7   1739874.696 8
  22190626.167    -6018989.007 6  -4623260.149 6
  20180462.878    -6535130.711 7  -5021530.395 9
  23254615.222     5054967.253 5   3872343.461 5
  23476288.815    -4019043.734 5  -3081848.868 5
  23154489.362    -8057388.668 5  -4713370.299 3
 94  2 20  0 48 29.9990000  0  7  2 27 26  7 19 15 13
  20673300.065    -2137054.277 7  -1641386.589 9
  21001689.761     2281359.262 7   1773439.920 8
  22182775.292    -6060224.756 6  -4655391.886 6
  20171346.737    -6583030.535 7  -5058854.905 9
  23267069.511     5120409.382 5   3923337.289 5
  23472580.151    -4038565.900 5  -3097060.913 5
  23128385.269    -8194553.611 5  -4820251.952 2
 94  2 20  0 48 59.9990000  0  7  2 27 26  7 19 15 13
  20670405.722    -2152261.757 7  -1653236.559 9
  21009959.925     2324816.710 7   1807302.859 8
  22175024.878    -6100973.440 6  -4687144.103 6
  20162326.933    -6630432.404 7  -5095791.399 9
  23279567.979     5186084.267 5   3974512.503 5
  23468964.003    -4057546.655 5  -3111851.103 5
  23102322.386    -8331513.469 5  -4926973.803 2
 94  2 20  0 49 29.9990000  0  7  2 27 26  7 19 15 13
  20667545.667    -2167301.124 7  -1664955.537 9
  21018301.776     2368653.086 7   1841461.049 8
  22167366.659    -6141219.138 6  -4718504.363 6
  20153404.011    -6677319.180 7  -5132326.514 9
  23292110.831     5251992.889 5   4025869.836 5
  23465457.347    -4075981.021 5  -3126215.516 5
  23076298.300    -8468260.749 5  -5033529.991 4
 94  2 20  0 49 59.9990000  0  7  2 27 26  7 19 15 13
  20664717.487    -2182160.199 7  -1676534.037 9
  21026716.339     2412877.269 7   1875921.439 8
  22159806.581    -6180937.866 6  -4749453.985 6
  20144583.870    -6723682.151 7  -5168453.480 9
  23304697.151     5318129.439 5   4077404.763 5
  23462050.628    -4093864.536 5  -3140150.697 5
  23050325.167    -8604788.153 5  -5139914.861 2
 94  2 20  0 50 29.9990000  0  7  2 27 26  7 19 15 13
  20661923.519    -2196843.715 7  -1687975.732 9
  21035205.604     2457491.525 7   1910685.770 8
  22152348.159    -6220126.446 6  -4779990.510 6
  20135853.370    -6769537.905 7  -5204185.202 9
  23317319.940     5384478.531 5   4129105.309 5
  23458750.589    -4111206.101 5  -3153663.583 5
  23024383.581    -8741101.820 5  -5246133.150 3
 94  2 20  0 50 59.9990000  0  7  2 27 26  7 19 15 13
  20659160.058    -2211367.902 7  -1699293.274 9
  21043768.597     2502482.151 7   1945743.391 8
  22144998.589    -6258776.077 6  -4810107.073 6
  20127223.269    -6814889.164 7  -5239523.819 9
  23329979.503     5451020.295 5   4180955.989 5
  23455564.925    -4128008.385 5  -3166756.256 5
  22998487.347    -8877202.264 5  -5352185.320 4
 94  2 20  0 51 29.9990000  0  7  2 27 26  7 19 15 13
  20656423.940    -2225743.509 7  -1710495.041 9
  21052402.784     2547848.495 7   1981093.785 8
  22137741.995    -6296875.034 6  -4839794.533 6
  20118692.276    -6859735.654 7  -5274469.113 9
  23342681.136     5517735.384 5   4232941.722 5
  23452462.487    -4144268.328 5  -3179426.321 5
  22972626.183    -9013083.810 5  -5458066.900 3
 94  2 20  0 51 59.9990000  0  7  2 27 26  7 19 15 13
  20653715.628    -2239979.694 7  -1721588.170 9
  21061106.331     2593601.926 7   2016745.791 8
  22130597.573    -6334435.896 6  -4869062.718 6
  20110250.526    -6904089.785 7  -5309030.740 9
  23355409.128     5584631.328 5   4285068.404 5
  23449473.886    -4159986.166 5  -3191673.960 5
  22946813.573    -9148744.395 5  -5563776.319 3
 94  2 20  0 52 29.9990000  0  7  2 27 26  7 19 15 13
  20651037.206    -2254057.930 7  -1732558.212 9
  21069887.917     2639747.973 7   2052703.734 8
  22123552.761    -6371455.167 6  -4897908.871 6
  20101907.722    -6947945.581 7  -5343204.059 9
  23368177.440     5651729.631 5   4337352.749 5
  23446584.354    -4175152.102 5  -3203491.569 5
  22921037.269    -9284170.818 5  -5669303.297 3
 94  2 20  0 53 29.9980000  0  7  2 27 26  7 19 15 13
  20645767.881    -2281745.211 7
  21087672.600     2733196.831 7   2125521.001 8
  22109762.709    -6443897.765 6  -4954357.602 6
  20085501.732    -7034147.546 7  -5410374.370 9
  23393824.748     5786501.565 5   4442369.762 5
  23441120.537    -4203857.343 5
  22869625.748    -9554336.624 5  -5879821.876 2
 94  2 20  0 53 59.9980000  0  7  2 27 26  7 19 15 13
  20643182.545    -2295329.235 7  -1764717.628 9
  21096675.389     2780512.294 7   2162390.170 8
  22103026.818    -6479323.521 6  -4981962.066 6
  20077440.357    -7076508.227 7  -5443382.671 8
  23406708.232     5854219.541 5   4495136.959 5
  23438547.865    -4217390.886 5  -3236404.872 5
  22843990.873    -9689069.045 5  -5984808.063 2
 94  2 20  0 54 29.9980000  0  7  2 27 26  7 19 15 13
  20640630.686    -2308737.097 7  -1775165.308 9
  21105749.506     2828201.676 6   2199550.721 8
  22096389.146    -6514209.234 6  -5009145.727 6
  20069472.896    -7118374.900 7  -5476006.031 8
  23419636.881     5922157.062 5   4548075.259 5
  23436074.771    -4230380.886 5  -3246526.928 5
  22818395.100    -9823565.585 5  -6089610.490 4
 94  2 20  0 54 59.9980000  0  7  2 27 26  7 19 15 13
  20638113.303    -2321972.398 7  -1785478.524 9
  21114896.584     2876277.734 7   2237012.572 8
  22089854.748    -6548546.903 6  -5035902.332 7
  20061598.459    -7159743.470 7  -5508241.258 8
  23432606.389     5990313.264 5   4601183.943 4
  23433707.647    -4242819.647 5  -3256219.436 5
  22792850.818    -9957815.643 5  -6194220.830 1
 94  2 20  0 55 29.9980000  0  7  2 27 26  7 19 15 13
  20635624.303    -2335052.510 7  -1795670.809 9
  21124119.443     2924729.379 7   2274767.092 8
  22083420.514    -6582359.577 6  -5062249.849 6
  20053817.654    -7200637.319 7  -5540106.573 9
  23445617.311     6058682.035 5   4654458.278 4
  23431443.920    -4254713.219 5  -3265487.137 5
  22767343.264   -10091822.622 5  -6298641.770 3
 94  2 20  0 55 59.9980000  0  7  2 27 26  7 19 15 13
  20633161.912    -2347985.837 7  -1805748.718 9
  21133411.693     2973546.270 7   2312806.215 8
  22077086.264    -6615656.986 6  -5088195.864 6
  20046125.709    -7241053.227 7  -5571599.465 9
  23458658.982     6127235.837 5   4707876.790 3
  23429287.139    -4266066.892 5  -3274334.139 5
  22741897.834   -10225589.312 5  -6402875.465 4
 94  2 20  0 56 29.9980000  0  7  2 27 26  7 19 15 13
  20630726.029    -2360769.383 7  -1815709.911 9
  21142773.740     3022752.587 7   2351148.788 8
  22070844.584    -6648434.263 6  -5113736.592 6
  20038534.576    -7280976.097 7  -5602708.170 9
  23471745.709     6195968.898 5   4761434.983 4
  23427229.436    -4276870.795 5  -3282752.758 4
  22716487.803   -10359102.782 6  -6506911.880 4
 94  2 20  0 56 59.9980000  0  7  2 27 26  7 19 15 13
  20628322.068    -2373416.747 7  -1825564.994 9
  21152211.670     3072347.864 7   2389794.442 8
  22064705.248    -6680708.870 6  -5138885.619 6
  20031024.482    -7320416.701 7  -5633441.083 9
  23484855.178     6264874.891 5   4815127.940 5
  23425278.545    -4287123.843 5  -3290742.114 4
  22691126.248   -10492359.309 6  -6610748.044 3
 94  2 20  0 57 29.9980000  0  7  2 27 26  7 19 15 13
  20625942.389    -2385930.043 7  -1835315.613 9
  21161718.553     3122317.700 7   2428731.970 8
  22058657.357    -6712482.909 6  -5163644.599 7
  20023610.865    -7359377.977 7  -5663800.492 8
  23498001.514     6333950.884 5   4868953.320 4
  23423430.068    -4296826.666 5  -3298302.761 4
  22665821.311   -10625356.608 6  -6714382.256 4
 94  2 20  0 57 59.9980000  0  7  2 27 26  7 19 15 13
  20623588.365    -2398302.454 7  -1844956.444 9
  21171301.045     3172671.627 7   2467968.781 8
  22052710.693    -6743727.069 6  -5187990.687 7
  20016289.764    -7397844.015 7  -5693774.005 9
  23511175.147     6403203.891 5   4922916.671 2
  23421689.725    -4305974.303 5  -3305430.776 4
  22640560.639   -10758086.635 6  -6817808.202 4
 94  2 20  0 58 29.9980000  0  7  2 27 26  7 19 15 13
  20621257.959    -2410549.209 7  -1854499.361 9
  21180955.061     3223393.339 7   2507492.173 8
  22046866.178    -6774441.061 6  -5211923.656 7
  20009063.717    -7435829.042 7  -5723372.705 9
  23524386.209     6472629.139 5   4977014.230 5
  23420054.928    -4314578.693 5  -3312135.473 5
  22615356.678   -10890558.271 6  -6921032.772 4
 94  2 20  0 58 59.9980000  0  7  2 27 26  7 19 15 13
  20618952.826    -2422659.933 7  -1863936.274 9
  21190675.326     3274478.581 7   2547298.842 7
  22041127.271    -6804604.835 6  -5235427.880 7
  20001927.397    -7473331.109 7  -5752595.079 9
  23537637.131     6542240.615 5   5031256.893 5
  23418524.701    -4322634.943 5  -3318413.058 5
  22590191.365   -11022764.348 6  -7024050.428 5
 94  2 20  0 59 29.9980000  0  7  2 27 26  7 19 15 13
  20616677.436    -2434604.544 7  -1873243.764 9
  21200469.693     3325953.073 6   2587408.818 8
  22035496.850    -6834188.570 6  -5258480.116 7
  19994886.654    -7510333.164 7  -5781427.824 9
  23550920.389     6612069.144 5   5085668.686 5
  23417096.639    -4330133.252 5  -3324255.879 5
  22565087.123   -11154691.952 6  -7126851.106 5
 94  2 20  0 59 59.9980000  0  7  2 27 26  7 19 15 13
  20614435.639    -2446381.310 7  -1882420.458 9
  21210341.053     3377825.884 6   2627829.162 7
  22029981.896    -6863198.235 6  -5281085.031 6
  19987938.975    -7546843.572 7  -5809877.479 8
  23564258.178     6682114.712 5   5140249.602 5
  23415774.818    -4337081.357 5  -3329669.976 5
  22540042.084   -11286346.072 6  -7229438.632 5
 94  2 20  1  0 29.9980000  0  7  2 27 26  7 19 15 13
  20612229.084    -2457981.393 7  -1891459.474 9
  21220286.639     3430089.427 7   2668553.975 8
  22024564.357    -6891650.174 6  -5303255.358 7
  19981083.225    -7582867.903 7  -5837948.365 8
  23577623.404     6752387.032 5   5195007.233 5
  23414553.920    -4343475.433 5  -3334652.366 5
  22515040.443   -11417719.803 6  -7331807.671 4
 94  2 20  1  0 59.9980000  0  7  2 27 26  7 19 15 13
  20610055.795    -2469415.700 7  -1900369.317 9
  21230306.881     3482731.974 7   2709574.122 8
  22019246.146    -6919571.426 6  -5325012.162 7
  19974319.803    -7618398.134 7  -5865634.237 8
  23591037.475     6822877.347 5   5249934.697 5
  23413440.365    -4349320.645 5  -3339207.048 5
  22490087.029   -11548815.379 6  -7433959.965 5
 94  2 20  1  1 29.9980000  0  7  2 27 26  7 19 15 13
  20607908.615    -2480688.167 7  -1909153.045 9
  21240394.529     3535754.699 7   2750890.510 7
  22014039.295    -6946974.314 6  -5346365.039 6
  19967657.771    -7653428.605 7  -5892930.690 8
  23604488.084     6893561.691 5   5305013.369 5
  23412431.920    -4354614.208 5  -3343331.892 5
  22465198.717   -11679627.236 6  -7535891.181 4
 94  2 20  1  1 59.9980000  0  7  2 27 26  7 19 15 13
  20605795.076    -2491801.397 7  -1917812.688 9
  21250550.717     3589129.729 7   2792481.421 7
  22008915.287    -6973876.147 6  -5367327.498 7
  19961085.381    -7687955.528 7  -5919834.768 9
  23617972.701     6964409.547 5   5360219.436 5
  23411532.092    -4359355.142 5  -3347026.102 4
  22440359.178   -11810151.321 6  -7637598.152 5
 94  2 20  1  2 29.9980000  0  7  2 27 26  7 19 15 13
  20603711.303    -2502751.447 7  -1926345.190 9
  21260773.482     3642839.107 6   2834332.864 7
  22003890.061    -7000280.754 6  -5387902.502 7
  19954614.740    -7721970.683 7  -5946340.064 8
  23631483.514     7035409.283 5   5415543.881 5
  23410734.771    -4363543.499 5  -3350289.740 5
  22415579.357   -11940384.543 6  -7739078.461 5
 94  2 20  1  2 59.9980000  0  7  2 27 26  7 19 15 13
  20601656.186    -2513540.038 7  -1934751.881 9
  21271056.475     3696897.466 6   2876456.236 7
  21998960.670    -7026180.787 6  -5408084.323 7
  19948235.928    -7755488.285 7  -5972457.654 8
  23645020.311     7106552.676 5   5470980.245 3
  23410047.732    -4367183.768 5  -3353126.293 4
  22390846.490   -12070328.380 6  -7840333.274 5
 94  2 20  1  3 29.9980000  0  7  2 27 26  7 19 15 13
  20599640.764    -2524150.060 7  -1943019.420 9
  21281414.701     3751316.094 6   2918860.349 7
  21994134.404    -7051548.023 6  -5427850.984 7
  19941942.639    -7788527.933 7  -5998202.819 9
  23658583.670     7177845.252 5   5526532.869 4
  23409466.928    -4370272.278 5  -3355532.905 4
  22366181.162   -12199975.940 6  -7941357.228 4
 94  2 20  1  3 59.9980000  0  7  2 27 26  7 19 15 13
  20597652.076    -2534573.565 7  -1951141.620 9
  21291841.053     3806107.490 6   2961554.920 7
  21989410.896    -7076377.242 6  -5447198.417 7
  19935751.811    -7821090.933 7  -6023576.568 9
  23672183.662     7249314.275 5   5582222.988 4
  23408971.373    -4372807.414 5  -3357508.305 5
  22341565.389   -12329322.871 6  -8042146.948 4
 94  2 20  1  4 29.9980000  0  7  2 27 26  7 19 15 13
  20595701.686    -2544833.011 7  -1959135.988 9
  21302339.514     3861283.144 6   3004548.919 7
  21984791.615    -7100660.470 6  -5466120.392 6
  19929645.311    -7853190.877 7  -6048589.493 8
  23685817.709     7320955.990 5   5638047.653 3
  23408594.881    -4374799.642 5  -3359060.664 4
  22317009.529   -12458376.558 6  -8142708.131 5
 94  2 20  1  4 59.9980000  0  7  2 27 26  7 19 15 13
  20593774.521    -2554938.563 7  -1967010.437 9
  21312915.795     3916851.912 6   3047849.240 7
  21980276.990    -7124388.273 6  -5484609.579 7
  19923623.670    -7884822.759 7  -6073237.696 8
  23699484.678     7392773.317 5   5694009.164 4
  23408323.756    -4376244.302 5  -3360186.357 5
  22292504.498   -12587128.880 6  -8243034.511 4
 94  2 20  1  5 29.9980000  0  7  2 27 26  7 19 15 13
  20591884.498    -2564898.000 7  -1974771.024 9
  21323559.803     3972791.516 6   3091438.525 7
  21975861.951    -7147578.528 6  -5502679.905 7
  19917695.943    -7915973.404 7  -6097510.913 9
  23713187.639     7464757.434 5   5750100.636 4
  23408146.818    -4377145.899 5  -3360888.895 5
  22268064.311   -12715581.926 6  -8343127.674 5
 94  2 20  1  5 59.9980000  0  7  2 27 26  7 19 15 13
  20590016.592    -2574715.684 7  -1982421.169 9
  21334275.217     4029098.156 6   3135313.814 7
  21971552.639    -7170236.722 6  -5520335.636 7
  19911861.686    -7946618.775 7  -6121390.410 8
  23726913.373     7536921.170 5   5806332.081 4
  23408085.529    -4377497.619 5
  22243678.006   -12843725.369 6  -8442979.637 4
 94  2 20  1  6 29.9980000  0  7  2 27 26  7 19 15 13
  20588171.748    -2584400.359 7  -1989967.660 9
  21345057.451     4085756.623 6   3179463.246 7
  21967340.646    -7192361.723 6  -5537575.890 6
  19906128.295    -7976755.687 7  -6144873.695 9
  23740682.756     7609258.235 5   5862698.593 4
  23408116.787    -4377300.800 5
  22219354.623   -12971557.538 6  -8542589.036 5
 94  2 20  1  6 59.9980000  0  7  2 27 26  7 19 15 13
  20586358.100    -2593950.576 7  -1997409.380 9
  21355901.537     4142758.657 6   3223880.398 7
  21963227.256    -7213967.790 6  -5554411.782 6
  19900489.139    -8006389.836 7  -6167965.231 8
  23754479.537     7681780.072 4   5919209.073 2
  23408256.795    -4376557.413 5  -3360430.332 5
  22195084.357   -13099076.814 6  -8641954.607 5
 94  2 20  1  7 29.9980000  0  7  2 27 26  7 19 15 13
  20584565.303    -2603364.203 7  -2004744.679 9
  21366819.639     4200108.884 6   3268568.860 7
  21959215.959    -7235046.890 6  -5570837.055 6
  19894940.693    -8035532.209 7  -6190673.552 8
  23768317.295     7754492.051 4   5975867.704 3
  23408505.326    -4375264.497 5  -3359422.866 4
  22170880.943   -13226277.524 6  -8741071.978 5
 94  2 20  1  7 59.9980000  0  7  2 27 26  7 19 15 13
  20582798.436    -2612638.859 7  -2011971.687 9
  21377795.357     4257806.257 6   3313527.817 7
  21955309.553    -7255589.329 6  -5586844.155 6
  19889488.943    -8064194.773 7  -6213008.019 8
  23782192.779     7827386.317 3   6032668.371 2
  23408856.709    -4373424.044 5  -3357988.745 4
  22146736.443   -13353158.246 6  -8839940.024 5
 94  2 20  1  8 29.9980000  0  8  2 27 26  7 19 15 13  4
  20581063.467    -2621768.041 7  -2019085.347 9
  21388840.600     4315853.987 6   3358759.787 7
  21951499.389    -7275605.810 6  -5602441.426 6
  19884120.771    -8092395.173 7  -6234982.354 8
  23796095.709     7900455.255 3   6089605.122 1
  23409309.225    -4371037.339 5  -3356128.980 4
  22122650.521   -13479717.212 6  -8938557.322 5
  24137309.576          -0.72414
 94  2 20  1  8 59.9980000  0  8  2 27 26  7 19 15 13  4
  20579357.693    -2630736.126 7  -2026073.468 9
  21399957.107     4374251.886 6   3404264.611 7
  21947787.826    -7295094.434 6  -5617627.375 7
  19878841.459    -8120143.467 7  -6256604.398 8
  23810035.943     7973697.569 3   6146677.015 2
  23409871.154    -4368102.155 5  -3353841.837 5
  22098628.061   -13605948.794 6  -9036919.542 5
  24113690.545     -124100.859 3        -0.06211
 94  2 20  1  9 29.9980000  0  8  2 27 26  7 19 15 13  4
  20577685.584    -2639522.605 7  -2032920.088 9
  21411134.967     4433008.633 6   3450049.060 7
  21944184.076    -7314051.264 6  -5632398.950 7
  19873649.561    -8147428.490 7  -6277865.446 8
  23823997.818     8047106.069 3   6203878.383 2
  23410532.514    -4364613.977 5  -3351123.775 5
  22074672.365   -13731845.277 6  -9135020.632 5
  24090055.717     -248281.571 2    -96764.182 2
 94  2 20  1  9 59.9980000  0  8  2 27 26  7 19 15 13  4
  20576050.498    -2648115.388 7  -2039615.776 9
  21422383.053     4492120.692 6   3496110.367 7
  21940672.045    -7332491.463 6  -5646767.940 7
  19868546.912    -8174238.048 7  -6298756.004 8
  23838007.436     8120673.728 4   6261203.758 2
  23411299.186    -4360577.774 5  -3347978.657 5
  22050774.756   -13857408.438 6  -9232862.005 5
  24066412.029     -372534.849 3   -193584.782 1
 94  2 20  1 10 29.9980000  0  8  2 27 26  7 19 15 13  4
  20574449.201    -2656521.595 7  -2046166.078 9
  21433701.357     4551590.010 6   3542450.072 7
  21937266.428    -7350419.323 6  -5660737.713 6
  19863538.584    -8200568.761 7  -6319273.442 8
  23852030.865     8194396.519 4   6318650.012 2
  23412173.998    -4355997.923 5  -3344409.942 5
  22026948.600   -13982639.346 6  -9330444.462 5
  24042763.662     -496875.093 3   -290473.145 2
 94  2 20  1 10 59.9980000  0  8  2 27 26  7 19 15 13  4
  20572887.584    -2664740.554 7  -2052570.474 9
  21445087.959     4611424.526 6   3589074.329 7
  21933950.084    -7367823.293 6  -5674299.252 7
  19858617.811    -8226412.298 7  -6339411.262 9
  23866092.662     8268266.590 5   6376211.033 4
  23413147.912    -4350873.205 5  -3340416.648 5
  22003184.521   -14107533.307 6  -9427764.376 5
  24019080.811     -621295.934 3   -387424.353 3
 94  2 20  1 11 29.9980000  0  8  2 27 26  7 19 15 13  4
  20571355.068    -2672778.231 7  -2058833.607 9
  21456543.779     4671630.313 6   3635987.894 7
  21930735.373    -7384710.023 6  -5687457.743 6
  19853798.842    -8251755.127 7  -6359158.907 8
  23880177.123     8342282.449 5   6433885.681 4
  23414231.146    -4345200.424 5  -3335996.299 4
  21979479.631   -14232084.101 6
  23995371.897     -745793.472 3
 94  2 20  1 11 59.9980000  0  8  2 27 26  7 19 15 13  4
  20569853.014    -2680657.558 7  -2064973.342 9
  21468065.568     4732178.252 6   3683168.070 7
  21927619.522    -7401091.034 6  -5700222.167 7
  19849069.686    -8276612.181 7  -6378528.026 8
  23894286.959     8416439.860 5   6491670.614 4
  23415403.303    -4338988.970 5  -3331156.175 4
  21955843.584   -14356298.003 6  -9621606.882 5
  23971673.420     -870375.286 3   -581511.869 3
 94  2 20  1 12 29.9980000  0  8  2 27 26  7 19 15 13  4
  20568387.826    -2688388.248 7  -2070997.255 9
  21479655.201     4793068.132 6   3730614.708 7
  21924597.662    -7416965.595 6  -5712591.962 7
  19844426.232    -8300989.150 7  -6397523.060 8
  23908426.248     8490748.230 5   6549573.176 4
  23416691.631    -4332233.148 5  -3325891.900 3
  21932272.982   -14480165.725 6  -9718127.114 5
  23947958.303     -995023.024 3   -678639.842 3
 94  2 20  1 12 59.9980000  0  8  2 27 26  7 19 15 13  4
  20566940.209    -2695980.900 7  -2076913.607 9
  21491302.615     4854289.840 6   3778319.906 7
  21921669.795    -7432342.229 6  -5724573.766 7
  19839879.873    -8324896.259 7  -6416151.964 8
  23922594.740     8565206.663 5   6607592.689 4
  23418082.318    -4324936.912 5  -3320206.518 3
  21908766.131   -14603687.729 6  -9814377.960 5
  23924241.592    -1119727.280 4   -775811.845 3
 94  2 20  1 13 29.9980000  0  8  2 27 26  7 19 15 13  4
  20565524.936    -2703421.265 7  -2082711.297 9
  21503018.514     4915843.602 6   3826283.847 7
  21918845.779    -7447205.592 6  -5736155.604 7
  19835420.607    -8348309.058 7  -6434395.694 8
  23936791.537     8639832.321 5   6665742.447 4
  23419578.951    -4317089.008 5  -3314091.252 4
  21885331.240   -14726849.707 6  -9910348.270 5
  23900499.584    -1244467.387 4   -873011.767 3
 94  2 20  1 13 59.9980000  0  8  2 27 26  7 19 15 13  4
  20564132.803    -2710724.434 7  -2088402.075 9
  21514792.951     4977733.498 6   3874509.719 7
  21916117.936    -7461548.109 6  -5747331.609 7
  19831059.396    -8371245.669 7  -6452268.360 8
  23951025.451     8714616.587 5   6724015.945 2
  23421169.217    -4308699.387 5  -3307553.886 4
  21861960.240   -14849658.191 6 -10006043.140 5
  23876751.084    -1369251.300 5   -970245.870 2
 94  2 20  1 14 29.9980000  0  8  2 27 26  7 19 15 13  4
  20562771.420    -2717891.842 7  -2093987.071 9
  21526639.576     5039977.921 6   3923011.830 7
  21913486.295    -7475365.005 6  -5758098.028 6
  19826784.201    -8393707.685 7  -6469771.229 8
  23965281.522     8789557.482 4   6782411.361 3
  23422868.146    -4299769.758 5  -3300595.718 3
  21838656.092   -14972111.555 6 -10101461.287 5
  23852990.350    -1494089.072 5  -1067521.930 1
 94  2 20  1 14 59.9980000  0  8  2 27 26  7 19 15 13  4
  20561435.459    -2724919.579 7  -2099463.240 9
  21538550.248     5102575.241 6   3971788.930 7
  21910956.678    -7488657.326 6  -5768455.691 6
  19822598.006    -8415698.275 7  -6486906.738 8
  23979579.795     8864650.299 5   6840925.154 2
  23424674.295    -4290305.338 5  -3293220.830 4
  21815422.217   -15094211.467 6 -10196604.014 5
  23829216.357    -1618997.215 5  -1164852.796 3
 94  2 20  1 15 29.9980000  0  8  2 27 26  7 19 15 13  4
  20560122.834    -2731795.382 7  -2104821.010 9
  21550530.795     5165524.727 6   4020840.442 7
  21908529.920    -7501419.707 6  -5778400.410 7
  19818508.029    -8437215.887 7  -6503673.704 8
  23993893.412     8939896.965 4   6899558.919 2
  23426575.561    -4280300.403 5  -3285424.788 4
  21792258.131   -15215948.857 6 -10291464.263 5
  23805434.748    -1743973.582 5  -1262236.858 4
 94  2 20  1 15 59.9980000  0  8  2 27 26  7 19 15 13  4
  20558843.928    -2738522.473 7  -2110062.905 9
  21562572.193     5228822.693 6   4070163.489 7
  21906195.240    -7513667.642 6  -5787944.251 6
  19814496.553    -8458285.380 7  -6520091.488 8
  24008245.678     9015301.567 5   6958315.693 2
  23428581.287    -4269757.667 5  -3277209.657 3
  21769159.076   -15337322.958 6 -10386041.445 5
  23781637.818    -1869015.182 5  -1359671.692 2
 94  2 20  1 16 29.9980000  0  8  2 27 26  7 19 15 13  4
  20557594.061    -2745087.618 7  -2115178.603 9
  21574683.147     5292439.574 6   4119735.051 7
  21903963.873    -7525419.573 6  -5797101.627 7
  19810571.100    -8478897.583 7  -6536152.938 9
  24022625.045     9090851.597 4   7017185.799 2
  23430695.123    -4258678.442 5  -3268576.461 4
  21746132.623   -15458331.758 6 -10480333.947 5
  23757834.022    -1994100.374 4  -1457140.493 2
 94  2 20  1 16 59.9980000  0  8  2 27 26  7 19 15 13  4
  20556382.115    -2751465.903 7  -2120148.702 9
  21586843.514     5356376.361 6   4169555.884 6
  21901824.990    -7536658.107 6  -5805858.929 7
  19806738.506    -8499044.123 7  -6551851.536 8
  24037017.732     9166543.258 3   7076166.271 2
  23432905.131    -4247053.329 5  -3259517.910 2
  21723179.045   -15578962.332 6 -10574331.742 5
  23734038.029    -2119207.872 5  -1554626.701 3
 94  2 20  1 17 29.9980000  0  8  2 27 26  7 19 15 13  4
  20555197.967    -2757676.040 7  -2124987.775 9
  21599072.779     5420620.853 6   4219616.502 6
  21899780.826    -7547391.566 6  -5814222.672 7
  19802993.217    -8518736.866 7  -6567196.531 8
  24051462.607     9242370.461 4   7135252.352 3
  23435215.404    -4234892.074 5  -3250041.625 3
  21700291.389   -15699220.952 6 -10668039.699 5
  23710221.139    -2244332.031 4  -1652125.877 2
 94  2 20  1 17 59.9980000  0  8  2 27 26  7  9 15 13  4
  20554052.623    -2763713.160 7  -2129692.033 9
  21611359.436     5485184.615 6   4269925.888 6
  21897831.443    -7557619.435 6  -5822192.432 7
  19799334.787    -8537955.149 7  -6582171.813 9
  23977254.967          -0.95713
  23437634.318    -4222190.955 5  -3240144.628 3
  21677481.404   -15819100.635 6 -10761452.386 5
  23686407.725    -2369453.580 5  -1749623.111 3
 94  2 20  1 18 29.9980000  0  8  2 27 26  7  9 15 13  4
  20552936.936    -2769567.803 7  -2134254.098 9
  21623705.865     5550072.701 6   4320487.995 6
  21895980.428    -7567336.212 6  -5829763.957 6
  19795773.732    -8556687.568 7  -6596768.505 8
  23953750.678     -123518.322 3
  23440156.881    -4208948.643 5  -3229825.914 3
  21654742.037   -15938596.112 6 -10854565.676 5
  23662601.365    -2494581.969 4  -1847125.645 2
 94  2 20  1 18 59.9980000  0  8  2 27 26  7  9 15 13  4
  20551856.217    -2775250.193 7  -2138681.940 9
  21636116.990     5615293.565 6   4371309.408 6
  21894229.498    -7576541.617 6  -5836936.995 6
  19792298.326    -8574945.642 7  -6610995.572 8
  23930263.107     -247014.167 3        -0.40912
  23442771.482    -4195173.709 5  -3219092.169 4
  21632076.248   -16057713.061 6 -10947384.000 5
  23638778.506    -2619743.363 3  -1944653.916 1
 94  2 20  1 19 29.9980000  0  8  2 27 26  7  9 15 13  4
  20550805.264    -2780758.381 7  -2142974.045 9
  21648592.568     5680839.593 6   4422384.197 6
  21892575.748    -7585247.701 6  -5843720.957 6
  19788916.631    -8592719.413 7  -6624845.263 9
  23906768.350     -370478.554 4    -96206.351 2
  23445492.865    -4180864.667 5  -3207942.274 4
  21609481.029   -16176445.976 6 -11039903.098 5
  23614957.607    -2744931.630 3  -2042203.156 1
 94  2 20  1 19 59.9980000  0  8  2 27 26  7  9 15 13  4
  20549796.959    -2786071.652 7  -2147114.259 9
  21661124.303     5746712.033 6   4473713.343 6
  21891014.217    -7593450.090 6  -5850112.423 6
  19785624.521    -8610005.610 7  -6638315.029 9
  23883280.709     -493907.354 4   -192384.578 3
  23448322.615    -4166017.586 5  -3196373.089 4
  21586960.951   -16294787.732 6 -11132117.390 6
  23591129.811    -2870153.938 3  -2139778.936 1
 94  2 20  1 20 29.9980000  0  8  2 27 26  7  9 15 13  4
  20548822.857    -2791196.636 7  -2151107.760 9
  21673723.498     5812903.899 6   4525291.382 6
  21889554.170    -7601135.609 6  -5856101.146 6
  19782420.350    -8626828.289 7  -6651423.604 9
  23859800.795     -617301.348 4   -288535.661 2
  23451253.912    -4150635.621 5  -3184387.130 2
  21564516.436   -16412738.002 6 -11224026.622 5
  23567295.537    -2995418.479 3  -2237387.554 1
 94  2 20  1 20 59.9980000  0  8  2 27 26  7  9 15 13  4
  20547876.592    -2796155.130 7  -2154971.531 9
  21686375.990     5879402.494 6   4577108.432 6
  21888188.670    -7608309.497 6  -5861691.191 6
  19779311.123    -8643194.764 7  -6664176.700 9
  23836328.107     -740650.554 4   -384651.831 2
  23454274.201    -4134725.758 5  -3171989.814 3
  21542143.842   -16530300.184 6 -11315633.453 6
  23543449.357    -3120710.627 4  -2335017.716 4
 94  2 20  1 21 29.9980000  0  8  2 27 26  7  9 15 13  4
  20546962.193    -2800957.228 7  -2158713.433 9
  21699087.732     5946207.317 6   4629164.114 6
  21886922.982    -7614971.923 6  -5866882.692 6
  19776281.311    -8659110.282 7  -6676578.405 9
  23812864.936     -863952.319 4   -480731.037 2
  23457408.326    -4118286.992 5  -3159180.368 3
  21519848.623   -16647469.527 6 -11406934.180 6
  23519605.412    -3246014.068 4  -2432656.645 4
 94  2 20  1 21 59.9980000  0  8  2 27 26  7  9 15 13  4
  20546075.678    -2805622.062 7  -2162348.374 9
  21711860.475     6013330.147 6   4681467.582 6
  21885754.795    -7621114.076 6  -5871668.791 6
  19773339.029    -8674580.481 7  -6688633.102 8
  23789407.389     -987213.559 3   -576778.637 2
  23460634.115    -4101321.338 5  -3145960.352 3
  21497627.014   -16764244.682 6 -11497927.745 6
  23495763.045    -3371329.980 5  -2530305.302 4
 94  2 20  1 22 29.9980000  0  8  2 27 26  7  9 15 13  4
  20545213.920    -2810139.733 7  -2165868.630 9
  21724698.506     6080778.930 6   4734025.042 6
  21884683.186    -7626722.299 6  -5876038.838 6
  19770484.193    -8689589.548 7  -6700328.479 9
  23765960.584    -1110432.048 4   -672792.953 2
  23463963.850    -4083821.956 5  -3132324.461 4
  21475482.006   -16880615.270 6 -11588606.066 6
  23471918.053    -3496632.977 5  -2627943.891 3
 94  2 20  1 22 59.9980000  0  8  2 27 26  7  9 15 13  4
  20544387.170    -2814508.291 7  -2169272.704 9
  21737593.420     6148549.769 6   4786833.456 6
  21883717.795    -7631814.132 6  -5880006.500 6
  19767712.396    -8704130.739 7  -6711659.276 9
  23742523.131    -1233611.478 4   -768776.837 3
  23467394.592    -4065797.262 5  -3118279.225 3
  21453413.990   -16996586.123 6 -11678972.915 5
  23448079.803    -3621927.585 5  -2725575.981 3
 94  2 20  1 23 29.9980000  0  8  2 27 26  7  9 15 13  4
  20543585.389    -2818709.455 7
  21750552.365     6216655.580 6   4839902.891 6
  21882842.725    -7636381.361 6
  19765040.146    -8718201.369 7  -6722623.401 9
  23719087.647    -1356758.572 4   -864735.514 2
  23470924.295    -4047244.477 5  -3103822.496 2
  21431424.881   -17112150.884 6 -11769023.315 6
  23424229.568    -3747220.127 5  -2823206.435 5
 94  2 20  1 23 59.9980000  0  8  2 27 26  7  9 15 13  4
  20542819.787    -2822731.142 7
  21763577.896     6285087.739 6   4893226.619 6
  21882072.248    -7640432.174 6
  19762450.732    -8731799.375 7  -6733219.242 9
  23695655.248    -1479871.989 4   -960667.943 3
  23474552.412    -4028168.283 4  -3088957.894 2
  21409506.709   -17227310.605 6 -11858758.107 6
  23400382.928    -3872517.242 5  -2920840.484 5
 94  2 20  1 24 29.9980000  0  8  2 27 26  7  9 15 13  4
  20542090.787    -2826561.260 7  -2178664.630 9
  21776660.732     6353835.211 6   4946796.033 6
  21881404.482    -7643982.956 6  -5889488.713 6
  19759948.326    -8744928.414 7  -6743449.660 9
  23672228.256    -1602941.238 3  -1056565.945 2
  23478292.045    -4008570.057 5  -3073686.547 2
  21387671.842   -17342063.338 6 -11948175.774 5
  23376543.389    -3997816.033 5  -3018475.827 5
 94  2 20  1 24 59.9980000  0  8  2 27 26  7  9 15 13  4
  20541395.381    -2830216.265 7  -2181512.695 9
  21789798.279     6422894.951 6   5000608.785 6
  21880817.436    -7647042.754 6  -5891872.988 6
  19757540.818    -8757598.506 7  -6753322.461 8
  23648826.014    -1725957.126 4  -1152422.396 3
  23482115.279    -3988448.919 5  -3058007.731 4
  21365912.928   -17456404.478 6 -12037272.714 6
  23352697.225    -4123121.578 5  -3116116.472 5
 94  2 20  1 25 59.9970000  0  8  2 27 26  7  9 15 13  4
  20540097.915    -2837036.341 7  -2186827.037 9
  21816257.884     6561925.928 6   5108944.550 6
  21879920.118    -7651736.259 6  -5895530.271 6
  19752975.704    -8781582.891 7  -6772011.584 9
  23602053.556    -1971778.316 4  -1343971.165 3
  23490073.345    -3946636.196 5  -3025426.335 2
  21322634.696   -17683831.165 6 -12214488.232 6
  23305009.798    -4373725.949 5  -3311392.472 4
 94  2 20  1 26 29.9970000  0  8  2 27 26  7  9 15 13  4
  20539494.728    -2840224.848 7  -2189311.590 9
  21829568.079     6631887.142 6   5163459.758 6
  21879611.579    -7653382.418 6  -5896813.000 6
  19750816.704    -8792906.536 7  -6780835.198 9
  23578681.204    -2094577.953 4  -1439659.092 3
  23494195.485    -3924948.429 4  -3008526.763 3
  21301112.845   -17796917.831 6 -12302607.667 6
  23281167.868    -4499016.102 5  -3409021.130 4
 94  2 20  1 26 59.9970000  0  8  2 27 26  7  9 15 13  4
  20538913.009    -2843262.968 7  -2191678.961 9
  21842938.337     6702151.760 6   5218211.387 6
  21879389.431    -7654553.415 6  -5897725.468 6
  19748744.728    -8803793.955 7  -6789318.895 9
  23555328.837    -2217307.558 4  -1535292.476 2
  23498425.165    -3902741.233 5  -2991222.407 4
  21279677.563   -17909581.546 6 -12390397.540 6
  23257329.571    -4624301.352 5  -3506645.976 2
 94  2 20  1 27 29.9970000  0  8  2 27 26  7  9 15 13  4
  20538367.603    -2846143.927 7  -2193923.863 9
  21856371.517     6772724.084 6   5273202.765 6
  21879252.712    -7655253.942 6  -5898271.339 6
  19746755.438    -8814247.809 7  -6797464.758 9
  23531985.712    -2339968.777 4  -1630872.516 3
  23502741.603    -3880020.062 5  -2973517.601 3
  21258318.696   -18021824.198 6 -12477859.308 6
  23233493.813    -4749584.507 5  -3604269.147 4
 94  2 20  1 27 59.9970000  0  8  2 27 26  7  9 15 13  4
  20537845.915    -2848860.493 7  -2196040.664 9
  21869855.899     6843607.902 6   5328436.867 6
  21879215.478    -7655474.652 6
  19744850.345    -8824271.271 7  -6805275.242 9
  23508655.524    -2462573.177 4  -1726408.356 1
  23507175.314    -3856784.043 5  -2955411.586 4
  21237039.063   -18133641.343 6 -12564989.502 6
  23209642.923    -4874862.584 5  -3701888.369 4
 94  2 20  1 28 29.9970000  0  8  2 27 26  7  9 15 13  4
  20537366.595    -2851392.548 7  -2198013.696 9
  21883408.079     6914799.314 6   5383910.664 6
  21879258.579    -7655207.597 6
  19743027.360    -8833865.496 7  -6812751.266 9
  23485336.915    -2585127.690 5  -1821905.280 4
  23511688.688    -3833035.673 5  -2936906.338 3
  21215840.009   -18245032.308 6 -12651787.618 6
  23185808.376    -5000135.533 5  -3799503.605 4
 94  2 20  1 28 59.9970000  0  8  2 27 26  7  9 15 13  4
  20536920.454    -2853744.414 7  -2199846.324 9
  21897007.337     6986288.949 6   5439616.844 6
  21879405.649    -7654460.495 6  -5897653.073 6
  19741277.868    -8843042.776 7  -6819902.386 9
  23462027.446    -2707623.433 5  -1917356.430 2
  23516304.142    -3808778.304 5  -2918004.462 3
  21194729.532   -18355996.632 6 -12738253.290 6
  23161961.454    -5125394.119 4  -3897107.617 3
 94  2 20  1 29 29.9970000  0  8  2 27 26  7  9 15 13  4
  20536503.259    -2855924.923 7  -2201545.424 9
  21910667.493     7058067.623 6   5495548.229 6
  21879640.915    -7653235.929 6  -5896698.875 6
  19739610.196    -8851807.634 7  -6826732.145 9
  23438720.993    -2830057.906 5  -2012759.835 4
  23521015.267    -3784017.400 5  -2898710.207 3
  21173689.931   -18466536.036 6 -12824387.859 6
  23138137.884    -5250611.095 4  -3994679.238 2
 94  2 20  1 29 59.9970000  0  8  2 27 26  7  9 15 13  4
  20536125.946    -2857916.593 7  -2203097.375 9
  21924384.540     7130132.875 6   5551702.950 6
  21879962.110    -7651514.781 6  -5895357.722 6
  19738025.681    -8860136.872 7  -6833222.456 9
  23415440.243    -2952422.625 4  -2108108.949 2
  23525825.540    -3758741.783 5  -2879014.899 3
  21152736.524   -18576635.931 6 -12910179.933 6
  23114325.774    -5375761.969 4  -4092199.312 4
 94  2 20  1 30 29.9970000  0  8  2 27 26  7  9 15 13  4
  20535783.267    -2859724.870 7  -2204506.416 9
  21938148.235     7202478.719 6   5608076.316 6
  21880392.032    -7649291.275 6  -5893625.110 6
  19736525.251    -8868019.967 7  -6839365.120 9
  23392167.892    -3074706.077 5  -2203394.653 4
  23530729.134    -3732955.173 4  -2858921.413 2
  21131870.610   -18686296.056 6 -12995629.344 6
  23090523.353    -5500843.610 5  -4189665.404 2
 94  2 20  1 30 59.9970000  0  8  2 27 26  7  9 15 13  4
  20535464.970    -2861384.126 7  -2205799.346 9
  21951972.204     7275109.588 6   5664671.764 6
  21880907.181    -7646580.922 6  -5891513.156 6
  19735107.063    -8875461.790 7  -6845163.941 9
  23368914.665    -3196903.496 4  -2298613.343 3
  23535733.923    -3706663.345 4  -2838434.242 4
  21111085.618   -18795518.238 6 -13080737.499 6
  23066739.767    -5625860.465 5  -4287081.027 2
 94  2 20  1 31 29.9970000  0  8  2 27 26  7  9 15 13  4
  20535173.978    -2862892.801 7  -2206974.940 9
  21965846.798     7348029.393 6   5721492.365 6
  21881512.212    -7643377.925 6  -5889017.307 6
  19733782.407    -8882441.317 7  -6850602.535 9
  23345679.993    -3319018.321 5  -2393767.708 4
  23540832.079    -3679865.962 4  -2817553.146 4
  21090385.462   -18904298.841 6 -13165501.573 6
  23042956.399    -5750821.720 5  -4384453.348 4
 94  2 20  1 31 59.9970000  0  8  2 27 26  7  9 15 13  4
  20534919.954    -2864250.656 7  -2208033.008 9
  21979777.524     7421237.180 6   5778537.356 6
  21882219.134    -7639684.054 6  -5886138.955 6
  19732543.946    -8888949.680 7  -6855673.990 9
  23322456.415    -3441048.925 5  -2488856.408 3
  23546025.040    -3652564.060 4  -2796278.918 3
  21069772.743   -19012635.377 6 -13249919.618 6
  23019188.235    -5875742.862 5  -4481794.382 4
 94  2 20  1 32 29.9970000  0  8  2 27 26  7  9 15 13  4
  20534692.829    -2865452.265 7  -2208969.324 9
  21993766.173     7494731.877 6   5835805.918 6
  21883012.243    -7635509.352 6  -5882885.933 6
  19731389.157    -8895005.356 7  -6860392.701 9
  23299250.509    -3562980.460 4  -2583867.956 4
  23551320.853    -3624753.621 4  -2774608.387 4
  21049241.540   -19120519.751 6 -13333985.343 6
  22995415.634    -6000613.455 5  -4579096.008 5
 94  2 20  1 32 59.9970000  0  8  2 27 26  7  9 15 13  4
  20534496.384    -2866492.246 7  -2209779.702 9
  22007799.087     7568497.008 6   5893285.204 6
  21883888.743    -7630870.320 6  -5879271.105 6
  19730321.767    -8900629.042 7  -6864774.802 9
  23276064.564    -3684828.916 5  -2678814.737 4
  23556704.306    -3596443.225 4  -2752548.354 3
  21028795.790   -19227957.299 6 -13417702.872 6
  22971663.884    -6125429.964 5  -4676355.501 5
 94  2 20  1 33 29.9970000  0  8  2 27 26  7  9 15 13  4
  20534329.392    -2867345.016 7  -2210444.194 9
  22021886.290     7642522.875 6   5950967.672 6
  21884866.274    -7625764.834 6  -5875292.792 6
  19729333.853    -8905820.711 7  -6868820.255 9
  23252894.212    -3806604.348 5  -2773704.628 5
  23562194.181    -3567637.370 4  -2730102.169 3
  21008437.001   -19334948.641 6 -13501072.711 6
  22947930.954    -6250189.688 5  -4773570.747 5
 94  2 20  1 33 59.9970000  0  8  2 27 26  7  9 15 13  4
  20534205.571    -2867999.630 7  -2210954.285 9
  22036025.767     7716809.985 6   6008853.706 6
  21885927.720    -7620193.497 6  -5870951.484 6
  19728425.517    -8910593.777 7  -6872539.533 9
  23229733.282    -3928293.356 5  -2868527.151 4
  23567767.540    -3538329.156 4  -2707264.581 3
  20988163.048   -19441483.269 6 -13584086.672 6
  22924203.399    -6374875.570 5  -4870728.455 5
 94  2 20  1 34 29.9970000  0  8  2 27 26  7  9 15 13  4
  20534120.892    -2868462.085 7  -2211314.633 9
  22050212.571     7791354.365 6   6066940.213 6
  21887067.735    -7614170.634 6  -5866258.335 6
  19727590.532    -8914960.352 7  -6875942.061 9
  23206596.931    -4049898.813 5  -2963284.601 4
  23573438.149    -3508525.551 4  -2684040.953 3
  20967974.626   -19547564.236 6 -13666747.132 6
  22900492.610    -6499499.411 5  -4967837.809 5
 94  2 20  1 34 59.9970000  0  8  2 27 26  7  9 15 13  4
  20534067.063    -2868737.103 7
  22064446.001     7866180.941 6   6125246.584 6
  21888307.032    -7607680.167 6  -5861200.819 6
  19726846.696    -8918902.535 7  -6879013.887 9
  23183480.595    -4171408.880 5  -3057967.705 2
  23579199.767    -3478223.945 4  -2660429.322 2
  20947878.798   -19653185.451 7 -13749049.350 6
  22876783.024    -6624065.818 5  -5064902.421 5
 94  2 20  1 35 29.9970000  0  8  2 27 26  7  9 15 13  4
  20534040.813    -2868828.787 7
  22078743.821     7941300.360 6   6183781.164 5
  21889630.704    -7600728.442 6  -5855783.878 6
  19726176.509    -8922422.824 7  -6881756.974 9
  23160371.228    -4292814.216 5  -3152569.201 4
  23585062.064    -3447426.859 3  -2636431.542 3
  20927870.298   -19758345.596 7 -13830992.275 6
  22853087.259    -6748581.902 5  -5161927.814 5
 94  2 20  1 35 59.9970000  0  8  2 27 26  7  9 15 13  4
  20534064.712    -2868736.151 7
  22093097.204     8016712.339 6   6242543.726 5
  21891041.657    -7593320.221 6  -5850011.230 6
  19725582.212    -8925526.662 7  -6884175.553 9
  23137288.454    -4414107.046 5  -3247083.031 4
  23591017.103    -3416137.063 4  -2612049.869 4
  20907941.095   -19863044.212 7 -13912575.582 6
  22829401.204    -6873048.602 5  -5258914.719 5
 94  2 20  1 36 29.9970000  0  8  2 27 26  7  9 15 13  4
  20534119.720    -2868447.102 7
  22107503.454     8092429.569 6   6301544.140 5
  21892541.673    -7585446.377 6  -5843875.773 6
  19725075.384    -8928199.132 7  -6886258.002 9
  23114230.149    -4535284.761 5  -3341507.177 4
  23597073.188    -3384352.660 5  -2587282.772 2
  20888106.423   -19967274.875 6 -13993794.261 6
  22805728.071    -6997452.916 5  -5355853.038 5
 94  2 20  1 36 59.9970000  0  8  2 27 26  7  9 15 13  4
  20534213.017    -2867968.255 7  -2210929.800 9
  22121967.056     8168444.325 6   6360776.393 6
  21894125.470    -7577100.186 6  -5837372.247 6
  19724649.860    -8930437.011 7  -6888001.803 9
  23091188.556    -4656351.368 5  -3435844.711 4
  23603210.564    -3352077.177 4  -2562133.013 2
  20868360.696   -20071037.978 6 -14074648.581 6
  22782071.642    -7121782.329 5  -5452732.977 5
 94  2 20  1 37 29.9970000  0  8  2 27 26  7  9 15 13  4
  20534337.110    -2867305.869 7  -2210413.641 9
  22136483.610     8244732.613 6   6420221.782 6
  21895797.251    -7568295.077 6  -5830511.120 6
  19724300.532    -8932243.823 7  -6889409.704 9
  23068168.431    -4777317.903 5  -3530104.294 4
  23609444.642    -3319315.710 5  -2536604.548 2
  20848706.259   -20174334.755 7 -14155139.538 6
  22758426.017    -7246032.452 5  -5549551.129 5
 94  2 20  1 37 59.9970000  0  8  2 27 26  7  9 15 13  4
  20534496.876    -2866475.789 7  -2209766.824 9
  22151047.157     8321270.175 6   6479861.399 6
  21897566.540    -7559032.289 6  -5823293.363 6
  19724042.282    -8933620.623 7  -6890482.541 9
  23045176.392    -4898190.677 5  -3624290.784 3
  23615763.228    -3286073.907 3  -2510701.827 2
  20829136.946   -20277167.138 7 -14235268.629 6
  22734797.149    -7370197.443 5  -5646302.961 5
 94  2 20  1 38 29.9970000  0  8  2 27 26  7  9 15 13  4
  20534682.290    -2865498.901 7  -2209005.604 9
  22165659.134     8398051.302 5   6539690.815 6
  21899412.704    -7549302.556 6  -5815711.751 6
  19723862.524    -8934563.660 7  -6891217.369 9
  23022196.540    -5018955.993 5  -3718393.547 3
  23622185.806    -3252343.950 4  -2484418.688 3
  20809658.915   -20379523.791 7 -14315027.036 6
  22711192.001    -7494262.444 5  -5742976.884 5
 94  2 20  1 38 59.9970000  0  8  2 27 26  7  9 15 13  4
  20534892.251    -2864383.720 7  -2208136.630 9
  22180313.712     8475059.845 5   6599697.434 5
  21901351.267    -7539123.513 6  -5807780.027 6
  19723764.860    -8935089.851 7  -6891627.391 9
  22999226.931    -5139603.823 5  -3812404.778 3
  23628702.649    -3218131.941 3  -2457759.981 2
  20790270.524   -20481406.990 7 -14394416.501 6
  22687602.415    -7618235.948 5  -5839579.530 5
 94  2 20  1 39 29.9970000  0  8  2 27 26  7  9 15 13  4
  20535136.689    -2863106.956 7  -2207141.748 9
  22195010.095     8552297.648 5   6659882.700 5
  21903371.876    -7528508.405 6  -5799508.521 6
  19723744.712    -8935209.804 7
  22976296.970    -5260128.395 5  -3906319.939 4
  23635303.032    -3183439.222 4  -2430726.634 2
  20770974.126   -20582814.399 7 -14473435.232 6
  22664025.571    -7742113.243 5  -5936107.215 5
 94  2 20  1 39 59.9970000  0  8  2 27 26  7  9 15 13  4
  20535412.267    -2861661.013 7  -2206015.036 9
  22209754.696     8629771.501 6   6720251.916 5
  21905476.384    -7517460.091 6  -5790899.458 6
  19723791.610    -8934936.377 7
  22953378.649    -5380529.070 5  -4000138.576 5
  23641986.704    -3148267.970 3  -2403320.451 2
  20751768.095   -20683744.755 7 -14552082.232 6
  22640471.618    -7865886.255 5  -6032553.652 5
 94  2 20  1 40 29.9970000  0  8  2 27 26  7  9 15 13  4
  20535722.649    -2860034.335 7  -2204747.491 9
  22224547.868     8707497.829 6   6780817.859 6
  21907658.743    -7505980.663 6  -5781954.465 6
  19723918.696    -8934276.699 7  -6890993.761 9
  22930497.032    -5500805.424 5  -4093860.351 4
  23648777.478    -3112624.305 4  -2375546.114 2
  20732652.267   -20784200.687 7 -14630359.543 6
  22616934.540    -7989561.372 5  -6128923.810 5
 94  2 20  1 40 59.9970000  0  8  2 27 26  7  9 15 13  4
  20536072.571    -2858194.419 7  -2203313.789 9
  22239386.876     8785498.055 5   6841597.221 6
  21909926.376    -7494071.040 6  -5772674.247 6
  19724120.415    -8933220.711 7  -6890170.903 9
  22907634.603    -5620960.781 5  -4187487.817 4
  23655645.009    -3076506.990 3  -2347402.718 2
  20713627.423   -20884176.592 7 -14708262.813 6
  22593417.079    -8113128.938 5  -6225210.153 5
 94  2 20  1 41 29.9970000  0  8  2 27 26  7  9 15 13  4
  20536459.556    -2856144.249 7  -2201716.249 9
  22254286.446     8863780.137 5   6902596.218 6
  21912272.985    -7481722.658 6  -5763052.147 6
  19724396.774    -8931766.656 7  -6889037.874 9
  22884784.032    -5741009.400 5  -4281032.129 5
  23662616.813    -3039916.988 4  -2318890.975 2
  20694694.509   -20983669.712 7 -14785789.884 6
  22569929.321    -8236580.188 5  -6321405.865 5
 94  2 20  1 41 59.9970000  0  8  2 27 26  7  9 15 13  4
  20536889.829    -2853909.156 7  -2199974.618 9
  22269231.126     8942341.822 5   6963813.067 6
  21914709.876    -7468923.972 6  -5753079.151 6
  19724744.564    -8929906.888 7  -6887588.699 9
  22861964.587    -5860944.630 5  -4374488.088 5
  23669665.673    -3002854.541 3  -2290011.121 2
  20675854.524   -21082677.073 7 -14862938.448 6
  22546466.149    -8359927.128 5  -6417520.289 5
 94  2 20  1 42 29.9970000  0  8  2 27 26  7  9 15 13  4
  20537348.220    -2851499.802 7
  22284236.009     9021167.207 6   7025235.415 5
  21917229.540    -7455679.514 6  -5742758.804 6
  19725176.915    -8927639.963 7
  22839161.267    -5980764.198 5  -4467853.930 5
  23676808.907    -2965324.107 4  -2260766.591 2
  20657104.806   -21181199.311 7 -14939708.997 6
  22523001.438    -8483180.917 5  -6513562.129 5
 94  2 20  1 42 59.9970000  0  8  2 27 26  7  9 15 13  4
  20537837.165    -2848928.219 7  -2196093.363 9
  22299281.774     9100244.900 5   7086854.356 5
  21919834.899    -7441998.363 6  -5732098.190 6
  19725686.157    -8924966.196 7  -6883738.794 9
  22816386.040    -6100466.430 5  -4561128.326 4
  23684035.954    -2927325.245 3  -2231157.055 2
  20638451.587   -21279232.173 7 -15016098.210 6
  22499566.095    -8606339.209 5  -6609529.554 5
 94  2 20  1 43 29.9970000  0  8  2 27 26  7  9 15 13  4
  20538352.845    -2846212.287 7  -2193977.054 9
  22314376.962     9179565.398 5   7148662.502 5
  21922522.673    -7427878.952 6  -5721096.056 6
  19726272.720    -8921886.763 7  -6881339.231 9
  22793630.509    -6220040.464 5  -4654302.865 5
  23691359.712    -2888858.499 4  -2201182.920 1
  20619889.626   -21376772.794 7 -15092103.862 6
  22476154.899    -8729404.953 5  -6705424.856 5
 94  2 20  1 43 59.9970000  0  8  2 27 26  7  9 15 13  4
  20538897.946    -2843349.471 7  -2191746.284 9
  22329513.298     9259112.122 5   7210646.927 5
  21925290.321    -7413325.130 6  -5709755.431 6
  19726940.134    -8918403.994 7  -6878625.381 9
  22770903.056    -6339484.112 5  -4747375.766 5
  23698760.509    -2849931.225 3  -2170849.924 1
  20601420.571   -21473824.572 7 -15167728.602 6
  22452751.610    -8852379.312 5  -6801248.931 5
 94  2 20  1 44 29.9970000  0  8  2 27 26  7  9 15 13  4
  20539476.962    -2840313.905 7  -2189380.906 9
  22344697.024     9338889.668 5   7272811.204 5
  21928137.884    -7398353.090 6  -5698088.923 6
  19727673.173    -8914524.739 7  -6875602.578 9
  22748197.439    -6458794.708 5  -4840345.009 5
  23706265.962    -2810547.217 4  -2140161.076 2
  20583046.017   -21570387.874 7 -15242972.705 6
  22429364.392    -8975235.317 5  -6896980.781 5
 94  2 20  1 44 59.9970000  0  8  2 27 26  7  9 15 13  4
  20540089.595    -2837079.766 7  -2186860.791 9
  22359929.720     9418923.577 5   7335175.264 5
  21931068.899    -7382957.204 6  -5686092.140 6
  19728491.524    -8910239.621 7  -6872263.522 9
  22725520.884    -6577958.852 5  -4933200.146 5
  23713835.649    -2770702.078 3  -2109112.877 3
  20564765.337   -21666453.989 7 -15317829.401 7
  22406018.571    -9097945.333 5  -6992598.886 5
 94  2 20  1 45 29.9970000  0  8  2 27 26  7  9 12 13  4
  20540744.704    -2833627.796 7  -2184170.938 9
  22375203.579     9499209.648 6   7397735.800 5
  21934082.360    -7367135.794 6  -5673763.786 6
  19729385.399    -8905552.702 7  -6868611.372 9
  22702877.118    -6696967.517 5  -5025934.116 5
  23630413.368          -0.15513
  20546580.462   -21762019.714 7 -15392296.174 6
  22382699.220    -9220500.784 5  -7088096.511 5
 94  2 20  1 45 59.9970000  0  8  2 27 26  7  9 12 13  4
  20541446.189    -2829946.826 7  -2181302.641 9
  22390530.118     9579741.731 5   7460488.047 5
  21937171.798    -7350889.331 6  -5661104.219 6
  19730350.095    -8900474.966 7  -6864654.688 9
  22680258.095    -6815828.205 5  -5118552.775 5
  23608543.353     -114944.056 4
  20528489.064   -21857086.372 7 -15466374.067 6
  22359406.376    -9342900.273 5  -7183472.608 5
 94  2 20  1 46 29.9970000  0  8  2 27 26  7  9 12 13  4
  20542186.985    -2826048.171 7  -2178264.712 9
  22405896.743     9660517.851 5   7523430.450 5
  21940340.220    -7334226.082 6  -5648119.890 6
  19731397.431    -8894994.093 7  -6860383.876 9
  22657665.759    -6934536.699 5  -5211052.851 5
  23586653.540     -229914.985 3
  20510493.431   -21951649.528 7 -15540059.623 6
  22336141.407    -9465145.083 5  -7278728.200 5
 94  2 20  1 46 59.9970000  0  8  2 27 26  7  9 12 13  4
  20542964.610    -2821974.637 7  -2175090.525 9
  22421309.696     9741503.992 5   7586536.489 5
  21943592.579    -7317147.345 6  -5634811.793 6
  19732511.649    -8889126.218 7  -6855811.501 9
  22635098.579    -7053102.849 5  -5303442.029 5
  23564768.868     -344919.142 3        -0.33112
  20492590.384   -22045715.130 7 -15613357.479 6
  22312903.024    -9587264.862 5  -7373886.371 5
 94  2 20  1 47 29.9970000  0  8  2 27 26  7  9 12 13  4
  20543770.509    -2817745.785 7  -2171795.307 9
  22436759.938     9822686.371 5   7649795.453 5
  21946927.024    -7299643.854 6  -5621172.728 6
  19733696.845    -8882875.241 7  -6850940.606 9
  22612572.962    -7171518.891 5  -5395714.198 4
  23542883.735     -459952.009 3    -89636.212 2
  20474787.009   -22139278.422 7 -15686263.924 6
  22289690.306    -9709265.124 5  -7468951.403 6
 94  2 20  1 47 59.9970000  0  8  2 27 26  7  9 12 13  4
  20544600.134    -2813372.474 7  -2168387.522 9
  22452244.235     9904074.754 5   7713214.950 5
  21950337.462    -7281704.965 6  -5607194.391 6
  19734966.204    -8876226.677 7  -6845759.906 9
  22590061.384    -7289779.226 5  -5487865.052 5
  23520984.314     -575006.115 3   -179288.651 1
  20457078.712   -22232331.857 7 -15758773.075 7
  22266501.228    -9831127.964 5  -7563909.384 6
 94  2 20  1 48 29.9970000  0  8  2 27 26  7  9 12 13  4
  20545459.735    -2808875.108 7  -2164883.069 9
  22467772.915     9985656.019 5   7776784.746 5
  21953826.321    -7263359.976 6  -5592899.609 6
  19736299.774    -8869195.320 7  -6840280.925 9
  22567592.892    -7407879.312 5  -5579891.049 5
  23499094.478     -690094.134 4   -268967.577 1
  20439469.446   -22324888.031 7 -15830894.753 7
  22243337.048    -9952864.325 6  -7658768.797 6
 94  2 20  1 48 59.9970000  0  8  2 27 26  7  9 12 13  4
  20546343.696    -2804221.930 7  -2161257.208 9
  22483341.259    10067459.791 5   7840527.900 5
  21957399.220    -7244592.487 6  -5578275.619 6
  19737705.056    -8861798.098 7  -6834516.851 9
  22545157.306    -7525799.005 5  -5671776.446 4
  23477189.728     -805205.957 3   -358664.991 1
  20421951.626   -22416936.568 7 -15902620.869 6
  22220197.501   -10074455.095 5  -7753514.764 5
 94  2 20  1 49 29.9970000  0  8  2 27 26  7  9 12 13  4
  20547264.626    -2799370.781 7  -2157477.083 9
  22498950.673    10149507.803 5   7904461.398 5
  21961051.782    -7225406.366 6  -5563325.403 6
  19739186.548    -8854031.699 7  -6828465.114 9
  22522746.134    -7643542.552 5  -5763524.611 5
  23455283.493     -920339.073 3   -448378.978 2
  20404532.478   -22508475.130 7 -15973949.595 7
  22197081.712   -10195876.471 5  -7848128.742 5
 94  2 20  1 49 59.9970000  0  8  2 27 26  7  9 12 13  4
  20548232.415    -2794292.562 7  -2153520.020 9
  22514606.626    10231790.438 5   7968577.715 5
  21964778.962    -7205806.776 6  -5548053.014 6
  19740734.907    -8845897.731 7  -6822126.953 9
  22500371.321    -7761122.875 5  -5855145.586 5
  23433362.368    -1035490.242 4   -538107.121 1
  20387212.978   -22599500.065 7 -16044878.104 7
  22174016.556   -10317135.666 6  -7942616.387 5
 94  2 20  1 50 29.9970000  0  8  2 27 26  7  9 12 13  4
  20549242.181    -2788981.543 7  -2149381.553 9
  22530308.790    10314297.824 5   8032869.139 5
  21968585.087    -7185802.747 6  -5532465.468 6
  19742348.173    -8837411.142 7  -6815514.029 9
  22478026.665    -7878542.922 5  -5946641.681 5
  23411447.446    -1150662.126 4   -627851.350 1
  20369987.915   -22690014.467 7 -16115408.784 6
  22150963.853   -10438245.767 6  -8036987.841 5
 94  2 20  1 50 59.9970000  0  8  2 27 26  7  9 12 13  4
  20550300.376    -2783440.683 7  -2145063.997 9
  22546048.220    10397021.610 5   8097329.194 5
  21972473.337    -7165387.519 6  -5516557.524 6
  19744028.103    -8828570.077 7  -6808624.894 9
  22455705.931    -7995825.593 5  -6038030.713 5
  23389526.142    -1265854.313 3   -717611.383 2
  20352859.939   -22780017.713 7 -16185541.161 6
  22127951.009   -10559201.994 6  -8131239.399 5
 94  2 20  1 51 29.9970000  0  8  2 27 26  7  9 12 13  4
  20551392.962    -2777682.610 7  -2140577.173 9
  22561831.649    10479943.198 5   8161943.385 5
  21976435.618    -7144559.480 6  -5500327.893 6
  19745789.540    -8819346.550 7  -6801437.723 9
  22433417.321    -8112980.017 5  -6129319.810 5
  23367604.126    -1381057.096 3   -807379.684 3
  20335835.017   -22869500.142 7 -16255267.714 7
  22104964.478   -10679990.192 5  -8225360.036 5
 94  2 20  1 51 59.9970000  0  8  2 27 26  7  9 12 13  4
  20552522.274    -2771744.542 7  -2135950.104 9
  22577644.462    10563059.500 5   8226709.329 5
  21980478.618    -7123322.584 6  -5483779.680 6
  19747617.845    -8809739.020 7  -6793951.327 9
  22411149.095    -8229987.061 5  -6220494.085 5
  23345676.993    -1496266.523 3   -897153.219 1
  20318905.360   -22958458.049 7 -16324585.541 7
  22082014.509   -10800611.078 6  -8319350.295 5
 94  2 20  1 52 29.9970000  0  8  2 27 26  7  9 12 13  4
  20553681.978    -2765656.995 7  -2131206.552 9
  22593506.345    10646387.258 5   8291640.015 5
  21984592.142    -7101693.051 6  -5466925.513 6
  19749516.306    -8799748.964 7  -6786166.868 9
  22388912.876    -8346823.833 5  -6311535.670 5
  23323753.032    -1611487.924 4   -986936.025 1
  20302072.587   -23046896.677 7 -16393498.730 6
  22059092.306   -10921047.732 6  -8413196.974 6
 94  2 20  1 52 59.9970000  0  8  2 27 26  7  9 12 13  4
  20554869.665    -2759418.079 7  -2126345.053 9
  22609402.954    10729923.464 5   8356733.146 5
  21988784.048    -7079679.753 6  -5449772.304 6
  19751492.095    -8789376.530 7  -6778084.451 9
  22366715.095    -8463484.385 5  -6402439.958 5
  23301821.368    -1726722.701 3  -1076729.267 1
  20285342.618   -23134817.880 7 -16462008.745 7
  22036212.993   -11041289.775 6  -8506892.033 6
 94  2 20  1 53 29.9970000  0  8  2 27 26  7  9 12 13  4
  20556088.860    -2753008.360 7  -2121350.466 9
  22625341.189    10813677.323 5   8421995.871 5
  21993042.564    -7057289.735 6  -5432325.560 6
  19753538.282    -8778619.336 7  -6769702.214 9
  22344555.837    -8579933.105 5  -6493179.169 5
  23279893.962    -1841962.151 3  -1166526.150 2
  20268712.579   -23222213.080 7 -16530108.875 7
  22013364.899   -11161334.259 6  -8600433.146 5
 94  2 20  1 53 59.9970000  0  8  2 27 26  7  9 12 13  4
  20557341.376    -2746417.194 7  -2116214.483 9
  22641316.415    10897657.275 5   8487434.761 5
  21997372.415    -7034532.429 6  -5414592.614 6
  19755658.798    -8767487.689 7  -6761028.198 9
  22322441.063    -8696143.735 5  -6583732.873 5
  23257960.446    -1957208.129 3  -1256328.134 2
  20252183.970   -23309084.285 7 -16597800.699 6
  21990558.306   -11281195.912 6  -8693831.807 6
 94  2 20  1 54 29.9970000  0  8  2 27 26  7  9 12 13  4
  20558636.462    -2739614.985 7  -2110914.051 9
  22657338.907    10981842.298 5   8553033.476 5
  22001774.579    -7011411.272 6  -5396576.156 6
  19757845.321    -8755986.639 7  -6752066.337 9
  22300370.118    -8812130.700 5  -6674112.268 5
  23236032.923    -2072460.355 4  -1346134.936 1
  20235752.454   -23395431.349 7 -16665084.107 7
  21967787.079   -11400870.726 6  -8787084.859 6
 94  2 20  1 54 59.9970000  0  8  2 27 26  7  9 12 13  4
  20559974.267    -2732587.089 7  -2105437.755 9
  22673394.626    11066212.732 5   8618776.642 5
  22006243.321    -6987921.553 6  -5378272.492 6
  19760101.860    -8744123.879 7  -6742822.622 9
  22278337.938    -8927920.624 5  -6764338.135 5
  23214101.743    -2187715.186 4  -1435943.834 2
  20219419.376   -23481251.086 7 -16731956.610 7
  21945047.665   -11520369.701 6  -8880200.903 6
 94  2 20  1 55 29.9970000  0  8  2 27 26  7  9 12 13  4
  20561353.774    -2725342.505 7  -2099792.622 9
  22689484.274    11150768.954 5   8684664.580 5
  22010784.829    -6964055.635 6  -5359675.692 6
  19762424.798    -8731909.362 7  -6733304.812 9
  22256340.399    -9043518.168 5  -6854414.096 5
  23192167.313    -2302970.538 4  -1525753.145 2
  20203191.071   -23566541.765 7 -16798416.848 7
  21922339.532   -11639699.333 6  -8973184.985 6
 94  2 20  1 55 59.9970000  0  8  2 27 26  7  9 12 13  4
  20562767.774    -2717893.145 7  -2093987.918 9
  22705608.548    11235508.830 5   8750695.638 5
  22015398.337    -6939801.902 6  -5340776.696 6
  19764820.642    -8719347.233 7  -6723516.131 9
  22234375.782    -9158941.204 5
  23170238.345    -2418222.587 4
  20187060.868   -23651299.906 7 -16864462.137 7
  21899662.571   -11758844.861 6  -9066025.614 6
 94  2 20  1 56 29.9970000  0  8  2 27 26  7  9 12 13  4
  20564225.689    -2710252.848 7  -2088034.428 9
  22721766.446    11320425.930 5   8816864.785 5
  22020090.298    -6915159.583 6  -5321574.917 6
  19767272.868    -8706449.789 7  -6713466.161 9
  22212440.829    -9274203.713 5
  23148304.829    -2533473.743 4
  20171032.962   -23735528.237 7 -16930094.569 7
  21877029.001   -11877802.775 6  -9158720.029 6
 94  2 20  1 56 59.9970000  0  8  2 27 26  7  9 12 13  4
  20565710.548    -2702439.694 7  -2081946.245 9
  22737959.110    11405538.666 5   8883186.390 4
  22024856.439    -6890121.575 6  -5302064.797 6
  19769792.579    -8693209.188 7  -6703148.809 9
  22190540.603    -9389282.815 5  -7123840.971 5
  23126376.048    -2648721.941 4
  20155107.267   -23819225.073 7 -16995312.856 6
  21854426.446   -11996572.475 6  -9251267.812 6
 94  2 20  1 57 29.9970000  0  8  2 27 26  7  9 12 13  4
  20567230.048    -2694462.715 7  -2075730.408 9
  22754203.267    11490855.392 5   8949666.923 4
  22029691.821    -6864688.622 6  -5282246.935 6
  19772376.173    -8679614.541 7  -6692555.565 9
  22168685.993    -9504148.431 5  -7213346.593 5
  23104445.853    -2763964.501 4  -1699140.407 1
  20139280.954   -23902388.323 7 -17060115.367 7
  21831864.470   -12115131.012 6  -9343651.023 6
 94  2 20  1 58 29.9960000  0  8  2 27 26  7  9 12 13  4
  20570365.652    -2677962.878 7  -2062873.370 9
  22786783.582    11662073.633 5   9083083.719 5
  22039592.980    -6812678.183 6  -5241719.350 5
  19777763.051    -8651326.025 7  -6670512.551 9
  22125102.918    -9733197.232 5  -7391826.103 5
  23060587.691    -2994403.362 4  -1878703.013 2
  20107939.098   -24067087.822 7 -17188452.590 7
  21786876.535   -12351558.811 6  -9527880.383 6
 94  2 20  1 58 59.9960000  0  8  2 27 26  7  9 12 13  4
  20571993.379    -2669421.678 7  -2056217.881 9
  22803127.738    11747958.169 5   9150006.709 3
  22044644.168    -6786130.580 6  -5221032.923 6
  19780557.520    -8636636.068 7  -6659065.816 9
  22103364.223    -9847404.525 5  -7480818.754 5
  23038664.356    -3109612.244 4  -1968476.103 1
  20092417.910   -24148636.603 7 -17251997.067 7
  21764446.340   -12469433.714 6  -9619730.893 6
 94  2 20  1 59 29.9960000  0  8  2 27 26  7  9 12 13  4
  20573658.621    -2660665.742 7  -2049395.065 8
  22819500.723    11834014.510 5   9217063.577 4
  22049760.145    -6759236.332 6  -5200076.395 5
  19783420.723    -8621595.642 7  -6647345.998 9
  22081668.559    -9961424.359 5  -7569665.341 5
  23016748.059    -3224812.256 5  -2058242.288 2
  20077003.496   -24229650.673 7 -17315124.892 7
  21742050.012   -12587085.792 6  -9711407.782 6
 94  2 20  1 59 59.9960000  0  8  2 27 26  7  9 12 13  4
  20575371.887    -2651670.199 7  -2042385.543 9
  22835913.121    11920239.447 5   9284251.816 3
  22054945.285    -6731993.279 6  -5178848.044 6
  19786345.184    -8606208.739 7  -6635356.189 9
  22060004.770   -10075265.198 5  -7658372.440 5
  22994829.637    -3339994.330 4  -2147994.530 1
  20061688.918   -24310121.829 7 -17377829.662 7
  21719706.707   -12704522.852 6  -9802917.138 6
 94  2 20  2  0 29.9960000  0  8  2 27 26  7  9 12 13  4
  20577131.254    -2642438.040 7  -2035191.641 8
  22852355.160    12006647.337 5   9351582.635 5
  22060195.793    -6704389.210 6  -5157338.425 6
  19789338.426    -8590471.278 7  -6623093.231 9
  22038377.363   -10188918.229 5  -7746933.224 5
  22972912.785    -3455155.466 5  -2237730.417 1
  20046480.402   -24390047.365 7 -17440109.282 7
  21697399.746   -12821743.408 6  -9894257.766 6
 94  2 20  2  0 59.9960000  0  8  2 27 26  7  9 12 13  4
  20578925.824    -2632990.361 7  -2027829.799 8
  22868826.605    12093231.818 5   9419051.028 2
  22065514.770    -6676430.364 5  -5135552.319 5
  19792402.027    -8574390.727 7  -6610562.920 9
  22016787.301   -10302368.977 5  -7835336.349 5
  22950997.699    -3570299.105 4  -2327452.651 2
  20031375.606   -24469431.737 7 -17501967.209 7
  21675133.113   -12938750.309 6  -9985431.919 6
 94  2 20  2  1 29.9960000  0  8  2 27 26  7  9 12 13  4
  20580763.027    -2623340.920 7  -2020310.749 8
  22885333.293    12179978.276 5   9486645.673 5
  22070906.668    -6648110.131 6  -5113484.636 6
  19795523.504    -8557989.408 7  -6597782.667 9
  21995242.191   -10415600.832 5  -7923568.926 5
  22929087.926    -3685426.824 4  -2417162.525 2
  20016372.238   -24548277.115 7 -17563405.139 7
  21652907.848   -13055546.592 6 -10076441.969 6
 94  2 20  2  1 59.9960000  0  8  2 27 26  7  9 12 13  4
  20582632.535    -2613505.924 7  -2012647.105 8
  22901872.441    12266883.296 5   9554363.832 5
  22076368.488    -6619430.570 6  -5091136.946 6
  19798704.410    -8541265.723 7  -6584751.222 9
  21973736.090   -10528604.195 5  -8011623.463 5
  22907192.957    -3800536.708 4  -2506858.474 2
  20001471.457   -24626582.480 7 -17624422.290 7
  21630728.035   -13172110.594 6 -10167271.006 6
 94  2 20  2  2 29.9960000  0  8  2 27 26  7  9 12 13  4
  20584539.340    -2603495.709 7  -2004846.930 9
  22918445.160    12353962.146 5   9622217.459 5
  22081892.801    -6590388.757 6  -5068506.998 6
  19801949.199    -8524214.477 7  -6571464.527 9
  21952274.855   -10641371.741 5  -8099494.246 5
  22885290.043    -3915626.395 5  -2596538.710 2
  19986672.035   -24704346.090 7 -17685017.281 7
  21608588.910   -13288433.074 6 -10257911.841 6
 94  2 20  2  2 59.9960000  0  8  2 27 26  7  9 12 13  4
  20586476.121    -2593302.803 7  -1996904.403 8
  22935048.199    12441213.309 5   9690205.340 5
  22087481.527    -6560995.574 6  -5045603.243 6
  19805258.746    -8506834.171 7  -6557921.435 9
  21930860.238   -10753915.667 5  -8187190.767 5
  22863389.793    -4030694.975 5  -2686202.476 1
  19971975.816   -24781568.098 7 -17745190.253 7
  21586504.223   -13404517.572 6 -10348367.245 6
 94  2 20  2  3 29.9960000  0  8  2 27 26  7  9 12 13  4
  20588455.481    -2582916.712 7  -1988811.325 8
  22951681.645    12528638.078 5   9758328.510 5
  22093144.699    -6531252.904 5  -5022427.174 6
  19808626.816    -8489119.956 7  -6544118.138 9
  21909484.848   -10866254.947 5  -8274727.826 5
  22841502.676    -4145740.244 5  -2775848.103 2
  19957386.441   -24858247.000 7 -17804940.026 7
  21564455.004   -13520358.700 6 -10438633.007 6
 94  2 20  2  3 59.9960000  0  8  2 27 26  7  9 12 13  4
  20590468.387    -2572335.819 7  -1980566.469 8
  22968359.574    12616250.566 5   9826597.961 5
  22098870.098    -6501174.588 5  -4998989.545 6
  19812064.965    -8471044.335 7  -6530033.239 9
  21888140.160   -10978386.585 5  -8362103.102 5
  22819611.762    -4260758.524 5  -2865472.654 2
  19942895.285   -24934380.189 7 -17864264.563 7
  21542462.863   -13635952.376 6 -10528705.953 6
 94  2 20  2  4 29.9960000  0  8  2 27 26  7  9 12 13  4
  20592522.582    -2561554.624 7  -1972165.525 8
  22985065.738    12704049.167 5   9895012.446 5
  22104656.004    -6470757.215 5  -4975287.723 6
  19815573.356    -8452609.291 7  -6515668.261 9
  21866852.863   -11090294.762 6  -8449304.231 5
  22797729.785    -4375743.612 5  -2955071.343 4
  19928515.004   -25009962.034 7 -17923159.483 7
  21520510.277   -13751308.522 6 -10618593.811 6
 94  2 20  2  4 59.9960000  0  8  2 27 26  7  9 12 13  4
  20594612.887    -2550573.389 7  -1963608.709 8
  23001807.066    12792011.898 5   9963554.831 5
  22110505.746    -6440002.280 5  -4951322.877 5
  19819147.395    -8433831.659 7  -6501036.332 9
  21845598.746   -11201964.735 5  -8536319.749 5
  22775857.551    -4490689.777 5
  19914238.535   -25084988.098 7 -17981621.326 7
  21498600.285   -13866418.641 6
 94  2 20  2  5 29.9960000  0  8  2 27 26  7  9 12 13  4
  20596733.832    -2539411.299 7  -1954910.969 8
  23018566.145    12880102.744 5  10032197.016 5
  22116421.707    -6408922.008 6  -4927104.502 5
  19822780.176    -8414748.549 7  -6486166.371 9
  21824398.027   -11313386.707 5  -8623142.025 6
  22753990.738    -4605607.325 5
  19900065.465   -25159469.440 7 -18039658.718 7
  21476750.121   -13981288.899 6 -10797799.211 6
 94  2 20  2  5 59.9960000  0  8  2 27 26  7  9 12 13  4
  20598890.293    -2528070.967 7  -1946074.334 8
  23035353.348    12968312.669 5  10100931.991 4
  22122398.902    -6377519.323 6  -4902634.889 5
  19826468.871    -8395377.442 7  -6471071.997 9
  21803242.738   -11424549.374 6  -8709762.231 5
  22732126.121    -4720497.396 5
  19885994.840   -25233408.659 7 -18097273.674 7
  21454930.270   -14095926.536 6 -10887127.186 6
 94  2 20  2  6 29.9960000  0  8  2 27 26  7  9 12 13  4
  20601087.652    -2516533.401 7  -1937084.015 8
  23052164.191    13056640.122 4  10169758.534 4
  22128435.074    -6345791.531 5  -4877911.957 5
  19830205.035    -8375723.743 7  -6455757.412 9
  21782143.496   -11535448.398 6  -8796177.011 6
  22710267.332    -4835353.244 5        -0.38612
  19872030.957   -25306799.811 7 -18154461.557 7
  21433161.090   -14210321.671 6 -10976266.211 6
 94  2 20  2  6 59.9960000  0  8  2 27 26  7  9 12 13  4
  20603324.004    -2504788.508 7  -1927932.135 8
  23068994.957    13145078.407 3  10238671.464 3
  22134536.481    -6313744.432 5  -4852940.206 5
  19833999.324    -8355778.296 7  -6440215.496 9
  21761085.504   -11646086.005 5  -8882388.090 6
  22688418.668    -4950173.292 5    -89470.496 3
  19858168.918   -25379642.415 7 -18211222.004 7
  21411445.332   -14324456.955 6 -11065202.741 6
 94  2 20  2  7 29.9960000  0  8  2 27 26  7  9 12 13  4
  20605597.582    -2492823.624 7  -1918608.836 8
  23085844.598    13233647.866 3  10307686.571 2
  22140697.020    -6281377.808 5  -4827719.482 6
  19837858.981    -8335511.315 7  -6424423.032 9
  21740080.699   -11756463.642 6  -8968396.585 6
  22666581.262    -5064949.111 5   -178906.109 2
  19844413.754   -25451929.370 7 -18267549.466 7
  21389780.129   -14438325.614 6 -11153931.518 6
 94  2 20  2  7 59.9960000  0  8  2 27 26  7  9 12 13  4
  20607916.660    -2480645.333 7  -1909119.251 8
  23102729.941    13322370.720 3  10376821.236 2
  22146906.012    -6248709.904 5  -4802263.998 5
  19841777.684    -8314905.790 7  -6408366.770 9
  21719124.856   -11866586.345 6  -9054206.457 6
  22644746.762    -5179680.705 5   -268307.214 2
  19830760.231   -25523661.630 7 -18323444.718 7
  21368165.043   -14551919.938 6 -11242446.523 6
 94  2 20  2  8 29.9960000  0  8  2 27 26  7  9 12 13  4
  20610270.199    -2468269.158 7  -1899475.465 8
  23119643.387    13411245.720 4  10446074.502 1
  22153178.066    -6215754.290 5  -4776584.329 5
  19845765.051    -8293968.771 7  -6392052.201 9
  21698220.731   -11976440.992 6  -9139807.410 6
  22622923.965    -5294370.935 5   -357676.149 3
  19817218.426   -25594843.366 7 -18378910.985 7
  21346597.551   -14665233.819 6 -11330743.006 6
 94  2 20  2  8 59.9960000  0  8  2 27 26  7  9 12 13  4
  20612661.926    -2455705.858 7  -1889685.867 8
  23136583.879    13500289.744 5  10515459.398 2
  22159515.457    -6182492.918 6  -4750666.382 6
  19849807.598    -8272707.854 7  -6375485.241 9
  21677372.582   -12086015.135 6  -9225189.824 6
  22601105.668    -5409013.302 5   -447007.749 2
  19803775.480   -25665469.553 7 -18433944.349 7
  21325085.277   -14778259.637 6 -11418815.034 6
 94  2 20  2  9 29.9960000  0  8  2 27 26  7  9 12 13  4
  20615091.199    -2442954.021 7  -1879749.363 8
  23153566.676    13589523.141 5  10584991.909 2
  22165900.449    -6148926.946 5  -4724511.115 6
  19853912.816    -8251129.126 7  -6358670.635 9
  21656571.473   -12195307.400 6  -9310352.568 6
  22579297.231    -5523608.561 5   -536302.681 2
  19790441.012   -25735541.927 7 -18488546.174 7
  21303631.996   -14891008.080 6 -11506670.912 6
 94  2 20  2  9 59.9960000  0  8  2 27 26  7  9 12 13  4
  20617552.301    -2430006.349 7  -1869660.249 8
  23170581.691    13678935.867 4  10654664.145 1
  22172343.793    -6115056.382 6  -4698118.497 5
  19858078.793    -8229257.427 7  -6341627.749 9
  21635827.066   -12304321.432 6  -9395298.511 6
  22557499.957    -5638162.228 5   -625565.203 4
  19777210.652   -25805067.444 7 -18542721.877 7
  21282231.840   -15003478.832 6 -11594310.411 6
 94  2 20  2 10 29.9960000  0  8  2 27 26  7  9 12 13  4
  20620058.629    -2416832.416 7  -1859394.832 8
  23187629.754    13768524.196 5  10724473.192 1
  22178852.996    -6080844.202 5  -4671459.665 5
  19862297.957    -8207086.173 7  -6324351.437 9
  21615135.301   -12413061.438 6  -9480030.945 6
  22535711.613    -5752657.990 5   -714782.564 2
  19764087.207   -25874031.084 7 -18596459.768 7
  21260882.691   -15115659.895 6 -11681724.185 6
 94  2 20  2 10 59.9960000  0  8  2 27 26  7  9 12 13  4
  20622612.137    -2403423.896 7  -1848946.621 8
  23204702.254    13858262.796 4  10794399.369 2
  22185425.293    -6046306.834 5  -4644547.453 5
  19866572.848    -8184616.524 7  -6306842.611 9
  21594485.949   -12521568.236 6  -9564581.640 6
  22513931.074    -5867099.442 5   -803957.651 3
  19751070.441   -25942438.009 7 -18649763.847 7
  21239593.566   -15227556.455 6 -11768916.256 6
 94  2 20  2 11 29.9960000  0  8  2 27 26  7  9 12 13  4
  20625207.988    -2389772.514 7  -1838309.172 8
  23221797.988    13948123.865 4  10864420.961 2
  22192055.504    -6011464.879 5  -4617397.908 5
  19870907.918    -8161843.939 7  -6289097.737 9
  21573882.613   -12629847.509 6  -9648955.053 6
  22492166.684    -5981486.328 5   -893090.203 3
  19738158.441   -26010289.134 7 -18702634.830 7
  21218349.879   -15339172.599 6 -11855889.819 7
 94  2 20  2 11 59.9960000  0  8  2 27 26  7  9 12 13  4
  20627851.488    -2375888.466 7  -1827490.421 8
  23238922.004    14038090.729 5  10934525.003 3
  22198744.621    -5976312.423 5  -4590006.400 5
  19875298.730    -8138762.799 7  -6271112.425 9
  21553321.731   -12737895.320 6  -9733148.096 6
  22470416.137    -6095807.791 5   -982171.760 2
  19725354.574   -26077575.260 7 -18755065.566 7
  21197166.738   -15450486.548 6 -11942627.922 6
 94  2 20  2 12 29.9960000  0  8  2 27 26  7  9 12 13  4
  20630529.957    -2361803.290 7  -1816514.948 8
  23256062.238    14128141.709 5  11004694.601 2
  22205494.902    -5940865.165 5  -4562385.182 5
  19879752.480    -8115374.536 7  -6252887.802 9
  21532808.160   -12845711.649 6  -9817160.790 6
  22448668.066    -6210069.615 5  -1071206.861 3
  19712656.902   -26144303.540 7 -18807061.607 7
  21176043.168   -15561502.862 6 -12029134.089 6
 94  2 20  2 12 59.9960000  0  8  2 27 26  7  9 12 13  4
  20633248.668    -2347513.535 7  -1805380.066 8
  23273213.715    14218279.008 4  11074931.426 2
  22212292.262    -5905135.132 5  -4534543.624 6
  19884259.801    -8091672.826 7  -6234418.937 9
  21512338.355   -12953265.948 6  -9900969.277 6
  22426939.090    -6324268.888 5  -1160193.205 3
  19700066.980   -26210472.645 7 -18858621.928 7
  21154975.363   -15672221.723 6 -12115408.484 7
 94  2 20  2 13 29.9960000  0  8  2 27 26  7  9 12 13  4
  20636010.918    -2333003.277 7  -1794073.362 8
  23290388.863    14308540.015 4  11145264.639 4
  22219151.270    -5869083.156 5  -4506451.197 5
  19888833.637    -8067637.197 7  -6215689.865 9
  21491931.481   -13060508.782 6  -9984535.069 6
  22405219.051    -6438383.304 5  -1249113.444 4
  19687583.129   -26276061.851 7 -18909730.383 7
  21133967.082   -15782622.693 6 -12201435.175 6
 94  2 20  2 13 59.9960000  0  8  2 27 26  7  9 12 13  4
  20638818.215    -2318262.074 7  -1782586.703 8
  23307588.684    14398933.943 4  11215701.468 4
  22226075.996    -5832700.983 5  -4478101.472 5
  19893468.801    -8043274.687 7  -6196706.084 9
  21471580.262   -13167433.780 6 -10067853.228 6
  22383522.980    -6552405.283 5  -1337961.647 4
  19675213.949   -26341065.196 7 -18960382.323 7
  21113019.559   -15892688.042 6 -12287200.327 6
 94  2 20  2 14 29.9960000  0  8  2 27 26  7  9 12 13  4
  20641655.098    -2303356.759 7  -1770972.167 8
  23324799.934    14489387.790 3  11286184.960 2
  22233044.668    -5796076.674 5  -4449563.071 5
  19898148.145    -8018684.154 7  -6177544.632 9
  21451281.957   -13274114.415 6 -10150980.953 6
  22361830.059    -6666417.229 5  -1426802.034 4
  19662939.965   -26405566.449 7 -19010643.019 7
  21092119.918   -16002506.693 6 -12372773.260 6
 94  2 20  2 14 59.9960000  0  8  2 24 26  7  9 12 13  4
  20644531.356    -2288217.747 7  -1759175.529 8
  23140126.457          -0.22813
  22240071.856    -5759159.663 5  -4420796.598 5
  19902882.004    -7993816.522 7  -6158167.244 9
  21431038.848   -13380493.585 6 -10233873.771 6
  22340148.145    -6780355.853 5  -1515585.298 4
  19650773.402   -26469504.430 7 -19060464.807 7
  21071284.277   -16112019.848 6 -12458108.150 6
 94  2 20  2 15 29.9960000  0  8  2 24 26  7  9 12 13  4
  20647455.176    -2272861.633 7  -1747209.711 8
  23115100.371     -131518.295 3
  22247147.629    -5721963.799 5  -4391812.837 5
  19907660.285    -7968693.982 7  -6138591.238 9
  21410851.051   -13486587.057 6 -10316543.980 6
  22318478.988    -6894222.509 5  -1604312.502 3
  19638712.348   -26532881.862 7 -19109849.797 7
  21050504.457   -16221214.371 6 -12543194.751 7
 94  2 20  2 15 59.9960000  0  8  2 24 26  7  9 12 13  4
  20650421.043    -2257287.590 7  -1735074.094 8
  23090086.434     -262991.918 3        -0.26712
  22254276.231    -5684504.903 5  -4362624.110 5
  19912488.145    -7943321.444 7  -6118820.418 9
  21390715.621   -13592395.580 6 -10398992.135 6
  22296823.934    -7008011.583 5  -1692979.217 2
  19626760.895   -26595694.940 7 -19158795.039 7
  21029785.551   -16330081.406 6 -12628026.159 7
 94  2 20  2 16 29.9960000  0  8  2 24 26  7  9 12 13  4
  20653422.520    -2241506.364 7  -1722777.029 8
  23065078.426     -394425.809 3   -102416.185 4
  22261449.809    -5646790.280 5  -4333236.120 5
  19917367.746    -7917686.332 7  -6098844.997 9
  21370636.145   -13697917.092 6 -10481216.651 6
  22275181.301    -7121723.668 5  -1781585.960 2
  19614915.785   -26657946.156 7 -19207302.460 7
  21009129.199   -16438637.122 6 -12712614.986 7
 94  2 20  2 16 59.9960000  0  8  2 24 26  7  9 12 13  4
  20656466.684    -2225517.714 7  -1710318.338 8
  23040068.184     -525838.044 3   -204815.220 3
  22268672.316    -5608834.813 5  -4303660.450 5
  19922297.613    -7891769.881 7  -6078650.360 9
  21350605.309   -13803157.765 6 -10563222.346 6
  22253562.238    -7235360.468 5  -1870134.055 4
  19603175.363   -26719638.844 7 -19255374.667 7
  20988533.684   -16546877.585 6 -12796958.168 7
 94  2 20  2 17 29.9960000  0  8  2 24 26  7  9 12 13  4
  20659545.715    -2209319.596 7  -1697696.428 8
  23015069.699     -657237.447 5   -307204.269 4
  22275946.941    -5570632.549 5  -4273892.477 5
  19927288.387    -7865560.640 7  -6058227.563 9
  21330636.730   -13908101.970 6 -10644997.017 6
  22231952.606    -7348920.506 5  -1958622.313 4
  19591541.402   -26780773.485 7 -19303012.026 7
  20967994.801   -16654802.282 6 -12881055.297 7
 94  2 20  2 17 59.9960000  0  8  2 24 26  7  9 12 13  4
  20662672.332    -2192906.333 7  -1684906.864 8
  22990064.402     -788619.792 5   -409580.031 5
  22283265.121    -5532171.759 5  -4243923.058 5
  19932330.598    -7839040.717 7  -6037562.680 9
  21310726.238   -14012738.836 6 -10726532.193 6
  22210358.356    -7462397.290 5  -2047045.710 4
  19580014.598   -26841345.416 7 -19350210.921 7
  20947515.777   -16762417.977 6 -12964911.639 7
 94  2 20  2 18 29.9960000  0  8  2 24 26  7  9 12 13  4
  20665835.082    -2176276.642 7  -1671948.664 8
  22965062.926     -919992.287 5   -511948.131 5
  22290631.645    -5493462.450 5  -4213759.991 5
  19937437.645    -7812216.660 7  -6016660.812 9
  21290872.590   -14117078.160 6 -10807835.533 6
  22188779.176    -7575795.945 5  -2135408.224 4
  19568594.254   -26901361.625 7 -19396976.777 7
  20927095.066   -16869726.168 6 -13048528.376 7
 94  2 20  2 18 59.9960000  0  8  2 24 26  7  9 12 13  4
  20669043.746    -2159423.093 7  -1658816.026 7
  22940067.777    -1051341.339 5   -614297.976 4
  22298043.098    -5454490.335 5  -4183392.142 5
  19942601.363    -7785092.036 7  -5995524.722 9
  21271078.934   -14221098.061 6 -10888889.968 6
  22167220.035    -7689101.954 5  -2223698.548 4
  19557281.699   -26960809.573 7 -19443299.842 7
  20906737.168   -16976697.642 6 -13131882.745 7
 94  2 20  2 19 29.9960000  0  8  2 24 26  7  9 12 13  4
  20672290.457    -2142368.917 7  -1645527.055 8
  22915074.465    -1182670.881 5   -716632.593 5
  22305509.699    -5415263.609 5  -4152825.899 6
  19947809.715    -7757704.733 7  -5974183.960 9
  21251340.824   -14324808.139 6 -10969702.972 6
  22145669.481    -7802327.394 5  -2311926.091 4
  19546074.535   -27019703.438 7 -19489191.143 7
  20886442.270   -17083345.558 6 -13214984.977 7
 94  2 20  2 19 59.9960000  0  8  2 24 26  7  9 12 13  4
  20675575.566    -2125098.473 7  -1632069.566 7
  22890096.285    -1313968.750 5   -818942.535 5
  22313022.520    -5375778.374 5  -4122058.219 5
  19953074.059    -7730057.360 7  -5952640.543 9
  21231663.066   -14428206.673 6 -11050273.222 6
  22124144.020    -7915458.585 5  -2400080.216 5
  19534975.145   -27078031.449 7 -19534641.528 7
  20866213.840   -17189646.167 6 -13297816.590 7
 94  2 20  2 20 29.9960000  0  8  2 24 26  7  9 12 13  4
  20678902.832    -2107601.627 7  -1618435.658 7
  22865120.785    -1445228.720 5   -921222.967 3
  22320587.496    -5336033.940 5  -4091088.568 5
  19958384.074    -7702147.294 7  -5930892.426 9
  21212052.363   -14531276.947 6 -11130587.687 6
  22102638.371    -8028488.742 5  -2488155.600 4
  19523983.684   -27135788.766 7 -19579647.209 7
  20846061.699   -17295582.958 6 -13380364.695 7
 94  2 20  2 20 59.9960000  0  8  2 24 26  7  9 12 13  4
  20682274.051    -2089895.027 7  -1604638.308 7
  22840143.746    -1576458.877 5  -1023480.146 4
  22328199.504    -5296033.735 5  -4059919.601 5
  19963742.402    -7673984.986 7  -5908947.770 9
  21192497.762   -14634016.771 6 -11210644.648 6
  22081145.082    -8141425.190 5  -2576157.958 4
  19513098.520   -27192984.874 7 -19624215.589 7
  20825963.785   -17401172.093 6 -13462641.908 7
 94  2 20  2 21 29.9960000  0  8  2 24 26  7  9 12 13  4
  20685684.777    -2071973.443 7  -1590673.432 7
  22815176.223    -1707654.228 4  -1125710.227 4
  22335859.395    -5255782.495 5  -4028555.036 5
  19969149.871    -7645567.667 7  -5886804.396 9
  21173010.129   -14736439.372 6 -11290454.429 6
  22059670.668    -8254268.610 5  -2664087.843 4
  19502321.699   -27249622.570 7 -19668348.838 7
  20805935.988   -17506425.883 6 -13544657.817 7
 94  2 20  2 21 59.9960000  0  8  2 24 26  7  9 12 13  4
  20689135.457    -2053829.705 7  -1576535.456 7
  22790219.934    -1838799.620 4  -1227901.366 3
  22343565.590    -5215276.586 5  -3996991.997 5
  19974608.856    -7616878.840 7  -5864449.458 9
  21153583.871   -14838540.875 6 -11370014.000 6
  22038213.738    -8367014.619 5  -2751941.826 4
  19491651.801   -27305699.545 7 -19712045.165 7
  20785970.410   -17611337.167 6 -13626406.841 7
 94  2 20  2 22 29.9960000  0  8  2 24 26  7  9 12 13  4
  20692633.840    -2035463.762 7  -1562224.327 7
  22765283.402    -1969872.278 4  -1330035.829 2
  22351325.777    -5174514.568 5  -3965229.411 5
  19980120.481    -7587914.843 7  -5841880.097 9
  21134218.918   -14940308.570 6 -11449313.458 6
  22016777.106    -8479659.497 5  -2839716.995 4
  19481086.043   -27361214.333 7 -19755303.417 7
  20766071.324   -17715907.444 6 -13707890.140 7
 94  2 20  2 22 59.9960000  0  8  2 24 26  7  9 12 13  4
  20696167.980    -2016875.713 7  -1547740.134 7
  22740348.918    -2100858.265 5  -1432102.775 2
  22359126.863    -5133502.065 5  -3933271.653 5
  19985681.676    -7558684.174 7  -5819102.941 9
  21114914.746   -15041747.740 6 -11528356.928 6
  21995365.965    -8592202.235 5  -2927412.572 5
  19470627.981   -27416168.165 7 -19798124.569 7
  20746238.668   -17820133.754 6 -13789105.420 7
 94  2 20  2 23 29.9960000  0  8  2 24 26  7  9 12 13  4
  20699749.863    -1998061.825 7  -1533079.955 7
  22715447.660    -2231746.582 5  -1534093.624 5
  22366979.199    -5092246.147 5  -3901124.213 5
  19991295.738    -7529186.015 7  -5796117.359 9
  21095673.246   -15142851.802 6 -11607139.267 6
  21973964.434    -8704639.716 5  -3015026.142 4
  19460278.566   -27470560.165 7 -19840507.927 7
  20726475.699   -17923992.477 6 -13870034.258 7
 94  2 20  2 23 59.9960000  0  8  2 24 26  7  9 12 13  4
  20703370.348    -1979035.723 7  -1518254.418 7
  22690555.254    -2362555.212 5  -1636022.329 5
  22374872.324    -5050764.104 5  -3868800.560 5
  19996956.902    -7499437.235 7  -5772936.482 9
  21076494.699   -15243624.462 6 -11685663.374 6
  21952590.543    -8816979.829 5  -3102563.841 4
  19450033.293   -27524400.451 7 -19882461.379 7
  20706781.246   -18027483.834 6 -13950676.844 7
 94  2 20  2 24 29.9960000  0  8  2 24 26  7  9 12 13  4
  20707029.105    -1959798.294 7  -1503264.219 7
  22665676.402    -2493297.019 4  -1737898.994 3
  22382808.504    -5009057.588 5  -3836302.028 5
  20002665.543    -7469436.490 7  -5749559.268 9
  21057388.066   -15344055.672 6 -11763921.415 6
  21931229.441    -8929208.346 5  -3190014.558 5
  19439894.762   -27577676.999 7 -19923975.553 7
  20687158.957   -18130602.505 6 -14031029.026 7
 94  2 20  2 24 59.9960000  0  8  2 24 26  7  9 12 13  4
  20710729.027    -1940360.239 7  -1488117.671 7
  22640802.473    -2623988.989 4  -1839736.842 2
  22390784.981    -4967134.616 5  -3803634.798 5
  20008424.027    -7439180.286 7  -5725983.000 9
  21038335.598   -15444158.294 6 -11841923.413 6
  21909897.426    -9041325.804 5  -3277378.749 5
  19429863.629   -27630392.829 7 -19965052.804 7
  20667604.543   -18233346.349 6 -14111089.122 7
 94  2 20  2 25 29.9960000  0  8  2 24 26  7  9 12 13  4
  20714465.574    -1920726.926 7  -1472818.990 7
  22615938.559    -2754642.525 5  -1941544.739 4
  22398801.402    -4924996.586 5  -3770799.983 5
  20014229.043    -7408673.837 7  -5702211.733 9
  21019344.832   -15543941.907 6 -11919676.839 6
  21888587.473    -9153329.172 5  -3364654.043 5
  19419938.410   -27682547.275 7 -20005692.612 7
  20648125.926   -18335717.204 6 -14190858.584 7
 94  2 20  2 25 59.9960000  0  8  2 24 26  7  9 12 13  4
  20718241.160    -1900892.033 7  -1457363.225 7
  22591079.449    -2885254.144 5  -2043319.985 5
  22406865.379    -4882645.716 5  -3737799.338 5
  20020078.262    -7377928.984 7  -5678254.697 9
  21000416.277   -15643417.035 6 -11997189.883 6
  21867290.184    -9265216.356 5  -3451838.776 5
  19410120.684   -27734140.809 7 -20045895.339 6
  20628713.801   -18437731.253 6 -14270350.027 7
 94  2 20  2 26 29.9960000  0  8  2 24 26  7  9 12 13  4
  20722057.488    -1880843.531 7  -1441741.023 7
  22566237.504    -3015798.347 4  -2145042.670 5
  22414965.082    -4840082.681 5  -3704633.382 5
  20025974.535    -7346945.244 7  -5654111.514 9
  20981550.574   -15742564.642 6 -12074447.715 6
  21846023.152    -9376981.948 5  -3538928.803 5
  19400410.434   -27785170.324 7 -20085658.587 6
  20609371.848   -18539373.180 6 -14349551.490 7
 94  2 20  2 26 59.9960000  0  8  2 24 26  7  9 12 13  4
  20725916.332    -1860563.687 7  -1425938.558 7
  22541419.340    -3146246.629 5  -2246690.562 5
  22423105.410    -4797302.088 5  -3671297.863 5
  20031914.668    -7315733.833 7  -5629790.928 9
  20962744.793   -15841382.826 6 -12151448.857 6
  21824777.082    -9488624.830 5  -3625923.183 5
  19390807.449   -27835637.087 7 -20124983.316 7
  20590105.582   -18640630.710 6 -14428453.432 7
 94  2 20  2 27 29.9960000  0  8  2 24 26  7  9 12 13  4
  20729818.863    -1840043.884 7  -1409949.089 7
  22516613.871    -3276598.327 5  -2348263.259 5
  22431283.902    -4754320.116 5  -3637805.454 5
  20037893.535    -7284314.389 7  -5605308.234 9
  20944007.332   -15939861.742 6 -12228185.640 7
  21803562.824    -9600151.159 5  -3712826.734 5
  19381308.410   -27885549.700 7 -20163876.239 7
  20570902.684   -18741513.080 6 -14507063.039 7
 94  2 20  2 27 59.9960000  0  8  2 24 26  7  9 12 13  4
  20733769.832    -1819272.021 7  -1393763.224 7
  22491835.137    -3406839.142 5  -2449749.550 5
  22439504.223    -4711138.402 5  -3604157.391 5
  20043914.254    -7252668.577 7  -5580649.153 9
  20925335.840   -16037976.900 6 -12304638.964 6
  21782358.035    -9711554.347 5  -3799634.336 4
  19371917.051   -27934904.266 7 -20202334.327 6
  20551783.426   -18842007.640 6 -14585370.457 7
 94  2 20  2 28 29.9960000  0  8  2 24 26  7  9 12 13  4
  20737766.832    -1798260.206 7  -1377390.380 7
  22467064.449    -3536985.221 5  -2551162.014 5
  22447754.746    -4667763.927 5  -3570359.129 5
  20049982.480    -7220790.139 7  -5555808.798 9
  20906737.754   -16135727.465 6 -12380808.194 7
  21761182.098    -9822838.112 5  -3886348.904 5
  19362629.230   -27983707.094 7 -20240362.484 7
  20532732.606   -18942116.642 6 -14663377.443 7
 94  2 20  2 28 59.9960000  0  8  2 24 26  7  9 12 13  4
  20741813.535    -1777005.244 7  -1360828.072 7
  22442310.402    -3667047.025 5  -2652508.777 5
  22456044.762    -4624190.783 5  -3536406.061 5
  20056097.129    -7188665.655 7  -5530776.725 9
  20888199.871   -16233117.010 6 -12456696.118 7
  21740025.098    -9933996.967 5  -3972966.114 5
  19353447.395   -28031955.430 7 -20277958.568 7
  20513750.824   -19041848.616 6 -14741090.622 7
 94  2 20  2 29 29.9960000  0  8  2 24 26  7  9 12 13  4
  20745902.863    -1755515.525 7  -1344082.842 7
  22417580.051    -3797032.216 5  -2753795.872 5
  22464375.816    -4580421.621 5  -3502300.233 5
  20062259.012    -7156280.980 7  -5505541.906 9
  20869740.262   -16330142.570 6 -12532300.407 7
  21718899.926   -10045027.133 5  -4059483.070 4
  19344371.770   -28079647.808 7 -20315121.442 7
  20494845.137   -19141205.974 6 -14818511.915 7
 94  2 20  2 29 59.9960000  0  8  2 24 26  7  9 12 13  4
  20750035.387    -1733796.398 7  -1327158.848 7
  22392860.582    -3926928.392 5  -2855013.618 5
  22472748.215    -4536442.529 5  -3468030.851 4
  20068472.262    -7123635.582 7  -5480103.929 9
  20851338.481   -16426818.630 6 -12607632.373 7
  21697800.918   -10155920.047 6  -4145893.061 5
  19335403.934   -28126778.599 7 -20351846.722 7
  20476016.145   -19240184.188 6 -14895637.767 8
 94  2 20  2 30 59.9950000  0  8  2 24 26  7  9 12 13  4
  20758436.491    -1689660.877 7  -1292767.528 7
  22343469.655    -4186458.825 5  -3057245.033 4
  22489601.796    -4447850.915 5  -3398998.492 5
  20081030.960    -7057631.459 7  -5428672.131 9
  20814743.358   -16619134.457 6 -12757488.779 7
  21655674.398   -10377284.947 6  -4318385.085 5
  19317786.702   -28219358.840 7 -20423987.128 6
  20438555.452   -19437009.781 6 -15049008.303 8
 94  2 20  2 31 29.9950000  0  8  2 24 26  7  9 12 13  4
  20762698.593    -1667263.277 6  -1275314.845 7
  22318803.765    -4316073.288 5  -3158243.258 5
  22498089.898    -4403252.375 5  -3364246.419 5
  20087372.929    -7024295.532 7  -5402696.075 9
  20796545.155   -16714781.376 6 -12832018.815 7
  21634649.765   -10487755.863 6  -4404466.251 5
  19309136.554   -28264810.613 7 -20459404.075 7
  20419940.171   -19534836.571 6 -15125236.932 8
 94  2 20  2 31 59.9950000  0  8  2 24 26  7  9 12 13  4
  20767003.804    -1644646.889 7  -1257691.687 7
  22294160.851    -4445584.844 5  -3259161.299 5
  22506617.991    -4358461.387 5  -3329344.397 5
  20093756.640    -6990749.346 7  -5376556.186 9
  20778412.507   -16810069.896 6 -12906269.575 7
  21613655.366   -10598083.117 5  -4490435.492 5
  19300594.921   -28309705.226 7 -20494386.870 7
  20401402.194   -19632259.505 6 -15201150.874 8
 94  2 20  2 32 29.9950000  0  8  2 24 26  7  9 12 13  4
  20771350.257    -1621803.116 7  -1239891.342 7
  22269532.733    -4574990.361 5  -3359996.696 5
  22515170.944    -4313482.668 5  -3294296.089 5
  20100180.671    -6956981.746 7  -5350243.758 9
  20760351.319   -16904969.812 6 -12980217.533 7
  21592691.491   -10708260.824 6  -4576288.193 5
  19292157.335   -28354039.708 7 -20528933.202 7
  20382947.062   -19729260.119 7 -15276735.736 8
 94  2 20  2 32 59.9950000  0  8  2 24 26  7  9 12 13  4
  20775739.093    -1598748.134 7  -1221926.417 7
  22244936.148    -4704280.098 5  -3460741.916 5
  22523762.101    -4268333.280 5  -3259114.785 5
  20106652.233    -6922990.618 7  -5323757.163 9
  20742365.819   -16999483.208 6 -13053864.293 7
  21571752.921   -10818291.665 6  -4662026.456 5
  19283826.124   -28397819.616 7 -20563047.387 7
  20364568.327   -19825831.438 6 -15351986.079 8
 94  2 20  2 33 29.9950000  0  8  2 24 26  7  9 12 13  4
  20780165.718    -1575468.862 6  -1203786.721 7
  22220353.116    -4833459.992 5  -3561401.537 4
  22532391.726    -4223013.483 5  -3223800.687 5
  20113160.296    -6888780.770 7  -5297100.139 9
  20724456.257   -17093598.786 6 -13127201.083 7
  21550839.608   -10928175.987 5  -4747650.558 5
  19275601.187   -28441048.171 7 -20596731.964 6
  20346269.210   -19921980.693 6 -15426907.548 8
 94  2 20  2 33 59.9950000  0  8  2 24 26  7  9 12 13  4
  20784641.390    -1551947.691 6  -1185458.535 7
  22195787.929    -4962528.610 5  -3661974.470 5
  22541045.538    -4177530.533 5  -3188359.453 4
  20119714.929    -6854340.214 7  -5270263.336 9
  20706622.421   -17187304.019 6 -13200218.119 7
  21529963.655   -11037908.253 6  -4833156.162 5
  19267479.632   -28483722.703 7 -20629984.824 7
  20328057.288   -20017698.349 6 -15501492.711 8
 94  2 20  2 34 29.9950000  0  8  2 24 26  7  9 12 13  4
  20789160.515    -1528196.056 6  -1166950.766 7
  22171251.015    -5091481.334 5  -3762457.078 4
  22549727.796    -4131898.077 5  -3152801.742 5
  20126313.952    -6819677.983 7  -5243253.802 9
  20688867.843   -17280616.904 6 -13272929.417 7
  21509102.585   -11147489.604 5  -4918544.182 5
  19259462.944   -28525847.346 7 -20662809.206 7
  20309919.062   -20112989.889 6 -15575745.822 8
 94  2 20  2 34 59.9950000  0  8  2 24 26  7  9 12 13  4
  20793722.554    -1504216.979 6  -1148265.773 7
  22146737.523    -5220311.693 5  -3862844.340 5
  22558433.491    -4086111.493 5  -3117123.921 5
  20132951.046    -6784791.050 7  -5216069.182 9
  20671186.046   -17373539.741 6 -13345336.797 7
  21488287.827   -11256907.927 6  -5003805.138 5
  19251552.194   -28567413.199 7 -20695198.159 6
  20291866.280   -20207855.119 6 -15649666.745 8
 94  2 20  2 35 29.9950000  0  8  2 24 26  7  9 12 13  4
  20798329.663    -1480013.891 6  -1129406.227 7
  22122240.773    -5349024.320 5  -3963139.843 5
  22567179.640    -4040172.239 5  -3081327.131 4
  20139630.601    -6749689.426 7  -5188717.254 9
  20653577.788   -17466076.275 6 -13417443.155 7
  21467493.046   -11366168.728 6  -5088943.372 5
  19243749.898   -28608428.299 7 -20727157.964 7
  20273894.663   -20302298.384 6 -15723258.866 8
 94  2 20  2 35 59.9950000  0  8  2 24 26  7  9 12 13  4
  20802973.765    -1455605.141 6  -1110386.426 7
  22097771.522    -5477615.636 5  -4063340.840 5
  22575954.616    -3994081.989 5  -3045412.690 4
  20146348.046    -6714386.616 7  -5161208.560 9
  20636040.648   -17558235.122 6 -13489255.225 7
  21446732.179   -11475272.901 5  -5173959.558 5
  19236047.913   -28648896.760 7 -20758691.799 6
  20256005.312   -20396326.029 6 -15796527.122 8
 94  2 20  2 36 29.9950000  0  8  2 24 26  7  9 12 13  4
  20807657.937    -1430987.043 6  -1091203.496 7
  22073326.499    -5606080.913 5  -4163443.618 5
  22584752.991    -3947838.417 5  -3009378.778 4
  20153103.312    -6678887.585 7  -5133546.987 9
  20618572.288   -17650012.936 6 -13560770.375 7
  21426002.499   -11584216.239 6  -5258850.406 5
  19228450.288   -28688817.711 7 -20789799.020 6
  20238188.874   -20489945.141 6 -15869477.045 8
 94  2 20  2 36 59.9950000  0  8  2 24 26  7  9 12 13  4
  20812387.077    -1406143.566 6  -1071844.939 7
  22048902.343    -5734407.215 5  -4263438.101 5
  22593583.468    -3901423.842 5  -2973211.606 5
  20159897.468    -6643188.322 7  -5105729.369 9
  20601184.296   -17741403.514 6 -13631983.785 7
  21405301.593   -11692988.629 6  -5343608.037 5
  19220961.351   -28728183.901 7 -20820473.961 6
  20220453.827   -20583143.852 6 -15942099.389 8
 94  2 20  2 37 29.9950000  0  8  2 24 26  7  9 12 13  4
  20817159.991    -1381063.122 6  -1052301.746 7
  22024518.249    -5862588.216 5  -4363319.368 5
  22602453.187    -3854850.779 5  -2936920.933 3
  20166724.483    -6607300.653 7  -5077764.946 9
  20583870.444   -17832409.682 6 -13702897.647 7
  21384632.874   -11801591.828 6  -5428233.851 5
  19213573.780   -28767000.248 7 -20850720.444 6
  20202803.452   -20675918.930 6 -16014391.621 8
 94  2 20  2 37 59.9950000  0  8  2 24 26  7  9 12 13  4
  20821979.343    -1355737.981 6  -1032567.871 7
  22000155.038    -5990626.490 5  -4463089.398 5
  22611335.226    -3808139.908 5  -2900522.882 4
  20173592.187    -6571220.875 7  -5049650.829 9
  20566621.733   -17923029.172 6 -13773510.197 7
  21364004.835   -11910018.283 6  -5512721.920 5
  19206290.819   -28805262.511 7 -20880535.178 7
  20185228.577   -20768273.995 6 -16086356.575 8
 94  2 20  2 38 29.9950000  0  8  2 24 26  7  9 12 13  4
  20826845.179    -1330175.382 6  -1012648.958 7
  21975808.085    -6118538.836 5  -4562761.308 5
  22620244.952    -3761311.920 5  -2864033.559 5
  20180493.608    -6534948.400 7  -5021386.546 9
  20549445.374   -18013275.392 6 -13843831.902 7
  21343400.882   -12018278.665 6  -5597080.593 5
  19199113.155   -28842984.399 7 -20909928.835 6
  20167736.968   -20860205.777 7 -16157991.692 8
 94  2 20  2 38 59.9950000  0  8  2 24 26  7  9 12 13  4
  20831752.405    -1304382.113 6   -992550.312 7
  21951492.679    -6246325.372 5  -4662335.197 5
  22629180.546    -3714368.606 5  -2827454.370 2
  20187432.444    -6498488.132 7  -4992975.942 9
  20532343.491   -18103151.816 6 -13913865.457 7
  21322833.601   -12126370.886 6  -5681308.236 5
  19192038.530   -28880166.853 7 -20938902.160 6
  20150323.280   -20951700.221 6 -16229286.032 8
 94  2 20  2 39 29.9950000  0  8  2 24 26  7  9 12 13  4
  20836705.390    -1278347.485 6   -972263.595 7
  21927202.796    -6373971.523 5  -4761799.689 5
  22638132.530    -3667300.444 4  -2790777.915 5
  20194409.874    -6461817.400 7  -4964401.327 9
  20515319.257   -18192627.118 6 -13983586.424 7
  21302300.093   -12234281.836 6  -5765394.631 5
  19185067.538   -28916800.309 7 -20967447.690 6
  20132998.062   -21042738.330 6 -16300224.778 8
 94  2 20  2 39 59.9950000  0  8  2 24 26  7  9 12 13  4
  20841703.804    -1252076.967 6   -951793.060 7
  21902937.499    -6501476.924 5  -4861154.495 5
  22647124.601    -3620089.971 5  -2753990.564 4
  20201431.913    -6424929.150 7  -4935657.225 9
  20498369.983   -18281689.228 6 -14052985.441 7
  21281796.351   -12342008.333 6  -5849337.302 6
  19178199.202   -28952884.675 7 -20995565.357 6
  20115763.413   -21133312.903 6 -16370802.339 8
 94  2 20  2 40 29.9950000  0  8  2 24 26  7  9 12 13  4
  20846749.413    -1225568.560 6   -931137.162 7
  21878704.788    -6628825.998 5  -4960387.471 5
  22656139.858    -3572718.936 5  -2717078.139 5
  20208488.671    -6387831.748 7  -4906750.147 9
  20481502.983   -18370334.359 6 -14122059.536 7
  21261333.843   -12449550.916 6  -5933136.655 5
  19171438.140   -28988424.056 7 -21023258.367 6
  20098615.390   -21223412.682 6 -16441009.921 8
 94  2 20  2 40 59.9950000  0  8  2 24 26  7  9 12 13  4
  20851840.483    -1198822.443 6   -910296.042 7
  21854504.499    -6756002.128 5  -5059485.691 5
  22665176.108    -3525187.132 4  -2680040.385 5
  20215583.702    -6350537.387 7  -4877689.598 9
  20464713.913   -18458558.904 6 -14190805.917 7
  21240903.030   -12556909.244 6  -6016792.444 5
  19164778.140   -29023421.112 7 -21050528.772 6
  20081558.132   -21313047.798 6 -16510855.429 8
 94  2 20  2 41 29.9950000  0  8  2 24 26  7  9 12 13  4
  20856976.601    -1171833.665 6   -889265.827 7
  21830339.507    -6882992.564 5  -5158439.221 5
  22674260.827    -3477487.652 4  -2642871.989 5
  20222720.694    -6313041.553 7  -4848472.052 9
  20448009.671   -18546354.538 6 -14259218.060 7
  21220511.773   -12664077.797 6  -6100300.353 5
  19158221.983   -29057873.881 7 -21077375.072 6
  20064585.921   -21402227.915 6 -16580346.402 8
 94  2 20  2 41 59.9950000  0  8  2 24 26  7  9 12 13  4
  20862157.030    -1144603.655 6   -868047.646 7
  21806210.835    -7009800.023 5  -5257250.195 5
  22683362.866    -3429633.970 4  -2605583.463 4
  20229893.124    -6275361.814 7  -4819111.205 9
  20431378.163   -18633724.511 6 -14327298.524 7
  21200151.905   -12771052.952 6  -6183657.572 5
  19151769.101   -29091782.027 7 -21103796.979 6
  20047702.202   -21490960.640 6 -16649488.753 8
 94  2 20  2 42 29.9950000  0  8  2 24 26  7  9 12 13  4
  20867381.569    -1117137.059 6   -846645.104 7
  21782109.687    -7136435.075 5  -5355926.799 6
  22692498.304    -3381646.360 5  -2568190.551 5
  20237095.351    -6237502.448 7  -4789610.392 9
  20414835.976   -18720669.739 6 -14395048.022 7
  21179832.085   -12877834.956 6  -6266864.279 5
  19145419.812   -29125149.423 7 -21129797.526 6
  20030902.452   -21579250.739 6 -16718286.202 8
 94  2 20  2 42 59.9950000  0  8  2 24 26  7  9 12 13  4
  20872653.054    -1089440.611 6   -825063.465 7
  21758041.999    -7262902.338 5  -5454472.668 5
  22701649.640    -3333535.791 4  -2530701.839 4
  20244332.335    -6199464.591 7  -4759970.494 9
  20398371.194   -18807180.580 6 -14462459.036 7
  21159549.991   -12984420.867 6  -6349918.197 6
  19139173.851   -29157976.390 7 -21155376.962 6
  20014186.069   -21667100.966 7 -16786740.893 8
 94  2 20  2 43 29.9950000  0  8  2 24 26  7  9 12 13  4
  20877966.429    -1061515.659 6   -803303.759 6
  21734007.851    -7389217.000 5  -5552899.613 5
  22710821.390    -3285320.249 4  -2493131.330 4
  20251606.366    -6161251.872 7  -4730194.341 8
  20381994.374   -18893244.816 6 -14529522.047 7
  21139308.804   -13090805.836 6  -6432815.523 5
  19133028.413   -29190261.701 7 -21180534.330 6
  19997550.929   -21754502.436 6 -16854845.902 8
 94  2 20  2 43 59.9950000  0  8  2 24 26  7  9 12 13  4
  20883320.249    -1033370.881 6   -781372.778 7
  21709999.843    -7515393.919 5  -5651219.241 5
  22720016.788    -3237032.420 5  -2455504.496 4
  20258909.796    -6122872.423 7  -4700288.268 8
  20365697.077   -18978865.387 6 -14596239.343 7
  21119097.866   -13196995.926 6  -6515560.997 6
  19126987.929   -29222014.713 7 -21205276.915 7
  19981007.890   -21841453.230 6 -16922599.734 8
 94  2 20  2 44 29.9950000  0  8  2 24 26  7  9 12 13  4
  20888723.601    -1004999.185 6   -759264.974 6
  21686012.483    -7641415.799 5  -5749418.072 5
  22729224.304    -3188657.143 5  -2417809.493 4
  20266245.562    -6084314.280 7  -4670242.953 8
  20349488.116   -19064047.065 6 -14662614.640 7
  21098927.663   -13302979.998 6  -6598145.937 6
  19121048.374   -29253227.847 7 -21229598.814 6
  19964546.210   -21927934.350 6 -16989987.582 8
 94  2 20  2 44 59.9950000  0  8  2 24 26  7  9 12 13  4
  20894165.460     -976399.583 6   -736979.571 6
  21662070.397    -7767263.033 5  -5847480.841 5
  22738442.476    -3140188.173 4  -2380041.485 4
  20273616.773    -6045577.939 7  -4640058.782 8
  20333367.858   -19148794.026 6 -14728651.206 7
  21078799.569   -13408752.222 6  -6680565.802 6
  19115210.741   -29283899.123 7 -21253498.480 6
  19948181.351   -22013945.295 6 -17057009.065 8
 94  2 20  2 45 29.9950000  0  8  2 24 26  7  9 12 13  4
  20899648.593     -947574.664 6   -714518.598 7
  21638154.608    -7892938.196 5  -5945409.476 5
  22747688.608    -3091624.763 5  -2342199.923 3
  20281025.116    -6006658.507 7  -4609731.946 8
  20317316.444   -19233130.525 6 -14794367.921 7
  21058712.343   -13514315.050 6  -6762822.495 6
  19109475.265   -29314034.193 7 -21276980.342 6
  19931902.101   -22099484.439 7 -17123662.914 8
 94  2 20  2 45 59.9950000  0  8  2 24 26  7  9 12 13  4
  20905179.015     -918521.009 6   -691879.401 6
  21614276.273    -8018433.597 5  -6043198.037 6
  22756947.890    -3042956.614 5  -2304276.705 3
  20288463.710    -5967557.843 7  -4579263.887 8
  20301339.257   -19317073.886 6 -14859778.297 7
  21038663.648   -13619671.254 6  -6844918.186 6
  19103842.671   -29343639.723 7 -21300049.567 6
  19915717.655   -22184556.287 6 -17189952.636 8
 94  2 20  2 46 29.9950000  0  8  2 24 26  7  9 12 13  4
  20910752.577     -889226.674 6   -669052.651 6
  21590432.483    -8143722.922 5  -6140826.022 6
  22766229.679    -2994161.488 4  -2266254.567 4
  20295943.601    -5928263.232 7  -4548644.705 8
  20285444.569   -19400613.658 6 -14924874.189 7
  21018656.679   -13724811.087 6  -6926845.273 6
  19098311.733   -29372709.298 7 -21322701.161 6
  19899617.929   -22269144.539 6 -17255865.526 8
 94  2 20  2 46 59.9950000  0  8  2 24 26  7  9 12 13  4
  20916373.069     -859682.819 6   -646031.464 6
  21566624.093    -8268807.894 5  -6238294.787 6
  22775540.569    -2945256.428 5  -2228146.793 4
  20303457.382    -5888764.264 6  -4517866.276 8
  20269630.007   -19483732.866 6 -14989642.380 7
  20998690.187   -13829735.097 6  -7008604.182 6
  19092880.155   -29401247.477 7 -21344938.689 6
  19883613.577   -22353248.379 6 -17321400.954 8
 94  2 20  2 47 29.9950000  0  8  2 24 26  7  9 12 13  4
  20922049.647     -829866.558 6   -622798.026 6
  21542862.648    -8393686.279 5  -6335602.578 5
  22784864.030    -2896248.271 5  -2189958.636 4
  20311012.546    -5849061.611 6  -4486929.144 8
  20253894.796   -19566411.295 6 -15054067.094 8
  20978770.429   -13934436.753 6  -7090189.837 6
  19087550.944   -29429251.117 7 -21366759.688 6
  19867705.038   -22436855.691 7 -17386549.474 8
 94  2 20  2 47 59.9950000  0  8  2 24 26  7  9 12 13  4
  20927771.062     -799780.754 6   -599354.542 6
  21519143.710    -8518355.574 5  -6432747.424 6
  22794202.913    -2847150.988 4  -2151701.017 4
  20318606.101    -5809176.699 7  -4455849.983 8
  20238251.179   -19648630.210 6 -15118133.744 7
  20958883.327   -14038919.887 6  -7171605.212 6
  19082322.413   -29456727.741 7 -21388170.025 6
  19851884.069   -22519981.529 6 -17451322.824 9
 94  2 20  2 48 29.9950000  0  8  2 24 26  7  9 12 13  4
  20933551.132     -769429.303 6   -575704.057 6
  21495456.397    -8642807.983 5  -6529723.288 6
  22803566.421    -2797963.941 5  -2113373.523 3
  20326227.374    -5769108.974 6  -4424628.367 8
  20222691.507   -19730378.253 6 -15181833.489 7
  20939048.108   -14143178.684 6  -7252845.775 6
  19077194.843   -29483675.556 7 -21409168.305 6
  19836160.491   -22602617.470 6 -17515714.427 9
 94  2 20  2 48 59.9950000  0  8  2 24  5  7  9 12 13  4
  20939376.319     -738818.365 6   -551851.390 6
  21471814.093    -8767058.204 5  -6626541.578 6
  22767961.335          -0.98315
  20333879.812    -5728883.276 6  -4393283.651 8
  20207224.804   -19811667.387 6 -15245175.634 7
  20919251.687   -14247212.816 6  -7333911.265 6
  19072167.101   -29510097.679 7 -21429756.956 6
  19820526.687   -22684774.555 7 -17579732.900 8
 94  2 20  2 49 29.9950000  0  8  2 24  5  7  9 12 13  4
  20945245.405     -707967.095 6   -527811.442 6
  21448208.116    -8891108.959 6  -6723204.459 6
  22748171.640     -104024.883 3
  20341559.733    -5688528.734 6  -4361838.537 8
  20191844.788   -19892504.424 6 -15308165.502 8
  20899490.851   -14351020.526 6  -7414800.342 6
  19067237.335   -29535996.391 7 -21449937.758 6
  19804981.624   -22766464.648 7 -17643387.491 8
 94  2 20  2 49 59.9950000  0  8  2 24  5  7  9 12 13  4
  20951155.585     -676899.964 6   -503603.287 6
  21424633.210    -9014964.850 5  -6819715.483 6
  22728362.265     -208079.094 3
  20349266.546    -5648041.422 6  -4330289.969 8
  20176541.476   -19972903.212 6 -15370813.880 7
  20879784.390   -14454600.278 6  -7495511.768 6
  19062408.374   -29561373.683 7 -21469712.254 7
  19789524.718   -22847687.387 7 -17706677.904 8
 94  2 20  2 50 29.9950000  0  8  2 24  5  7  9 12 13  4
  20957108.733     -645620.297 6   -479229.518 6
  21401108.249    -9138631.120 6  -6916078.762 6
  22708559.421     -312164.196 4        -0.05515
  20356995.155    -5607416.887 6  -4298634.472 8
  20161329.343   -20052856.721 6 -15433115.280 8
  20860118.976   -14557943.440 6  -7576038.861 6
  19057680.015   -29586225.208 7 -21489077.060 6
  19774160.444   -22928430.134 7 -17769594.294 8
 94  2 20  2 50 59.9950000  0  8  2 24  5  7  9 12 13  4
  20963100.882     -614131.510 6   -454692.800 6
  21377606.046    -9262113.063 6  -7012298.396 6
  22688746.108     -416281.447 5    -81130.268 4
  20364752.390    -5566657.495 6  -4266873.889 8
  20146195.554   -20132356.176 6 -15495062.878 7
  20840497.898   -14661048.600 6  -7656380.492 6
  19053050.835   -29610552.930 7 -21508033.710 6
  19758890.343   -23008697.563 7 -17832140.318 9
 94  2 20  2 51 29.9950000  0  8  2 24  5  7  9 12 13  4
  20969135.022     -582433.151 6   -429992.775 6
  21354148.085    -9385398.328 5  -7108364.779 6
  22668931.062     -520418.055 4   -162275.584 4
  20372538.343    -5525749.788 6  -4234997.740 8
  20131164.046   -20211386.006 6 -15556644.525 8
  20820921.210   -14763915.903 6  -7736536.769 6
  19048520.296   -29634361.063 7 -21526585.487 6
  19743704.538   -23088483.280 7 -17894310.967 9
 94  2 20  2 51 59.9950000  0  8  2 24  5  7  9 12 13  4
  20975205.718     -550514.273 6   -405120.918 6
  21330727.163    -9508479.293 6  -7204271.990 6
  22649111.077     -624572.137 4   -243434.544 2
  20380355.046    -5484681.976 6  -4202996.828 8
  20116211.882   -20289934.781 6 -15617851.330 8
  20801391.796   -14866542.631 6  -7816505.601 6
  19044087.804   -29657650.578 7 -21544733.143 6
  19728619.382   -23167765.200 7 -17956089.059 9
 94  2 20  2 52 29.9950000  0  8  2 24  5  7  9 12 13  4
  20981329.218     -518350.683 6   -380058.373 6
  21307348.819    -9631334.878 6  -7300003.554 6
  22629285.233     -728743.812 3   -324607.199 4
  20388198.702    -5443447.788 6  -4170866.272 8
  20101359.983   -20367990.213 6 -15678673.712 8
  20781913.819   -14968921.098 6  -7896280.969 6
  19039756.249   -29680417.920 7 -21562473.906 6
  19713626.374   -23246533.829 7 -18017467.176 9
 94  2 20  2 52 59.9950000  0  8  2 24  5  7  9 12 13  4
  20987499.155     -485930.074 6   -354795.571 6
  21284010.194    -9753951.165 5  -7395548.645 6
  22609456.233     -832933.818 4   -405794.132 4
  20396077.929    -5402042.900 6  -4138602.704 8
  20086596.562   -20445569.649 6 -15739125.199 8
  20762474.921   -15071055.053 6  -7975865.819 6
  19035521.546   -29702670.778 7 -21579813.778 6
  19698734.804   -23324788.787 7 -18078445.021 9
 94  2 20  2 53 29.9950000  0  8  2 24  5  7  9 12 13  4
  20993720.101     -453231.807 6   -329316.404 6
  21260729.421    -9876323.404 6  -7490903.591 6
  22589631.124     -937136.833 4   -486991.203 5
  20403989.851    -5360460.775 6  -4106201.034 8
  20071923.218   -20522677.634 6 -15799209.305 8
  20743092.085   -15172934.658 6  -8055252.481 6
  19031385.335   -29724403.173 7 -21596748.088 6
  19683941.171   -23402517.098 7 -18139012.505 9
 94  2 20  2 53 59.9950000  0  8  2 24  5  7  9 12 13  4
  20999992.710     -420255.643 6   -303620.710 6
  21237485.444    -9998462.312 6  -7586076.704 6
  22569798.921    -1041359.309 4   -568203.430 4
  20411935.819    -5318705.017 6  -4073664.068 8
  20057338.530   -20599323.316 6 -15858933.184 8
  20723750.499   -15274559.945 6  -8134440.969 6
  19027347.241   -29745619.180 7 -21613280.024 6
  19669250.851   -23479722.396 7 -18199172.447 9
 94  2 20  2 54 29.9950000  0  8  2 24  5  7  9 12 13  4
  21006323.671     -386996.253 6   -277704.313 6
  21214286.397   -10120364.366 6  -7681065.263 6
  22549963.702    -1145598.091 4   -649428.388 5
  20419913.280    -5276784.630 6  -4040998.802 8
  20042839.007   -20675516.242 6 -15918304.268 8
  20704459.132   -15375933.053 6  -8213432.953 6
  19023407.976   -29766324.890 7 -21629414.327 6
  19654658.640   -23556426.606 7 -18258941.936 9
 94  2 20  2 54 59.9950000  0  8  2 24  5  7  9 12 13  4
  21012705.054     -353466.132 6   -251576.952 6
  21191134.952   -10242042.491 6  -7775879.329 6
  22530121.538    -1249847.668 4   -730661.746 5
  20427920.507    -5234713.737 6  -4008216.266 8
  20028426.249   -20751251.216 6 -15977318.492 8
  20685218.390   -15477051.086 6  -8292226.188 6
  19019565.960   -29786521.622 7 -21645152.014 6
  19640155.757   -23632621.746 7 -18318314.728 9
 94  2 20  2 55 29.9950000  0  8  2 24  5  7  9 12 13  4
  21019135.116     -319678.383 6   -225248.830 6
  21168013.765   -10363510.528 6  -7870529.695 6
  22510289.452    -1354095.736 5   -811893.922 4
  20435951.858    -5192498.174 6  -3975321.011 8
  20014108.007   -20826518.594 6 -16035968.375 8
  20666022.944   -15577907.108 6  -8370815.272 6
  19015817.530   -29806206.322 7 -21660490.722 6
  19625756.241   -23708300.163 7 -18377284.885 9
 94  2 20  2 55 59.9950000  0  8  2 24  5  7  9 12 13  4
  21025611.687     -285647.195 6   -198731.027 6
  21144946.194   -10484754.622 6  -7965005.556 6
  22490447.483    -1458337.286 4   -893121.025 5
  20444013.304    -5150136.845 6  -3942312.170 8
  19999874.827   -20901305.711 6 -16094244.028 8
  20646881.351   -15678499.501 6  -8449198.909 6
  19012169.515   -29825381.468 7 -21675432.375 6
  19611453.226   -23783459.145 7 -18435850.292 9
 94  2 20  2 56 29.9950000  0  8  2 24  5  7  9 12 13  4
  21032130.155     -251390.270 6   -172037.318 6
  21121916.679   -10605780.647 6  -8059311.490 6
  22470614.280    -1562573.367 5   -974343.842 5
  20452097.710    -5107647.899 6  -3909203.885 8
  19985729.288   -20975627.844 6 -16152157.353 8
  20627787.218   -15778833.889 6  -8527381.519 6
  19008616.819   -29844056.761 7 -21689984.532 6
  19597250.163   -23858104.156 7 -18494015.200 9
 94  2 20  2 56 59.9950000  0  8  2 24  5  7  9 12 13  4
  21038688.796     -216918.769 6   -145176.408 6
  21098929.648   -10726582.849 6  -8153443.011 6
  22450780.452    -1666794.785 5  -1055555.233 5
  20460213.187    -5065010.767 6  -3875980.126 8
  19971677.757   -21049470.707 6 -16209697.214 8
  20608749.140   -15878894.554 6  -8605350.835 6
  19005159.983   -29862220.708 7 -21704138.238 6
  19583150.015   -23932209.255 7 -18551759.400 9
 94  2 20  2 57 29.9950000  0  8  2 24  5  7  9 12 13  4
  21045289.851     -182231.516 6   -118147.381 6
  21075983.343   -10847143.438 6  -8247386.266 6
  22430950.382    -1771014.582 5  -1136765.380 4
  20468353.335    -5022226.182 6  -3842641.476 8
  19957717.960   -21122837.371 6 -16266866.018 8
  20589759.468   -15978682.341 6  -8683107.518 6
  19001799.366   -29879878.172 7 -21717897.275 6
  19569145.108   -24005793.773 6 -18609097.950 9
 94  2 20  2 57 59.9950000  0  8  2 24  5  7  9 12 13  4
  21051932.569     -147319.058 6    -90942.870 6
  21053094.749   -10967440.590 6  -8341124.252 6
  22411115.187    -1875256.555 5  -1217992.813 5
  20476523.210    -4979298.586 6  -3809191.387 7
  19943846.312   -21195728.788 6
  20570822.343   -16078195.681 6  -8760650.345 6
  18998537.538   -29897031.648 7 -21731263.599 6
  19555239.827   -24078866.014 7
 94  2 20  2 58 29.9950000  0  8  2 24  5  7  9 12 13  4
  21058620.601     -112184.031 6    -63564.929 6
  21030251.155   -11087478.014 6  -8434659.858 6
  22391267.069    -1979538.530 4  -1299251.413 4
  20484714.147    -4936242.100 6  -3775640.870 8
  19930062.819   -21268157.377 6
  20551940.460   -16177435.661 6  -8837980.161 6
  18995365.999   -29913686.399 7 -21744241.313 6
  19541428.523   -24151432.142 7
 94  2 20  2 58 59.9950000  0  8  2 24  5  7  9 12 13  4
  21065351.999      -76815.346 6    -36004.922 6
  21007461.249   -11207239.179 6  -8527980.197 6
  22371416.601    -2083863.979 5  -1380543.895 4
  20492934.694    -4893052.955 6  -3741986.978 8
  19916371.546   -21340110.422 6
  20533106.757   -16276397.080 6  -8915092.930 6
  18992290.890   -29929841.704 7 -21756829.843 6
  19527718.773   -24223490.527 7
 94  2 20  2 59 29.9950000  0  8  2 24  5  7  9 12 13  4
  21072128.663      -41197.165 6     -8250.494 6
  20984728.358   -11326722.660 6  -8621084.151 6
  22351556.483    -2188235.250 5  -1461872.037 5
  20501178.741    -4849736.226 6  -3708233.675 8
  19902769.671   -21411593.733 6
  20514325.718   -16375079.518 6  -8991988.304 6
  18989311.249   -29945501.092 7 -21769031.946 6
  19514097.694   -24295045.183 7
 94  2 20  2 59 59.9950000  0  8  2 24  5  7  9 12 13  4
  21078954.788       -5331.651 6     19696.655 6
  20962034.952   -11445933.328 6  -8713975.530 6
  22331688.499    -2292629.200 5  -1543217.884 5
  20509447.929    -4806286.221 6  -3674376.512 7
  19889258.788   -21482599.575 6
  20495604.241   -16473478.404 6  -9068662.733 6
  18986426.023   -29960664.265 7 -21780847.380 6
  19500582.444   -24366078.932 7
 94  2 20  3  0 29.9950000  0  8  2 24  5  7  9 12 13  4
  21085823.741       30770.548 6     47828.239 6
  20939402.499   -11564878.255 6  -8806659.827 6
  22311821.999    -2397014.118 5  -1624556.724 4
  20517740.226    -4762706.115 6  -3640417.973 7
  19875838.593   -21553117.084 6
  20476930.444   -16571593.853 6  -9145116.304 6
  18983634.382   -29975335.653 7 -21792279.617 6
  19487167.694   -24436591.173 7
 94  2 20  3  0 59.9950000  0  8  2 24  5  7  9 12 13  4
  21092741.882       67132.690 6     76162.378 6
  20916819.679   -11683554.365 6  -8899134.677 6
  22291966.202    -2501369.198 5  -1705872.268 5
  20526060.374    -4718984.930 6  -3606349.504 7
  19862517.976   -21623118.241 6
  20458318.569   -16669418.381 6  -9221343.172 6
  18980935.944   -29989511.882 7 -21803326.012 6
  19473849.530   -24506577.204 7
 94  2 20  3  1 29.9950000  0  8  2 24  5  7  9 12 13  4
  21099710.398      103758.620 6    104702.051 6
  20894286.882   -11801966.173 6  -8991403.547 6
  22272109.921    -2605695.579 5  -1787165.456 5
  20534406.437    -4675123.882 6  -3572172.052 7
  19849299.780   -21692589.370 6
  20439759.851   -16766946.542 6  -9297339.106 6
  18978332.108   -30003191.902 7 -21813985.748 6
  19460630.233   -24576033.324 7
 94  2 20  3  1 59.9950000  0  8  2 24  5  7  9 12 13  4
  21106729.491      140638.393 6    133439.532 6
  20871807.913   -11920109.543 6  -9083463.274 6
  22252270.226    -2710001.211 5  -1868442.467 5
  20542775.976    -4631142.472 6  -3537900.809 7
  19836177.757   -21761526.812 6
  20421252.476   -16864184.892 6  -9373109.214 6
  18975821.819   -30016386.471 7 -21824267.206 6
  19447511.390   -24644970.401 7
 94  2 20  3  2 29.9950000  0  8  2 24  5  7  9 12 13  4
  21113797.382      177777.087 6    162378.761 6
  20849372.983   -12037989.321 6  -9175317.599 6
  22232420.991    -2814306.186 5  -1949718.957 5
  20551169.280    -4587037.748 6  -3503533.474 7
  19823160.601   -21829934.591 6
  20402804.851   -16961130.680 6  -9448651.367 6
  18973403.491   -30029097.069 7 -21834171.549 6
  19434488.991   -24713389.938 7
 94  2 20  3  2 59.9950000  0  8  2 24  5  7  9 12 13  4
  21120916.171      215181.592 6    191525.125 6
  20826993.030   -12155599.845 6  -9266962.106 6
  22212563.108    -2918626.748 5  -2031007.598 5
  20559586.358    -4542800.902 6  -3469063.195 7
  19810242.093   -21897813.875 6
  20384413.218   -17057772.936 6  -9523956.973 6
  18971077.046   -30041317.250 7 -21843693.751 6
  19421577.085   -24781267.726 7
 94  2 20  3  3 59.9940000  0  8  2 24  5  7  9 12 13  4
  21135287.494      290702.886 6    250372.881 6
  20782389.838   -12389988.866 6  -9449602.805 6
  22172840.268    -3127349.731 5  -2193648.640 5
  20576487.377    -4453980.818 6  -3399852.708 7
  19784690.354   -22032103.564 6
  20347807.096   -17250146.528 6  -9673858.401 7
  18966703.182   -30064306.021 7 -21861607.031 6
  19396057.439   -24915366.755 7
 94  2 20  3  4 29.9940000  0  8  2 24  5  7  9 12 13  4
  21142535.041      328799.112 6    280058.252 6
  20760166.611   -12506783.864 6  -9540611.849 6
  22152975.158    -3231759.540 5  -2275006.780 5
  20584973.283    -4409401.137 6  -3365115.285 7
  19772048.361   -22098536.851 6        -0.04118
  20329590.580   -17345881.170 6  -9748456.799 6
  18964652.322   -30075083.692 7 -21870005.201 6
  19383459.010   -24981578.839 7 -19369449.502 9
 94  2 20  3  4 59.9940000  0  8  2 24  5  7  9 12 13  4
  21149829.736      367123.795 6    309921.624 6
  20737994.963   -12623283.846 6  -9631391.000 6
  22133102.971    -3336192.565 5  -2356383.029 5
  20593474.557    -4364715.568 6  -3330295.345 7
  19759494.588   -22164491.307 6    -51393.099 8
  20311430.104   -17441307.128 6  -9822814.659 6
  18962693.283   -30085383.192 7 -21878030.764 6
  19370964.158   -25047230.054 7 -19420606.253 9
 94  2 20  3  5 29.9940000  0  8  2 24  5  7  9 12 13  4
  21157168.799      405676.283 6    339962.516 6
  20715884.854   -12739479.140 6  -9721932.740 6
  22113227.096    -3440642.623 5  -2437772.563 5
  20601997.971    -4319923.189 6  -3295392.178 7
  19747039.299   -22229952.441 6   -102401.761 8
  20293328.299   -17536426.541 6  -9896933.647 7
  18960822.854   -30095211.172 7 -21885688.908 6
  19358575.158   -25112337.473 7 -19471339.276 9
 94  2 20  3  5 59.9940000  0  8  2 24  5  7  9 12 13  4
  21164547.346      444462.274 6    370185.368 6
  20693835.541   -12855367.103 6  -9812235.004 6
  22093352.502    -3545090.213 5  -2519160.168 5
  20610545.775    -4275000.495 6  -3260387.451 7
  19734688.346   -22294886.520 6   -152999.733 8
  20275283.869   -17631232.877 6  -9970808.679 7
  18959043.729   -30104565.388 7 -21892977.886 6
  19346290.908   -25176894.065 7 -19521643.093 9
 94  2 20  3  6 29.9940000  0  8  2 24  5  7  9 12 13  4
  21171973.385      483493.199 6    400599.079 6
  20671840.494   -12970932.704 6  -9902286.068 6
  22073483.689    -3649526.310 5  -2600538.824 5
  20619120.791    -4229945.641 6  -3225279.763 7
  19722429.424   -22359288.479 6   -203183.060 8
  20257308.955   -17725724.528 6 -10044438.503 7
  18957353.604   -30113448.588 7 -21899899.840 6
  19334111.408   -25240900.702 7 -19571518.369 9
 94  2 20  3  6 59.9940000  0  8  2 24  5  7  9 12 13  4
  21179449.182      522776.906 6    431209.757 6
  20649907.705   -13086172.677 6  -9992083.403 6
  22053613.440    -3753946.310 5  -2681904.961 5
  20627719.768    -4184757.266 6  -3190068.022 7
  19710277.479   -22423138.478 6   -252936.284 8
  20239389.471   -17819893.907 6 -10117817.208 7
  18955752.127   -30121857.645 7 -21906452.333 6
  19322038.393   -25304352.581 7 -19620961.356 9
 94  2 20  3  7 29.9940000  0  8  2 24  5  7  9 12 13  4
  21186969.432      562308.078 6    462013.255 6
  20628039.674   -13201116.500 6 -10081649.965 7
  22033742.025    -3858341.243 5  -2763251.545 5
  20636340.424    -4139438.776 6  -3154754.899 7
  19698230.877   -22486441.109 6   -302262.998 8
  20221530.440   -17913740.197 6 -10190944.162 7
  18954240.416   -30129796.306 7 -21912638.292 6
  19310069.580   -25367240.213 7 -19669964.677 9
 94  2 20  3  7 59.9940000  0  8  2 24  5  7  9 12 13  4
  21194545.697      602103.156 6    493022.399 6
  20606219.143   -13315775.062 6 -10170994.243 7
  22013879.893    -3962707.382 5  -2844575.718 5
  20644989.736    -4093998.736 6  -3119347.059 7
  19686287.330   -22549211.733 6   -351175.152 8
  20203734.861   -18007256.239 6 -10263813.764 7
  18952820.479   -30137261.723 7 -21918455.477 6
  19298207.666   -25429554.526 7 -19718521.257 9
 94  2 20  3  8 29.9940000  0  8  2 24  5  7  9 12 13  4
  21202165.760      642158.310 6    524234.206 6
  20584456.252   -13430154.747 6 -10260121.234 7
  21994025.861    -4067069.119 5  -2925896.470 5
  20653652.057    -4048477.409 6  -3083875.878 7
  19674438.744   -22611471.466 6   -399689.218 8
  20186001.525   -18100448.667 6 -10336431.212 7
  18951485.869   -30144264.959 7 -21923912.524 6
  19286459.557   -25491315.395 7 -19766646.587 9
 94  2 20  3  8 59.9940000  0  8  2 24  5  7  9 12 13  4
  21209837.268      682467.985 6    555644.341 6
  20562737.588   -13544268.272 6 -10349040.810 6
  21974164.619    -4171435.452 5  -3007220.789 5
  20662328.416    -4002884.692 6  -3048349.069 7
  19662685.424   -22673236.696 6   -447817.952 8
  20168328.221   -18193319.324 6 -10408797.936 7
  18950241.994   -30150812.667 7 -21929014.620 6
  19274809.752   -25552533.366 7 -19814348.867 9
 94  2 20  3  9 29.9940000  0  8  2 24  5  7  9 12 13  4
  21217556.197      723040.105 6    587258.969 6
  20541076.158   -13658101.842 6 -10437742.243 7
  21954302.330    -4275794.633 5  -3088539.562 5
  20671020.893    -3957206.922 6  -3012755.987 7
  19651026.447   -22734509.100 6   -495562.661 8
  20150718.822   -18285859.223 6 -10480906.920 7
  18949085.150   -30156900.172 7 -21933758.109 6
  19263261.268   -25613198.985 7 -19861620.749 9
 94  2 20  3  9 59.9940000  0  8  2 24  5  7  9 12 13  4
  21225327.885      763867.525 6    619072.535 6
  20519478.158   -13771632.369 6 -10526207.546 7
  21934445.268    -4380157.537 5  -3169861.224 5
  20679729.197    -3911441.213 6  -2977094.385 7
  19639459.057   -22795281.389 6   -542917.680 8
  20133169.971   -18378064.705 6 -10552755.312 7
  18948011.627   -30162528.248 7 -21938143.609 7
  19251825.080   -25673324.104 7 -19908471.464 9
 94  2 20  3 10 29.9940000  0  8  2 24  5  7  9 12 13  4
  21233139.354      804938.833 6    651076.143 6
  20497930.869   -13884836.834 6 -10614418.765 7
  21914588.604    -4484521.630 5  -3251183.796 5
  20688459.080    -3865581.403 6  -2941359.447 7
  19627992.635   -22855545.995 6   -589877.093 8
  20115690.541   -18469929.443 6 -10624338.194 7
  18947028.244   -30167695.032 7 -21942169.657 7
  19240482.775   -25732910.814 7 -19954902.643 9
 94  2 20  3 10 59.9940000  0  8  2 24  5  7  9 12 13  4
  21241004.307      846254.467 6    683270.125 6
  20476451.940   -13997718.183 6 -10702378.199 7
  21894726.705    -4588878.178 5  -3332500.502 5
  20697206.440    -3819602.690 6  -2905531.866 7
  19616623.377   -22915294.773 6   -636434.557 8
  20098273.721   -18561451.653 6 -10695654.178 7
  18946132.416   -30172403.489 7 -21945838.566 7
  19229249.799   -25791950.726 7 -20000907.733 9
 94  2 20  3 11 29.9940000  0  8  2 24  5  7  9 12 13  4
  21248909.690      887798.645 5    715642.197 6
  20455030.924   -14110269.209 6 -10790080.262 7
  21874865.252    -4693232.106 5  -3413815.177 5
  20705980.986    -3773504.869 6  -2869611.481 7
  19605356.877   -22974515.657 6   -682580.691 8
  20080923.268   -18652635.560 6 -10766706.551 7
  18945323.963   -30176662.481 7 -21949157.245 6
  19218117.963   -25850441.357 7 -20046484.818 9
 94  2 20  3 11 59.9940000  0  8  2 24  5  7  9 12 13  4
  21256860.713      929578.360 6    748197.804 6
  20433675.002   -14222481.010 6 -10877517.973 7
  21855012.268    -4797583.803 5  -3495128.116 5
  20714774.557    -3727286.017 6  -2833596.784 7
  19594187.963   -23033199.628 6   -728308.435 8
  20063636.143   -18743472.894 6 -10837488.848 7
  18944596.635   -30180467.979 7 -21952122.543 6
  19207097.041   -25908370.743 7 -20091624.563 9
 94  2 20  3 12 29.9940000  0  8  2 24  5  7  9 12 13  4
  21264858.908      971608.332 6    780948.436 6
  20412389.385   -14334360.881 6 -10964697.040 7
  21835155.877    -4901923.022 5  -3576431.323 5
  20723589.369    -3680945.942 6  -2797487.613 7
  19583124.268   -23091338.937 6   -773611.770 8
  20046416.135   -18833961.735 6 -10907999.621 7
  18943962.369   -30183822.866 7 -21954736.733 7
  19196179.643   -25965722.735 7 -20136314.404 9
 94  2 20  3 12 59.9940000  0  8  2 24  5  7  9 12 13  4
  21272904.736     1013895.684 6    813899.604 6
  20391162.275   -14445910.212 6 -11051618.565 7
  21815302.182    -5006246.920 5  -3657722.586 5
  20732432.557    -3634481.209 6  -2761281.319 7
  19572165.611   -23148925.111 6   -818484.100 8
  20029261.080   -18924100.090 6 -10978237.277 7
  18943407.775   -30186729.623 7 -21957001.717 7
  19185378.416   -26022493.043 7 -20180550.977 9
 94  2 20  3 13 29.9940000  0  8  2 24  5  7  9 12 13  4
  21280999.580     1056435.412 5    847047.439 6
  20369998.479   -14557126.323 6 -11138280.425 7
  21795450.682    -5110556.633 5  -3739002.802 5
  20741296.627    -3587911.843 6  -2724993.480 7
  19561314.549   -23205958.609 6   -862925.769 8
  20012176.713   -19013881.953 6 -11048197.140 7
  18942939.361   -30189186.786 7 -21958916.379 7
  19174684.643   -26078685.124 7 -20224336.987 9
 94  2 20  3 13 59.9940000  0  8  2 24  5  7  9 12 13  4
  21289146.111     1099228.758 6    880392.877 6
  20348899.736   -14668019.848 6 -11224690.931 7
  21775605.565    -5214851.966 5  -3820271.809 5
  20750172.127    -3541258.595 6  -2688640.292 7
  19550557.619   -23262449.060 6   -906944.275 8
  19995162.361   -19103306.658 6 -11117878.699 7
  18942555.690   -30191198.398 7 -21960483.855 7
  19164103.744   -26134308.066 7 -20267679.510 9
 94  2 20  3 14 29.9940000  0  8  2 24  5  7  9 12 13  4
  21297331.533     1142263.050 6    913926.089 6
  20327850.135   -14778589.010 6 -11310848.676 7
  21755764.221    -5319129.107 5  -3901526.646 5
  20759063.971    -3494531.414 6  -2652229.489 7
  19539918.002   -23318392.621 6   -950536.642 8
  19978213.799   -19192371.223 6 -11187279.641 7
  18942256.369   -30192765.737 7 -21961705.149 7
  19153623.283   -26189370.781 7 -20310585.496 9
 94  2 20  3 14 59.9940000  0  8  2 24  5  7  9 12 13  4
  21305563.424     1185517.728 5    947631.028 6
  20306878.893   -14888829.463 6 -11396750.290 7
  21735922.760    -5423399.927 5  -3982776.551 5
  20767968.494    -3447734.330 6  -2615764.223 7
  19529371.690   -23373794.773 6   -993707.128 8
  19961333.072   -19281075.623 6 -11256399.934 7
  18942041.885   -30193893.905 7 -21962584.223 6
  19143250.666   -26243879.282 7 -20353059.621 9
 94  2 20  3 15 29.9940000  0  8  2 24  5  7  9 12 13  4
  21313835.143     1228991.494 5    981506.663 6
  20285963.479   -14998739.752 6 -11482394.646 7
  21716079.010    -5527663.892 5  -4064021.132 5
  20776888.510    -3400870.767 6  -2579247.152 7
  19518932.424   -23428655.150 6  -1036455.455 9
  19944523.807   -19369416.721 6 -11325237.128 7
  18941913.736   -30194584.232 7 -21963122.126 6
  19132986.213   -26297814.236 7 -20395086.838 9
 94  2 20  3 15 59.9940000  0  8  2 24  5  7  9 12 13  4
  21322157.096     1272704.962 5   1015569.078 5
  20265111.463   -15108301.900 6 -11567767.701 7
  21696241.736    -5631915.909 5  -4145256.386 5
  20785822.049    -3353922.081 6  -2542663.748 7
  19508601.244   -23482960.078 6  -1078770.962 9
  19927780.307   -19457390.096 6 -11393787.787 7
  18941864.143   -30194836.727 7
  19122835.440   -26351162.835 7 -20436657.148 9
 94  2 20  3 16 29.9940000  0  8  2 24  5  7  9 12 13  4
  21330520.854     1316667.854 5   1049825.870 5
  20244332.049   -15217502.583 6 -11652859.115 7
  21676399.494    -5736158.815 5  -4226484.556 5
  20794772.291    -3306874.941 6  -2506003.621 7
  19498371.885   -23536701.427 6  -1120647.327 8
  19911113.268   -19544992.499 7 -11462049.383 7
  18941899.783   -30194652.819 7
  19112796.627   -26403920.487 7 -20477766.978 9
 94  2 20  3 16 59.9940000  0  8  2 24  5  7  9 12 13  4
  21338937.322     1360899.129 5   1084291.798 6
  20223623.135   -15326337.132 6 -11737665.220 7
  21656570.361    -5840382.407 5  -4307697.679 5
  20803743.104    -3259725.149 6  -2469263.517 7
  19488252.283   -23589883.639 6  -1162087.997 8
  19894514.307   -19632220.635 6 -11530019.333 7
  18942019.900   -30194033.804 7 -21962693.181 7
  19102867.291   -26456084.245 7 -20518414.042 9
 94  2 20  3 17 29.9940000  0  8  2 24  5  7  9 12 13  4
  21347407.744     1405407.617 5   1118973.736 5
  20202979.205   -15434806.242 6 -11822186.575 7
  21636747.494    -5944576.469 5  -4388887.765 5
  20812734.439    -3212484.955 6  -2432452.967 7
  19478241.658   -23642505.509 6  -1203092.031 8
  19877984.807   -19719077.306 6 -11597699.840 7
  18942216.705   -30192987.318 7 -21961877.727 7
  19093050.822   -26507667.687 7 -20558608.901 9
 94  2 20  3 17 59.9940000  0  8  2 24  5  7  9 12 13  4
  21355932.549     1450200.991 5   1153877.647 5
  20182409.315   -15542905.416 6 -11906419.669 7
  21616924.736    -6048740.123 5  -4470054.173 5
  20821744.166    -3165147.776 6  -2395566.846 7
  19468331.049   -23694566.652 6  -1243659.139 8
  19861527.955   -19805557.761 6 -11665087.189 7
  18942498.346   -30191513.169 7 -21960729.028 7
  19083343.205   -26558695.039 7 -20598370.466 9
 94  2 20  3 18 29.9940000  0  8  2 24  5  7  9 12 13  4
  21364508.229     1495254.598 5   1188984.345 6
  20161907.182   -15650653.188 6 -11990378.934 7
  21597107.557    -6152876.393 5  -4551199.256 5
  20830771.150    -3117724.800 6  -2358613.879 7
  19458528.463   -23746088.999 6  -1283806.414 8
  19845143.549   -19891664.520 6 -11732183.334 7
  18942861.096   -30189618.207 7 -21959252.422 7
  19073736.674   -26609172.963 7 -20637703.881 9
 94  2 20  3 18 59.9940000  0  8  2 24  5  7  9 12 13  4
  21373125.432     1540557.130 5   1224285.010 6
  20141466.486   -15758048.073 6 -12074063.231 7
  21577296.322    -6256976.194 5  -4632315.929 5
  20839807.971    -3070215.145 6  -2321593.363 7
  19448827.861   -23797072.262 6  -1323533.611 8
  19828831.666   -19977389.646 6 -11798982.119 7
  18943301.791   -30187299.747 7 -21957445.811 7
  19064235.690   -26659095.355 7 -20676604.420 9
 94  2 20  3 19 29.9940000  0  8  2 24  5  7  9 12 13  4
  21381793.104     1586100.051 5   1259772.983 6
  20121100.127   -15865084.352 6 -12157468.079 7
  21557494.010    -6361041.734 5  -4713405.870 5
  20848867.408    -3022602.169 6  -2284492.329 7
  19439226.385   -23847511.688 6  -1362837.054 8
  19812592.440   -20062723.350 6 -11865475.892 7
  18943820.869   -30184552.080 7 -21955304.764 6
  19054845.455   -26708458.430 7 -20715069.135 9
 94  2 20  3 19 59.9940000  0  8  2 24  5  7  9 12 13  4
  21390501.174     1631870.126 5   1295437.970 6
  20100797.111   -15971774.658 6 -12240603.349 7
  21537692.955    -6465088.536 5  -4794481.226 5
  20857947.143    -2974889.861 6  -2247313.902 6
  19429726.861   -23897428.435 6  -1401733.217 8
  19796428.916   -20147666.612 7 -11931665.427 7
  18944424.510   -30181381.244 7 -21952833.971 7
  19045557.221   -26757258.771 7 -20753095.351 9
 94  2 20  3 20 29.9940000  0  8  2 24  5  7  9 12 13  4
  21399252.463     1677850.918 5   1331267.142 5
  20080564.736   -16078125.128 6 -12323473.817 7
  21517896.861    -6569115.431 5  -4875541.080 5
  20867044.268    -2927099.341 6  -2210074.533 7
  19420331.088   -23946817.276 6  -1440218.013 8
  19780336.744   -20232219.697 7 -11997550.933 7
  18945107.315   -30177792.171 7 -21950037.280 7
  19036381.400   -26805481.107 7 -20790671.184 9
 94  2 20  3 20 59.9940000  0  8  2 24  5  7  9 12 13  4
  21408044.775     1724054.317 5   1367269.777 5
  20060388.627   -16184122.410 6 -12406069.060 7
  21498107.971    -6673119.400 5  -4956583.056 5
  20876151.236    -2879236.833 6  -2172779.070 7
  19411033.166   -23995674.238 6  -1478288.371 8
  19764321.916   -20316379.908 7 -12063130.299 7
  18945870.471   -30173786.597 7 -21946916.041 7
  19027311.510   -26853132.822 7 -20827802.371 9
 94  2 20  3 21 29.9940000  0  8  2 24  5  7  9 12 13  4
  21416886.525     1770505.108 5   1403465.193 5
  20040288.955   -16289763.858 6 -12488387.039 7
  21478319.260    -6777100.141 5  -5037606.943 5
  20885273.213    -2831303.827 6  -2135428.667 6
  19401837.283   -24043992.110 6  -1515938.645 9
  19748382.690   -20400145.958 6 -12128402.527 7
  18946711.096   -30169368.071 7 -21943473.017 7
  19018354.494   -26900215.536 7 -20864490.172 9
 94  2 20  3 21 59.9940000  0  8  2 24  5  7  9 12 13  4
  21425771.533     1817211.151 5   1439859.492 5
  20020254.158   -16395041.925 6 -12570421.854 7
  21458533.799    -6881050.769 5  -5118607.365 5
  20894404.080    -2783327.613 6  -2098044.590 7
  19392746.752   -24091758.604 6  -1553159.291 9
  19732517.291   -20483518.255 6 -12193367.933 7
  18947630.244   -30164541.826 7 -21939712.300 7
  19009505.229   -26946716.024 7 -20900724.301 9
 94  2 20  3 22 29.9940000  0  8  2 24  5  7  9 12 13  4
  21434711.791     1864185.064 5   1476462.516 5
  20000290.111   -16499945.830 6 -12652165.123 7
  21438765.440    -6984966.311 5  -5199580.425 5
  20903540.346    -2735306.736 6  -2060625.727 6
  19383766.088   -24138959.442 6  -1589939.153 8
  19716727.697   -20566494.484 7 -12258024.714 7
  18948624.986   -30159309.904 7 -21935635.468 7
  19000765.846   -26992636.681 7 -20936506.609 9
 94  2 20  3 22 59.9940000  0  8  2 24  5  7  9 12 13  4
  21443699.838     1911432.344 5   1513278.544 6
  19980403.830   -16604463.769 6 -12733607.630 7
  21418998.205    -7088842.881 5  -5280523.147 5
  20912689.143    -2687227.429 6  -2023161.311 6
  19374894.275   -24185589.754 6  -1626274.451 9
  19701009.291   -20649071.611 6 -12322370.491 7
  18949696.377   -30153673.868 7 -21931243.737 7
  18992135.221   -27037989.159 7 -20971846.193 9
 94  2 20  3 23 29.9940000  0  8  2 24  5  7  9 12 13  4
  21452742.486     1958944.837 5   1550301.262 5
  19960583.791   -16708605.282 6
  21399240.893    -7192679.332 5
  20921852.572    -2639087.930 6  -1985650.000 6
  19366134.525   -24231627.484 6  -1662148.004 8
  19685374.314   -20731242.935 7 -12386400.088 7
  18950847.752   -30147632.084 7 -21926535.843 7
  18983617.330   -27082752.157 7 -21006726.430 9
 94  2 20  3 23 59.9940000  0  8  2 24  5  7  9 12 13  4
  21461829.268     2006693.680 5   1587508.157 5
  19940835.072   -16812378.775 6
  21379483.697    -7296478.460 5
  20931021.736    -2590893.029 6  -1948095.527 6
  19357484.346   -24277081.985 6  -1697567.095 8
  19669816.065   -20813010.755 7 -12450115.250 7
  18952071.088   -30141191.337 7 -21921517.070 7
  18975209.650   -27126924.336 7 -21041146.302 9
 94  2 20  3 24 29.9940000  0  8  2 24  5  7  9 12 13  4
  21470958.557     2054671.925 5   1624893.791 5
  19921158.658   -16915788.378 6 -12976198.135 7
  21359736.486    -7400240.182 5  -5430688.713 5
  20940205.494    -2542620.402 6  -1910480.493 6
  19348945.463   -24321949.366 6  -1732528.671 9
  19654334.315   -20894371.074 7 -12513512.888 7
  18953373.315   -30134352.470 7 -21916188.076 7
  18966920.236   -27170511.178 7 -21075110.054 9
 94  2 20  3 24 59.9940000  0  8  2 24  5  7  9 12 13  4
  21480130.010     2102867.522 5
  19901552.174   -17018824.467 6 -13056485.957 7
  21339997.627    -7503966.121 5  -5511514.079 5
  20949407.729    -2494271.584 6
  19340517.799   -24366230.844 6  -1767033.715 8
  19638928.650   -20975320.257 6 -12576590.150 7
  18954751.822   -30127116.121 7 -21910549.347 7
  18958737.354   -27213500.437 7 -21108608.155 9
 94  2 20  3 25 29.9940000  0  8  2 24  5  7  9 12 13  4
  21489345.533     2151286.740 5
  19882017.119   -17121480.376 6 -13136477.541 7
  21320265.150    -7607658.227 5  -5592313.077 5
  20958619.635    -2445850.060 6
  19332200.252   -24409940.693 6  -1801093.324 8
  19623606.416   -21055854.966 7 -12639344.459 7
  18956205.416   -30119484.078 7 -21904602.286 7
  18950672.119   -27255882.193 7 -21141632.879 9
 94  2 20  3 25 59.9940000  0  8  2 24  5  7  9 12 13  4
  21498605.846     2199940.716 5   1738090.183 5
  19862561.588   -17223726.365 6 -13216149.698 7
  21300546.338    -7711314.634 5  -5673084.237 5
  20967849.650    -2397347.673 6  -1797280.941 6
  19323987.510   -24453094.603 6  -1834719.736 8
  19608357.041   -21135973.793 7 -12701774.687 7
  18957731.455   -30111459.265 7 -21898349.167 7
  18942719.111   -27297669.326 7 -21174194.266 9
 94  2 20  3 26 29.9940000  0  8  2 24  5  7  9 12 13  4
  21507903.932     2248840.333 5   1776193.746 5
  19843182.369   -17325545.462 6 -13295489.227 8
  21280823.158    -7814936.544 5  -5753828.533 5
  20977095.947    -2348766.425 6  -1759425.422 6
  19315881.369   -24495696.272 6  -1867915.833 8
  19593192.244   -21215671.885 7 -12763877.089 7
  18959332.697   -30103041.762 7 -21891790.071 7
  18934880.525   -27338864.757 7 -21206294.577 9
 94  2 20  3 26 59.9940000  0  8  2 24  5  7  9 12 13  4
  21517259.775     2297980.503 5   1814484.760 5
  19823889.330   -17426933.182 6 -13374492.612 7
  21261110.213    -7918528.363 5  -5834549.395 5
  20986355.033    -2300113.734 6  -1721514.238 6
  19307876.065   -24537764.905 6  -1900696.578 9
  19578109.627   -21294947.482 7 -12825650.267 8
  18961006.838   -30094234.322 7 -21884927.114 7
  18927153.596   -27379468.967 7 -21237934.203 9
 94  2 20  3 27 29.9940000  0  8  2 24  5  7  9 12 13  4
  21526653.486     2347363.993 5   1852965.388 5
  19804677.330   -17527902.565 6 -13453170.018 8
  21241403.588    -8022089.883 5  -5915246.646 5
  20995622.393    -2251386.240 6  -1683544.761 6
  19299974.205   -24579308.788 6  -1933068.426 9
  19563100.986   -21373803.103 7 -12887096.193 8
  18962756.416   -30085044.222 7 -21877765.986 7
  18919538.690   -27419489.733 7 -21269119.193 9
 94  2 20  3 27 59.9940000  0  8  2 24  5  7  9 12 13  4
  21536101.166     2396986.646 5   1891632.393 5
  19785538.705   -17628468.696 6 -13531533.199 7
  21221702.322    -8125620.156 5  -5995919.542 5
  21004911.197    -2202587.831 6  -1645520.021 6
  19292172.275   -24620310.465 6  -1965017.778 9
  19548174.846   -21452237.862 7 -12948214.176 8
  18964577.838   -30075475.208 7 -21870309.601 7
  18912035.346   -27458921.741 7 -21299845.415 9
 94  2 20  3 28 29.9940000  0  8  2 24  5  7  9 12 13  4
  21545589.861     2446848.377 5   1930485.666 5
  19766477.182   -17728645.700 6 -13609593.172 7
  21202008.049    -8229111.257 5  -6076561.921 5
  21014208.830    -2153718.672 6  -1607440.159 6
  19284473.744   -24660754.279 6  -1996532.436 9
  19533331.252   -21530241.429 7 -13008996.162 8
  18966472.564   -30065521.705 7 -21862553.609 7
  18904643.565   -27497749.081 7 -21330100.450 9
 94  2 20  3 28 59.9940000  0  8  2 24  5  7  9 12 13  4
  21555124.291     2496949.555 5   1969525.531 5
  19747485.221   -17828447.450 6 -13687360.746 8
  21182326.588    -8332563.866 5  -6157174.296 5
  21023521.846    -2104784.755 6  -1569309.826 6
  19276884.400   -24700633.249 6  -2027606.943 9
  19518566.197   -21607815.674 6 -13069443.613 8
  18968438.939   -30055190.123 7 -21854503.016 7
  18897370.229   -27535978.958 7 -21359889.952 9
 94  2 20  3 29 29.9940000  0  8  2 24  5  7  9 12 13  4
  21564702.486     2547309.177 5   2008766.766 5
  19728563.643   -17927868.180 6 -13764831.407 8
  21162648.432    -8435960.216 5  -6237742.850 5
  21032846.369    -2055787.248 6  -1531129.953 6
  19269404.104   -24739927.387 6  -2058225.747 9
  19503889.916   -21684953.785 7 -13129551.221 8
  18970474.682   -30044478.482 7 -21846156.267 7
  18890209.736   -27573614.923 7 -21389216.656 9
 94  2 20  3 29 59.9940000  0  8  2 24  5  7  9 12 13  4
  21574336.502     2597921.483 5   2048204.900 5
  19709722.604   -18026903.857 6 -13842002.036 8
  21142984.143    -8539296.241 5  -6318264.392 6
  21042179.283    -2006746.423 6  -1492916.322 6
  19262039.369   -24778631.282 6  -2088384.618 9
  19489294.580   -21761657.085 7 -13189320.010 8
  18972585.455   -30033392.436 7 -21837517.783 7
  18883158.143   -27610670.678 7 -21418091.248 9
 94  2 20  3 30 29.9940000  0  8  2 24  5  7  9 12 13  4
  21584013.908     2648776.009 5   2087831.785 5
  19690948.463   -18125540.650 6 -13918861.842 8
  21123328.815    -8642576.540 5  -6398742.498 5
  21051517.502    -1957667.963 6  -1454673.354 6
  19254784.080   -24816759.838 6  -2118095.172 9
  19474779.213   -21837926.385 6 -13248750.622 8
  18974766.518   -30021937.858 7 -21828592.126 7
  18876213.346   -27647166.241 7 -21446529.329 9
 94  2 20  3 30 59.9940000  0  8  2 24  5  7  9 12 13  4
  21593739.096     2699873.953 5   2127648.333 5
  19672259.752   -18223764.312 6 -13995399.737 7
  21103687.549    -8745798.021 5  -6479174.798 5
  21060866.080    -1908549.293 6  -1416399.065 6
  19247638.658   -24854304.619 6  -2147350.837 8
  19460348.190   -21913755.799 6 -13307838.461 8
  18977017.861   -30010113.215 7 -21819378.109 7
  18869374.580   -27683110.890 7 -21474538.127 9
 94  2 20  3 31 29.9940000  0  8  2 24  5  7  9 12 13  4
  21603503.900     2751212.963 5   2167652.760 5
  19653650.689   -18321559.359 6 -14071603.631 8
  21084058.510    -8848956.484 5  -6559557.967 6
  21070222.838    -1859386.807 6  -1378090.639 6
  19240607.205   -24891256.869 6  -2176144.795 9
  19446005.893   -21989140.016 7 -13366579.402 8
  18979335.869   -29997918.270 7 -21809875.544 7
  18862640.822   -27718495.228 7 -21502110.326 9
 94  2 20  3 31 59.9940000  0  8  2 24  5  7  9 12 13  4
  21613318.010     2802777.393 5   2207832.807 5
  19635120.080   -18418931.694 6 -14147478.156 8
  21064435.150    -8952069.836 5  -6639905.999 6
  21079586.736    -1810175.470 6  -1339744.136 6
  19233686.510   -24927624.279 6  -2204483.028 8
  19431744.815   -22064078.425 6 -13424972.954 8
  18981726.135   -29985356.610 7 -21800087.223 7
  18856017.338   -27753306.820 7 -21529236.224 9
 94  2 20  3 32 29.9940000  0  8  2 24  5  7  9 12 13  4
  21623171.783     2854567.047 5   2248188.368 5
  19616671.119   -18515881.847 6 -14223023.700 8
  21044821.963    -9055148.076 5  -6720226.655 6
  21088963.393    -1760898.793 6  -1301346.727 6
  19226879.416   -24963409.853 6  -2232367.887 9
  19417573.002   -22138563.392 7 -13483013.175 8
  18984185.541   -29972425.392 7 -21790010.942 7
  18849503.705   -27787534.252 7 -21555906.932 9
 94  2 20  3 32 59.9940000  0  8  2 24  5  7  9 12 13  4
  21633073.565     2906585.218 5   2288721.966 5
  19598297.096   -18612418.191 6 -14298246.787 8
  21025211.088    -9158196.587 5  -6800524.152 6
  21098353.221    -1711560.372 6  -1262901.207 6
  19220176.916   -24998617.681 6  -2259802.554 9
  19403484.971   -22212600.478 7 -13540704.401 8
  18986714.807   -29959134.762 7 -21779654.602 7
  18843100.018   -27821177.429 7 -21582122.372 9
 94  2 20  3 33 29.9940000  0  8  2 24  5  7  9 12 13  4
  21643014.596     2958832.377 5   2329434.016 5
  19580007.065   -18708544.962 6 -14373150.745 8
  21005607.432    -9261202.398 5  -6880788.380 6
  21107751.252    -1662154.118 6  -1224402.822 6
  19213585.408   -25033262.246 6  -2286798.311 8
  19389479.424   -22286184.450 7 -13598042.543 8
  18989314.361   -29945484.119 7 -21769017.728 7
  18836815.799   -27854213.517 7 -21607864.766 9
 94  2 20  3 33 59.9940000  0  8  2 24  5  7  9 12 13  4
  21652998.830     3011298.712 5   2370316.852 5
  19561789.838   -18804270.496 6 -14447742.042 8
  20986015.674    -9364159.758 5  -6961014.857 6
  21117164.979    -1612690.065 5  -1185859.405 6
  19207097.822   -25067356.847 6  -2313365.519 8
  19375563.190   -22359316.119 7 -13655028.250 8
  18991978.580   -29931478.837 7 -21758104.507 7
  18830641.869   -27886648.560 7 -21633138.803 9
 94  2 20  3 34 29.9940000  0  8  2 24  5  7  9 12 13  4
  21663030.135     3063994.371 5   2411378.385 5
  19543652.291   -18899577.685 6 -14522007.362 8
  20966435.518    -9467057.403 5  -7041194.806 6
  21126586.635    -1563180.019 6  -1147280.152 6
  19200717.432   -25100890.723 6  -2339495.813 9
  19361733.525   -22431994.576 7 -13711660.804 8
  18994710.947   -29917122.670 7 -21746917.873 7
  18824581.330   -27918494.124 7 -21657953.511 9
 94  2 20  3 34 59.9940000  0  8  2 24  5  7  9 12 13  4
  21673095.455     3116927.369 5   2452624.867 5
  19525600.002   -18994453.175 6 -14595936.279 8
  20946867.377    -9569875.240 5  -7121312.565 6
  21136022.877    -1513620.903 6  -1108662.663 6
  19194446.486   -25133859.483 6  -2365185.748 9
  19347990.135   -22504210.373 7 -13767932.832 8
  18997510.440   -29902410.927 7 -21735454.170 7
  18818635.768   -27949734.646 7 -21682296.754 9
 94  2 20  3 35 29.9940000  0  8  2 24  5  7  9 12 13  4
  21683216.736     3170091.988 5   2494051.803 5
  19507630.752   -19088901.409 6 -14669532.286 8
  20927315.971    -9672617.901 5  -7201371.732 6
  21145456.080    -1464023.670 5  -1070015.475 6
  19188279.440   -25166265.764 6  -2390437.388 9
  19334334.283   -22575970.001 7 -13823849.414 8
  19000375.385   -29887354.584 7 -21723721.952 7
  18812801.947   -27980385.646 7 -21706180.636 9
 94  2 20  3 36 29.9930000  0  8  2 24  5  7  9 12 13  4
  21703600.724     3277200.121 5   2577512.646 2
  19471946.052   -19276432.622 6 -14815660.436 8
  20888249.067    -9877907.731 5  -7361337.773 6
  21164361.364    -1364679.062 6   -992604.102 6
  19176279.778   -25229302.474 6  -2439556.901 9
  19307291.341   -22718093.312 7 -13934594.835 8
  19006304.060   -29856201.780 7 -21699447.018 7
  18801470.255   -28039941.047 7 -21752587.412 9
 94  2 20  3 36 59.9930000  0  8  2 24  5  7  9 12 13  4
  21713863.646     3331153.869 5   2619554.528 3
  19454232.153   -19369519.600 6 -14888195.722 8
  20868737.450    -9980466.507 5  -7441253.668 6
  21173829.872    -1314917.788 5   -953829.084 6
  19170446.989   -25259944.641 6  -2463433.901 8
  19293899.403   -22788457.281 7 -13989423.885 8
  19009366.489   -29840111.781 7 -21686909.353 7
  18795972.106   -28068836.648 7 -21775103.449 9
 94  2 20  3 37 29.9930000  0  8  2 24  5  7  9 12 13  4
  21724187.247     3385380.400 5   2661808.957 4
  19436601.942   -19462144.034 6 -14960370.583 8
  20849234.794   -10082966.695 5  -7521123.903 6
  21183312.349    -1265103.635 6   -915012.863 6
  19164731.864   -25289983.278 6  -2486840.624 9
  19280601.700   -22858346.630 7 -14043883.109 8
  19012493.364   -29823677.125 7 -21674103.117 7
  18790584.614   -28097139.531 7 -21797157.631 9
 94  2 20  3 37 59.9930000  0  8  2 24  5  7  9 12 13  4
  21734549.841     3439856.913 5   2704258.176 4
  19419061.849   -19554310.712 6 -15032188.744 8
  20829735.552   -10185417.204 6  -7600955.438 6
  21192800.185    -1215247.081 6   -876163.600 6
  19159127.528   -25319440.895 6  -2509794.609 9
  19267392.333   -22927765.176 7 -14097975.480 8
  19015685.771   -29806906.004 7 -21661034.701 7
  18785315.544   -28124830.621 7 -21818735.087 9
 94  2 20  3 38 29.9930000  0  8  2 24  5  7  9 12 13  4
  21744961.872     3494560.382 5   2746884.236 4
  19401608.169   -19646032.457 6 -15103660.218 8
  20810250.122   -10287815.403 6  -7680746.222 6
  21202291.716    -1165358.925 5   -837289.717 6
  19153632.239   -25348329.419 6  -2532305.148 9
  19254269.810   -22996712.375 7 -14151700.557 8
  19018938.200   -29789802.336 7 -21647707.163 7
  18780163.341   -28151909.105 7 -21839835.189 9
 94  2 20  3 38 59.9930000  0  8  2 24  5  7  9 12 13  4
  21755411.177     3549479.746 5   2789678.521 5
  19384241.427   -19737313.012 6 -15174787.890 8
  20790775.958   -10390154.216 5  -7760490.718 6
  21211791.599    -1115446.276 5   -798396.754 6
  19148246.896   -25376629.797 6  -2554357.385 9
  19241242.403   -23065178.930 7 -14205051.115 8
  19022259.021   -29772361.598 7 -21634116.962 7
  18775123.317   -28178384.290 7 -21860465.182 9
 94  2 20  3 39 29.9930000  0  8  2 24  5  7  9 12 13  4
  21765900.888     3604596.358 5   2832626.506 5
  19366952.653   -19828165.759 6 -15245582.225 8
  20771313.364   -10492444.988 6  -7840197.778 6
  21221294.021    -1065516.921 5   -759490.763 6
  19142967.989   -25404364.533 6  -2575968.869 9
  19228301.419   -23133172.645 6 -14258033.222 8
  19025638.333   -29754595.957 7 -21620273.603 7
  18770200.216   -28204269.450 7 -21880635.425 9
 94  2 20  3 39 59.9930000  0  8  2 24  5  7  9 12 13  4
  21776425.255     3659922.175 5   2875737.500 5
  19349742.200   -19918596.861 6 -15316047.982 8
  20751858.231   -10594670.619 6  -7919854.078 6
  21230798.927    -1015547.358 5   -720553.441 6
  19137796.466   -25431534.676 6  -2597140.401 9
  19215454.474   -23200685.948 7 -14310640.987 8
  19029079.521   -29736502.451 7 -21606174.755 7
  18765383.388   -28229579.153 7 -21900357.258 9
 94  2 20  3 40 29.9930000  0  8  2 24  5  7  9 12 13  4
  21786995.544     3715471.382 4   2919022.600 4
  19332612.333   -20008614.334 6 -15386191.445 8
  20732420.591   -10696815.026 6  -7999447.103 6
  21240315.271     -965535.377 5   -681583.073 6
  19132737.989   -25458123.218 6  -2617858.744 9
  19202701.036   -23267712.743 7 -14362869.647 8
  19032587.474   -29718079.230 7 -21591818.995 7
  18760673.005   -28254332.066 7 -21919645.229 9
 94  2 20  3 40 59.9930000  0  8  2 24  5  7  9 12 13  4
  21797614.646     3771257.127 5   2962491.979 5
  19315561.755   -20098207.919 6 -15456004.596 8
  20713002.950   -10798854.541 6  -8078958.389 6
  21249840.333     -915477.245 5   -642576.743 6
  19127788.271   -25484141.972 6  -2638133.096 9
  19190039.192   -23334248.739 7 -14414715.869 8
  19036156.466   -29699326.521 7 -21577206.489 7
  18756070.872   -28278513.662 7 -21938488.019 9
 94  2 20  3 41 29.9930000  0  8  2 24  5  7  9 12 13  4
  21808278.528     3827295.092 5   3006157.912 4
  19298594.739   -20187367.907 6 -15525479.893 8
  20693606.122   -10900780.416 6  -8158381.102 6
  21259376.521     -865372.969 5   -603534.454 6
  19122943.708   -25509596.026 6  -2657967.423 9
  19177470.724   -23400299.102 7 -14466183.674 8
  19039785.638   -29680254.271 7 -21562344.982 7
  18751579.521   -28302112.732 7 -21956876.885 9
 94  2 20  3 41 59.9930000  0  8  2 24  5  7  9 12 13  4
  21818991.450     3883589.847 5   3050023.939 4
  19281715.911   -20276080.361 6 -15594606.461 8
  20674229.263   -11002588.796 5  -8237712.295 6
  21268918.755     -815217.475 5   -564452.256 6
  19118208.286   -25534469.281 6  -2677349.172 9
  19164993.661   -23465858.254 7 -14517268.723 8
  19043474.349   -29660861.057 7 -21547233.377 7
  18747200.200   -28325128.017 7 -21974810.864 9
 94  2 20  3 42 29.9930000  0  8  2 24  5  7  9 12 13  4
  21829751.817     3940120.844 5   3094074.059 4
  19264921.810   -20364324.240 6 -15663367.898 8
  20654882.286   -11104287.278 6  -8316957.843 6
  21278468.966     -765026.968 5   -525342.772 6
  19113582.989   -25558774.732 6  -2696288.476 9
  19152612.208   -23530927.226 7 -14567971.809 8
  19047227.474   -29641152.579 7 -21531876.122 7
  18742937.310   -28347540.305 7 -21992274.971 9
 94  2 20  3 42 59.9930000  0  8  2 24  5  7  9 12 13  4
  21840548.622     3996881.235 5   3138302.915 4
  19248224.817   -20452078.212 6 -15731747.593 8
  20635547.356   -11205897.210 6  -8396134.367 6
  21288027.974     -714798.600 5   -486203.803 6
  19109068.724   -25582509.137 6  -2714782.819 9
  19140323.817   -23595506.510 7 -14618293.322 8
  19051035.028   -29621133.674 7 -21516276.964 7
  18738785.771   -28369354.739 7 -22009273.211 9
 94  2 20  3 43 29.9930000  0  8  2 24  5  7  9 12 13  4
  21851396.817     4053864.614 5   3182705.522 4
  19231616.817   -20539341.285 6 -15799744.747 8
  20616220.388   -11307441.233 6  -8475259.559 6
  21297595.747     -664522.983 5   -447027.998 5
  19104667.489   -25605644.024 6  -2732809.998 9
  19128129.591   -23659586.529 7 -14668225.794 8
  19054904.677   -29600799.187 7 -21500431.907 7
  18734744.771   -28390585.009 7 -22025816.273 9
 94  2 20  3 43 59.9930000  0  8  2 24  5  7  9 12 13  4
  21862275.981     4111040.959 5   3227258.485 5
  19215101.411   -20626130.585 6 -15867372.753 8
  20596911.091   -11408934.329 6  -8554345.059 6
  21307167.560     -614208.917 5   -407822.232 6
  19100376.317   -25628192.416 6  -2750380.168 9
  19116030.575   -23723169.372 7 -14717770.861 8
  19058834.560   -29580155.568 7 -21484345.963 7
  18730812.708   -28411238.402 7 -22041909.807 9
 94  2 20  3 44 29.9930000  0  8  2 24  5  7  9 12 13  4
  21873187.771     4168415.425 5   3271965.834 4
  19198670.466   -20712459.536 6 -15934642.038 8
  20577609.481   -11510372.340 6  -8633387.648 6
  21316753.028     -563863.658 5   -368592.159 6
  19096195.263   -25650153.596 6  -2767492.774 9
  19104026.364   -23786253.070 7 -14766926.981 8
  19062819.372   -29559205.137 7 -21468020.951 7
  18726995.505   -28431312.996 7 -22057552.329 9
 94  2 20  3 44 59.9930000  0  8  2 24  5  7  9 12 13  4
  21884151.653     4226001.627 5   3316838.137 4
  19182329.841   -20798351.022 6 -16001570.437 8
  20558315.067   -11611750.164 6  -8712383.313 6
  21326336.263     -513485.413 5   -329336.402 6
  19092132.513   -25671513.495 6  -2784136.844 9
  19092117.442   -23848835.522 7 -14815692.523 8
  19066863.606   -29537950.608 7 -21451458.971 7
  18723282.950   -28450819.675 7 -22072752.323 9
 94  2 20  3 45 29.9930000  0  8  2 24  5  7  9 12 13  4
  21895155.435     4283801.328 5   3361876.875 5
  19166062.731   -20883824.798 6 -16068173.360 8
  20539038.106   -11713049.696 6  -8791317.996 6
  21335928.294     -463090.284 5   -290067.443 5
  19088179.349   -25692283.560 6  -2800321.304 9
  19080304.778   -23910918.856 7 -14864069.132 8
  19070966.310   -29516397.920 7 -21434664.663 7
  18719679.294   -28469761.157 7 -22087511.912 9
 94  2 20  3 45 59.9930000  0  8  2 24  5  7  9 12 13  4
  21906195.067     4341854.026 5   3407112.729 5
  19149883.497   -20968857.357 6 -16134432.464 8
  20519781.521   -11814235.773 6  -8870164.263 6
  21345523.567     -412672.561 5   -250780.915 6
  19084340.989   -25712458.496 6  -2816042.033 9
  19068587.997   -23972486.866 7 -14912044.200 8
  19075127.278   -29494535.500 7 -21417629.010 7
  18716185.114   -28488122.259 7 -22101819.257 9
 94  2 20  3 46 29.9930000  0  8  2 24  5  7  9 12 13  4
  21917297.567     4400169.441 5   3452553.278 5
  19133789.763   -21053437.212 6 -16200338.814 8
  20500542.833   -11915325.754 6  -8948935.646 6
  21355117.161     -362247.789 5   -211488.904 6
  19080613.731   -25732039.017 6  -2831299.588 9
  19056968.130   -24033547.380 7 -14959623.815 8
  19079344.927   -29472375.351 7 -21400361.351 7
  18712797.794   -28505918.348 7 -22115686.324 9
 94  2 20  3 46 59.9930000  0  8  2 24  5  7  9 12 13  4
  21928433.192     4458741.842 5   3498194.073 4
  19117782.138   -21137540.676 6 -16265873.958 8
  20481324.778   -12016326.692 6  -9027637.657 6
  21364714.356     -311823.557 5   -172197.299 6
  19076998.021   -25751030.126 6  -2846097.846 9
  19045447.239   -24094098.623 7 -15006806.594 8
  19083615.880   -29449920.079 7 -21382863.736 7
  18709518.122   -28523153.076 7 -22129115.971 9
 94  2 20  3 47 29.9930000  0  8  2 24  5  7  9 12 13  4
  21939631.380     4517563.689 5   3544029.247 4
  19101872.653   -21221156.422 6 -16331029.061 8
  20462122.239   -12117244.088 6  -9106274.560 6
  21374307.396     -261401.457 5   -132907.347 6
  19073495.747   -25769439.264 6  -2860442.626 9
  19034020.450   -24154139.483 7 -15053591.677 8
  19087945.989   -29427172.868 7 -21365138.631 7
  18706345.349   -28539823.585 7 -22142105.970 9
 94  2 20  3 47 59.9930000  0  8  2 24  5  7  9 12 13  4
  21950870.825     4576618.259 5   3590045.759 4
  19086056.146   -21304268.882 6 -16395791.996 8
  20442931.419   -12218083.443 6  -9184850.655 6
  21383904.849     -210965.722 5    -93606.789 5
  19070105.567   -25787260.939 6  -2874329.649 9
  19022690.630   -24213666.444 6 -15099976.322 8
  19092329.106   -29404134.495 7 -21347186.648 7
  18703287.231   -28555908.823 7 -22154639.902 9
 94  2 20  3 48 29.9930000  0  8  2 24  5  7  9 12 13  4
  21962144.177     4635873.452 5   3636218.614 4
  19070336.935   -21386876.960 6 -16460161.894 8
  20423759.591   -12318839.476 6  -9263361.828 6
  21393512.521     -160503.816 5    -54285.811 6
  19066823.153   -25804501.897 6  -2887764.166 9
  19011463.396   -24272676.400 7 -15145958.096 8
  19096769.177   -29380806.143 7 -21329008.705 7
  18700339.208   -28571395.762 7 -22166707.638 9
 94  2 20  3 48 59.9930000  0  8  2 24  5  7  9 12 13  4
  21973459.302     4695319.284 5   3682540.042 3
  19054708.935   -21468997.305 6 -16524151.755 8
  20404606.427   -12419484.357 6  -9341786.390 6
  21403120.583     -110000.378 5    -14932.484 6
  19063652.325   -25821175.589 6  -2900756.645 9
  19000333.450   -24331171.227 7 -15191538.465 8
  19101260.099   -29357193.730 7 -21310609.417 7
  18697503.442   -28586286.425 7 -22178310.746 9
 94  2 20  3 49 29.9930000  0  8  2 24  5  7  9 12 13  4
  21984808.317     4754962.671 5   3729015.380 4
  19039176.708   -21550636.963 6 -16587767.050 8
  20385479.005   -12520003.806 6  -9420113.207 6
  21412741.833      -59432.776 5     24470.836 5
  19060588.231   -25837282.946 6  -2913307.833 9
  18989298.606   -24389146.154 7 -15236713.733 8
  19105809.380   -29333296.874 7 -21291988.485 7
  18694784.700   -28600567.692 7 -22189438.989 9
 94  2 20  3 49 59.9930000  0  8  2 24  5  7  9 12 13  4
  21996199.700     4814812.808 5   3775651.803 2
  19023733.536   -21631783.264 7 -16650997.907 8
  20366378.731   -12620386.998 6  -9498333.861 6
  21422380.489       -8789.911 5     63932.818 5
  19057629.466   -25852831.071 6  -2925423.255 9
  18978367.505   -24446595.072 6 -15281479.117 8
  19110412.599   -29309113.596 7 -21273144.365 7
  18692184.958   -28614232.928 7 -22200087.208 9
 94  2 20  3 50 29.9930000  0  8  2 24  5  7  9 12 13  4
  22007634.458     4874893.314 5   3822467.769 2
  19008385.146   -21712448.037 6 -16713853.546 8
  20347297.364   -12720641.690 6  -9576454.367 6
  21432028.817       41915.679 5    103443.661 5
  19054770.372   -25867839.874 6  -2937118.430 9
  18967535.349   -24503520.745 7 -15325836.781 8
  19115065.005   -29284650.873 7 -21254082.498 7
  18689697.005   -28627313.958 7 -22210280.215 9
 94  2 20  3 50 59.9930000  0  8  2 24  5  7  9 12 13  4
  22019108.185     4935224.925 4   3869479.432 2
  18993124.403   -21792635.492 6 -16776337.254 8
  20328242.528   -12820782.389 6  -9654486.065 6
  21441687.591       92673.927 5    142995.538 5
  19052020.653   -25882292.536 6  -2948380.246 9
  18956803.278   -24559918.928 7 -15369783.411 8
  19119774.349   -29259908.598 7 -21234802.792 7
  18687317.052   -28639818.561 7 -22220024.046 9
 94  2 20  3 51 29.9930000  0  8  2 24  5  7  9 12 13  4
  22030636.106     4995800.382 3   3916681.052 2
  18977955.903   -21872346.891 6 -16838450.008 8
  20309202.388   -12920837.303 6  -9732450.907 6
  21451350.075      143462.511 5    182571.049 5
  19049378.169   -25896187.470 6  -2959207.477 9
  18946168.942   -24615790.020 7 -15413319.323 8
  19124535.646   -29234891.318 7 -21215308.806 7
  18685044.927   -28651754.936 7 -22229325.108 9
 94  2 20  3 51 59.9930000  0  8  2 24  5  7  9 12 13  4
  22042203.856     5056617.055 3   3964070.649 3
  18962878.817   -21951581.748 7 -16900191.426 8
  20290179.583   -13020808.279 6  -9810350.359 6
  21461017.403      194259.980 5    222153.497 5
  19046841.896   -25909515.933 6  -2969593.294 9
  18935641.364   -24671129.194 7 -15456440.747 8
  19129346.942   -29209598.510 7 -21195600.112 7
  18682878.060   -28663142.561 7 -22238198.572 9
 94  2 20  3 52 29.9930000  0  8  2 24  5  7  9 12 13  4
  22053820.997     5117657.322 3   4011634.475 2
  18947890.942   -22030345.533 7 -16961565.776 8
  20271171.802   -13120706.237 6  -9888192.903 6
  21470682.286      245048.248 5    261728.771 5
  19044415.021   -25922252.440 6  -2979517.841 9
  18925209.138   -24725938.588 7 -15499149.365 8
  19134211.911   -29184036.283 7 -21175681.498 7
  18680815.833   -28673986.445 7 -22246648.337 9
 94  2 20  3 52 59.9930000  0  8  2 24  5  7  9 12 13  4
  22065479.958     5178889.853 3   4059348.104 4
  18932992.013   -22108629.845 7 -17022566.526 8
  20252173.856   -13220520.062 6  -9965969.882 6
  21480344.497      295823.939 5    301294.227 5
  19042109.130   -25934382.205 6  -2988969.614 9
  18914880.677   -24780218.666 7 -15541445.522 8
  19139126.528   -29158209.017 7 -21155556.345 7
  18678859.864   -28684266.875 7 -22254659.059 9
 94  2 20  3 53 29.9930000  0  8  2 24  5  7  9 12 13  4
  22077171.372     5240321.537 3   4107216.888 2
  18918191.310   -22186415.889 7 -17083178.997 8
  20233202.364   -13320223.044 6 -10043660.509 6
  21490008.513      346600.593 5    340860.448 5
  19039915.481   -25945914.616 6  -2997955.909 9
  18904652.896   -24833962.563 7 -15583323.879 8
  19144091.239   -29132114.207 7 -21135222.718 7
  18677013.052   -28693973.795 7 -22262222.879 9
 94  2 20  3 53 59.9930000  0  8  2 24  5  7  9 12 13  4
  22088892.958     5301952.346 3   4155240.873 3
  18903484.458   -22263698.786 7 -17143399.418 8
  20214251.333   -13419808.588 6 -10121259.608 6
  21499674.466      397390.915 5    380437.334 5
  19037837.294   -25956849.742 6  -3006476.785 9
  18894526.669   -24887174.170 7 -15624787.455 8
  19149108.239   -29105759.555 7 -21114686.615 7
  18675271.497   -28703106.324 7 -22269339.121 9
 94  2 20  3 54 29.9930000  0  8  2 24  5  7  9 12 13  4
  22100667.606     5363797.192 4   4203431.628 2
  18888873.302   -22340465.666 6 -17203217.731 8
  20195328.450   -13519255.457 6 -10198750.663 6
  21509343.653      448225.789 5    420048.910 5
  19035869.021   -25967178.682 6  -3014525.319 9
  18884504.692   -24939841.532 6 -15665826.954 8
  19154174.435   -29079137.240 7 -21093941.954 7
  18673650.192   -28711646.569 7 -22275993.843 9
 94  2 20  3 54 59.9930000  0  8  2 24  5  7  9 12 13  4
  22112479.333     5425869.721 4   4251799.789 4
  18874365.247   -22416729.457 7 -17262644.043 8
  20176434.911   -13618550.622 6 -10276123.494 7
  21519030.622      499113.505 5    459701.678 5
  19034010.864   -25976936.315 6  -3022128.673 9
  18874584.599   -24991966.258 6 -15706443.620 8
  19159290.153   -29052252.884 7 -21072993.102 7
  18672136.177   -28719605.173 7 -22282195.342 9
 94  2 20  3 55 29.9930000  0  8  2 24  5  7  9 12 13  4
  22124336.935     5488193.392 4   4300363.669 5
  18859946.271   -22492499.808 7 -17321685.854 8
  20157560.833   -13717704.341 6 -10353386.111 6
  21528719.833      550052.973 5    499394.771 5
  19032260.325   -25986125.472 6  -3029289.050 9
  18864772.450   -25043545.125 7 -15746634.937 8
  19164455.052   -29025106.984 7 -21051840.447 7
  18670730.528   -28726995.430 7 -22287953.965 9
 94  2 20  3 55 59.9930000  0  8  2 24  5  7  9 12 13  4
  22136233.114     5550747.613 4   4349107.185 4
  18845616.388   -22567782.566 6 -17380347.719 8
  20138722.810   -13816727.942 6 -10430547.343 6
  21538422.950      601021.400 5    539110.425 5
  19030623.192   -25994741.861 6  -3036003.125 9
  18855059.138   -25094582.528 6 -15786404.339 8
  19169668.825   -28997708.152 7 -21030490.701 7
  18669430.106   -28733826.003 7 -22293276.480 9
 94  2 20  3 56 29.9930000  0  8  2 24  5  7  9 12 13  4
  22148187.638     5613528.469 5   4398027.310 4
  18831385.583   -22642578.974 7 -17438630.614 8
  20119900.286   -13915626.566 6 -10507611.180 6
  21548121.169      651991.050 5    578827.026 5
  19029093.630   -26002789.746 6  -3042274.204 9
  18845450.411   -25145076.397 6 -15825750.202 8
  19174929.075   -28970058.268 7 -21008945.336 7
  18668233.771   -28740095.254 7 -22298161.600 9
 94  2 20  3 56 59.9930000  0  8  2 24  5  7  9 12 13  4
  22160180.606     5676532.105 5   4447120.989 4
  18817249.013   -22716870.139 7 -17496519.810 8
  20101105.505   -14014401.054 6 -10584578.306 6
  21557819.646      702955.307 5    618539.463 5
  19027672.427   -26010262.114 6  -3048096.832 9
  18835945.177   -25195016.572 6 -15864664.621 8
  19180241.700   -28942151.061 7 -20987199.447 7
  18667149.044   -28745798.249 7 -22302605.478 9
 94  2 20  3 57 29.9930000  0  8  2 24  5  7  9 12 13  4
  22172206.864     5739735.413 5   4496370.304 4
  18803210.075   -22790649.729 7 -17554010.378 8
  20082324.013   -14113075.673 6 -10661467.587 7
  21567516.130      753894.917 5    658232.658 5
  19026357.872   -26017153.839 6  -3053467.015 9
  18826548.052   -25244410.526 7 -15903153.413 8
  19185599.153   -28913997.759 7 -20965261.802 7
  18666168.560   -28750939.055 7 -22306611.298 9
 94  2 20  3 57 59.9930000  0  8  2 24  5  7  9 12 13  4
  22184269.028     5803126.893 5   4545766.234 4
  18789267.427   -22863909.215 7 -17611095.664 8
  20063571.583   -14211642.843 6 -10738273.164 6
  21577204.403      804821.025 5    697915.324 5
  19025155.208   -26023469.743 6  -3058388.495 9
  18817252.458   -25293254.081 6 -15941213.323 8
  19191002.435   -28885598.077 7 -20943132.179 7
  18665302.802   -28755507.653 7 -22310171.238 9
 94  2 20  3 58 29.9930000  0  8  2 24  5  7  9 12 13  4
  22196361.044     5866711.903 4   4595312.972 3
  18775425.536   -22936651.456 7 -17667777.908 8
  20044833.231   -14310098.567 6 -10814991.886 6
  21586897.763      855759.408 5    737607.564 5
  19024058.911   -26029225.136 6  -3062873.213 9
  18808064.724   -25341544.731 7 -15978842.403 8
  19196456.185   -28856953.460 7 -20920811.689 7
  18664541.333   -28759509.561 7 -22313289.596 9
 94  2 20  3 58 59.9930000  0  8  2 24  5  7  9 12 13  4
  22208504.817     5930493.110 5   4645012.595 4
  18761681.575   -23008880.053 7 -17724059.904 8
  20026123.028   -14408430.795 6 -10891614.380 7
  21596593.833      906728.515 5    777323.758 5
  19023068.411   -26034426.204 6  -3066925.997 9
  18798980.380   -25389280.423 7 -16016039.034 8
  19201951.435   -28828065.424 7 -20898301.529 7
  18663886.060   -28762943.348 7 -22315965.259 9
 94  2 20  3 59 29.9930000  0  8  2 24  5  7  9 12 13  4
  22220679.794     5994475.476 5   4694868.926 2
  18748031.388   -23080602.181 7 -17779947.267 8
  20007432.356   -14506640.293 6 -10968141.251 7
  21606300.060      957730.917 5    817065.890 5
  19022187.060   -26039075.910 6  -3070549.148 9
  18790001.575   -25436463.783 7 -16052805.284 8
  19207493.817   -28798940.777 7 -20875606.988 7
  18663343.942   -28765799.774 7 -22318191.040 9
 94  2 20  3 59 59.9930000  0  8  2 24  5  7  9 12 13  4
  22232894.013     6058670.107 4   4744890.686 2
  18734477.950   -23151822.546 7 -17835443.637 8
  19988774.724   -14604711.164 6 -11044560.093 7
  21616012.731     1008771.368 5    856837.662 5
  19021407.708   -26043178.943 6  -3073746.319 9
  18781128.091   -25483093.041 7 -16089139.768 8
  19213079.731   -28769581.109 7 -20852729.323 7
  18662903.497   -28768086.485 7 -22319972.889 9
 94  2 20  4  0 29.9930000  0  8  2 24  5  7  9 12 13  4
  22245158.864     6123077.196 4   4795077.991 3
  18721022.380   -23222542.604 7 -17890550.150 8
  19970140.786   -14702637.580 6 -11120866.370 7
  21625732.263     1059831.271 5    896624.602 5
  19020734.614   -26046725.429 6  -3076509.811 9
  18772360.036   -25529169.114 7 -16125043.195 8
  19218711.013   -28739991.481 7 -20829672.464 7
  18662577.583   -28769814.135 7 -22321319.093 9
 94  2 20  4  0 59.9930000  0  8  2 24  5  7  9 12 13  4
  22257448.606     6187706.845 4   4845438.717 2
  18707659.435   -23292762.371 7 -17945266.836 8
  19951526.739   -14800425.587 6 -11197064.816 7
  21635453.560     1110900.191 5    936418.551 5
  19020163.575   -26049696.411 6  -3078824.864 9
  18763698.153   -25574686.072 6 -16160510.953 8
  19224386.106   -28710169.182 7 -20806434.301 7
  18662357.427   -28770976.166 7 -22322224.565 9
 94  2 20  4  1 29.9930000  0  8  2 24  5  7  9 12 13  4
  22269787.286     6252557.158 3   4895971.358 2
  18694389.653   -23362482.669 7 -17999594.318 8
  19932948.677   -14898074.595 6 -11273154.926 7
  21645163.716     1161975.717 5    976217.650 5
  19019710.622   -26052093.142 6  -3080692.448 9
  18755144.771   -25619643.321 7 -16195542.574 8
  19230103.528   -28680117.744 7 -20783017.597 7
  18662240.481   -28771588.495 7 -22322701.690 9
 94  2 20  4  1 59.9930000  0  8  2 24  5  7  9 12 13  4
  22282176.685     6317624.494 3   4946673.160 2
  18681216.864   -23431711.691 7 -18053538.989 8
  19914394.013   -14995570.896 6 -11349126.065 7
  21654887.481     1213052.434 5   1016017.708 5
  19019360.372   -26053919.030 6  -3082115.219 9
  18746695.958   -25664038.432 7 -16230136.166 8
  19235865.763   -28649838.240 7 -20759423.172 7
  18662228.731   -28771665.034 7
 94  2 20  4  2 29.9930000  0  8  2 24  5  7  9 12 13  4
  22294594.692     6382893.563 3   4997532.213 2
  18668138.567   -23500444.309 7 -18107096.851 8
  19895871.138   -15092917.779 6 -11424980.766 7
  21664610.028     1264132.539 5   1055820.374 5
  19019123.755   -26055172.073 6  -3083091.622 9
  18738354.200   -25707868.512 7 -16264289.470 8
  19241672.153   -28619331.296 7 -20735651.523 7
  18662313.763   -28771207.264 7
 94  2 20  4  2 59.9930000  0  8  2 24  5  7  9 12 13  4
  22307051.247     6448362.685 3   5048547.094 2
  18655155.138   -23568683.462 7 -18160270.197 8
  19877372.239   -15190118.045 6 -11500721.219 7
  21674332.146     1315235.142 5   1095640.582 5
  19018994.349   -26055864.990 6  -3083631.561 9
  18730119.177   -25751134.206 7 -16298002.996 8
  19247520.177   -28588601.245 7 -20711706.021 7
  18662501.403   -28770212.424 7 -22321629.402 9
 94  2 20  4  3 29.9930000  0  8  2 24  5  7  9 12 13  4
  22319544.544     6514024.942 3   5099712.468 2
  18642262.966   -23636418.347 6 -18213050.605 8
  19858908.263   -15287155.657 6 -11576334.935 7
  21684062.247     1366360.314 5   1135478.381 5
  19018969.583   -26055995.529 6
  18721996.435   -25793834.730 7 -16331276.138 8
  19253410.169   -28557650.940 7 -20687588.893 6
  18662794.841   -28768675.711 7 -22320431.951 9
 94  2 20  4  3 59.9930000  0  7 24  5  7  9 12 13  4
  18629471.685   -23703637.029 7 -18265428.775 8
  19840471.911   -15384025.472 6 -11651817.896 7
  21693798.583     1417520.147 5   1175343.166 5
  19019055.833   -26055548.765 6
  18713980.138   -25835963.330 7 -16364103.613 8
  19259342.278   -28526477.218 7 -20663297.681 7
  18663191.380   -28766590.003 7 -22318806.716 9
 94  2 20  4  4 29.9930000  0  7 24  5  7  9 12 13  4
  18616782.536   -23770337.110 7 -18317402.851 8
  19822068.317   -15480740.080 6 -11727179.911 7
  21703543.497     1468727.762 5   1215245.215 5
  19019247.810   -26054522.394 6  -3082585.388 9
  18706070.591   -25877517.415 7 -16396483.415 7
  19265315.200   -28495080.883 7 -20638833.000 6
  18663696.286   -28763946.498 7 -22316746.833 9
 94  2 20  4  4 59.9930000  0  7 24  5  7  9 12 13  4
  18604183.739   -23836519.158 6 -18368973.251 8
  19803694.622   -15577303.600 6 -11802424.210 7
  21713293.583     1519975.366 5   1255178.392 5
  19019550.646   -26052920.165 6  -3081336.906 9
  18698273.005   -25918499.151 7 -16428417.232 8
  19271333.880   -28463467.607 7 -20614199.280 7
  18664303.060   -28760744.745 7 -22314251.956 9
 94  2 20  4  5 29.9930000  0  7 24  5  7  9 12 13  4
  18591690.060   -23902180.973 7 -18420138.287 8
  19785346.544   -15673722.715 6 -11877555.973 7
  21723047.294     1571231.752 5   1295118.426 5
  19019963.169   -26050752.476 6  -3079647.801 9
  18690583.349   -25958912.840 7 -16459908.422 8
  19277387.450   -28431645.380 7 -20589402.729 6
  18665018.286   -28757002.625 7 -22311336.010 9
 94  2 20  4  5 59.9930000  0  7 24  5  7  9 12 13  4
  18579296.349   -23967316.505 7 -18470893.227 8
  19767025.661   -15770002.864 6 -11952579.447 7
  21732798.200     1622498.732 5   1335066.739 5
  19020484.771   -26048028.496 6  -3077525.232 9
  18682999.513   -25998753.852 7 -16490953.357 8
  19283482.435   -28399612.737 7 -20564442.226 7
  18665830.169   -28752728.310 7 -22308005.368 9
 94  2 20  4  6 29.9930000  0  7 24  5  7  9 12 13  4
  18567003.481   -24031911.398 7 -18521226.888 8
  19748732.997   -15866141.027 6 -12027492.296 7
  21742557.091     1673760.750 5   1375011.162 5
  19021109.325   -26044752.940 6  -3074972.842 9
  18675529.146   -26038017.280 6 -16521548.244 8
  19289621.388   -28367368.350 7 -20539316.719 7
  18666746.755   -28747909.875 7 -22304250.738 9
 94  2 20  4  6 59.9930000  0  7 24  5  7  9 12 13  4
  18554817.114   -24095956.823 7 -18571132.396 8
  19730465.169   -15962122.385 6 -12102282.946 7
  21752311.380     1724995.659 5   1414934.453 5
  19021833.567   -26040935.907 6  -3071998.543 9
  18668164.231   -26076709.594 7 -16551698.095 8
  19295791.099   -28334922.009 7 -20514033.854 6
  18667764.888   -28742561.875 7 -22300083.462 9
 94  2 20  4  7 29.9930000  0  7 24  5  7  9 12 13  4
  18542733.739   -24159441.253 6 -18620600.756 8
  19712235.888   -16057920.931 6 -12176931.157 7
  21762052.747     1776208.002 5   1454840.155 5
  19022663.966   -26036573.546 6  -3068599.307 9
  18660913.942   -26114824.208 7 -16581397.793 8
  19302007.278   -28302270.410 7 -20488591.046 7
  18668883.653   -28736676.459 7 -22295497.415 9
 94  2 20  4  7 59.9930000  0  7 24  5  7  9 12 13  4
  18530760.700   -24222370.428 7 -18669636.456 8
  19694043.083   -16153524.873 6 -12251427.718 7
  21771796.591     1827407.882 5   1494736.153 5
  19023596.146   -26031670.249 6  -3064778.555 9
  18653768.911   -26152360.811 7 -16610647.093 8
  19308257.177   -28269416.679 7 -20462990.734 6
  18670109.138   -28730250.943 7 -22290490.516 9
 94  2 20  4  8 29.9930000  0  7 24  5  7  9 12 13  4
  18518888.310   -24284751.715 7 -18718245.233 8
  19675889.833   -16248923.509 6 -12325764.308 7
  21781535.372     1878597.453 5   1534624.134 5
  19024631.091   -26026231.934 6  -3060540.917 9
  18646738.646   -26189320.276 7 -16639446.676 8
  19314548.052   -28236365.078 7 -20437236.236 6
  18671431.646   -28723281.974 7 -22285060.153 9
 94  2 20  4  9 29.9920000  0  7 24  5  7  9 12 13  4
  18495450.813   -24407915.454 7 -18814216.941 8
  19639692.594   -16439134.636 6 -12473980.746 7
  21801028.039     1981002.808 5   1614420.505 5
  19027006.461   -26013756.074 6  -3050819.481 9
  18633003.477   -26261498.177 7 -16695689.197 8
  19327237.711   -28169673.245 7 -20385268.568 7
  18674388.367   -28707757.084 7 -22272962.826 9
 94  2 20  4  9 59.9920000  0  7 24  5  7  9 12 13  4
  18483877.500   -24468728.826 7 -18861603.973 8
  19621642.492   -16533989.615 6 -12547893.709 7
  21810775.469     2032245.196 5   1654349.614 5
  19028349.016   -26006710.320 6  -3045329.292 9
  18626302.273   -26296710.440 7 -16723127.325 8
  19333640.313   -28136031.097 7 -20359053.910 6
  18676016.891   -28699185.634 7 -22266283.768 9
 94  2 20  4 10 29.9920000  0  7 24  5  7  9 12 13  4
  18472400.922   -24529041.643 6 -18908600.949 8
  19603616.195   -16628715.794 6 -12621706.299 7
  21820531.774     2083513.351 5   1694298.824 5
  19029795.641   -25999107.878 6  -3039405.316 9
  18619710.211   -26331341.389 7 -16750112.483 8
  19340078.352   -28102199.866 7 -20332691.903 6
  18677749.523   -28690073.297 7 -22259183.231 9
 94  2 20  4 10 59.9920000  0  7 24  5  7  9 12 13  4
  18461019.656   -24588856.398 7 -18955209.834 8
  19585616.797   -16723302.551 6 -12695410.248 7
  21830290.859     2134804.942 5   1734266.279 4
  19031350.711   -25990933.520 6  -3033035.694 9
  18613233.242   -26365384.533 7 -16776639.603 8
  19346553.742   -28068177.182 7 -20306180.718 6
  18679592.047   -28680413.810 7 -22251656.353 9
 94  2 20  4 11 29.9920000  0  7 24  5  7  9 12 13  4
  18449733.719   -24648169.144 7 -19001427.541 8
  19567644.758   -16817733.662 6 -12768992.924 7
  21840053.430     2186102.915 5   1774238.726 4
  19033013.172   -25982183.524 6  -3026217.516 9
  18606865.359   -26398845.443 6 -16802713.035 8
  19353061.359   -28033968.064 7 -20279524.257 6
  18681534.180   -28670200.376 7 -22243697.829 9
 94  2 20  4 11 59.9920000  0  7 24  5  7  9 12 13  4
  18438547.250   -24706954.756 7 -19047234.487 8
  19549711.758   -16911995.614 6 -12842443.788 7
  21849820.406     2237412.691 5   1814220.367 5
  19034790.141   -25972851.601 6  -3018945.904 9
  18600611.859   -26431712.281 6 -16828323.559 8
  19359611.039   -27999567.553 7 -20252718.661 6
  18683584.031   -28659432.382 7 -22235307.179 9
 94  2 20  4 12 29.9920000  0  7 24  5  7  9 12 13  4
  18427461.281   -24765217.694 7 -19092634.171 8
  19531810.883   -17006069.417 6 -12915748.034 7
  21859585.586     2288716.680 5   1854197.477 5
  19036671.102   -25962957.262 6  -3011236.027 9
  18594467.453   -26463993.339 6 -16853477.630 8
  19366190.008   -27964985.750 7 -20225771.803 6
  18685732.414   -28648140.853 7 -22226508.580 9
 94  2 20  4 12 59.9920000  0  7 24  5  7  9 12 13  4
  18416474.867   -24822943.519 7 -19137615.308 8
  19513947.352   -17099921.720 6 -12988879.694 7
  21869341.156     2340011.920 5   1894167.777 5
  19038653.063   -25952517.242 6  -3003100.959 9
  18588434.883   -26495685.872 7 -16878173.111 8
  19372803.844   -27930222.970 7 -20198683.920 6
  18687980.383   -28636341.759 7 -22217314.478 9
 94  2 20  4 13 29.9920000  0  7 24  5  7  9 12 13  4
  18405593.391   -24880126.354 7 -19182173.345 8
  19496129.344   -17193579.562 6 -13061859.815 7
  21879101.109     2391293.358 5   1934127.325 5
  19040745.930   -25941542.577 6  -2994549.274 9
  18582517.086   -26526794.075 6 -16902413.273 8
  19379452.570   -27895286.141 7 -20171460.419 6
  18690318.898   -28624048.833 7 -22207735.566 9
 94  2 20  4 13 59.9920000  0  7 24  5  7  9 12 13  4
  18394815.469   -24936767.005 7 -19226308.903 8
  19478340.906   -17287039.569 6 -13134685.785 8
  21888861.578     2442578.252 5   1974089.568 4
  19042933.344   -25930032.645 6  -2985580.503 9
  18576710.320   -26557308.485 7 -16926190.738 7
  19386138.602   -27860168.960 7 -20144096.380 6
  18692748.875   -28611264.620 7 -22197773.839 9
 94  2 20  4 14 29.9920000  0  7 24  5  7  9 12 13  4
  18384140.727   -24992864.849 7 -19270021.498 8
  19460594.969   -17380297.212 6 -13207354.068 7
  21898617.727     2493866.177 5   2014054.179 5
  19045226.859   -25917991.251 6  -2976197.603 9
  18571016.320   -26587230.027 7 -16949506.225 8
  19392854.125   -27824875.094 7 -20116594.666 6
  18695275.578   -28597995.010 7 -22187433.877 9
 94  2 20  4 14 59.9920000  0  8 20 24  5  7  9 12 13  4
  22402055.414          -0.15013
  18373569.242   -25048412.856 6 -19313305.636 8
  19442884.453   -17473369.112 6 -13279877.621 7
  21908378.531     2545154.035 5   2054018.701 5
  19047622.906   -25905411.225 6  -2966394.990 9
  18565435.289   -26616554.669 6 -16972356.598 8
  19399603.125   -27789403.607 7 -20088954.542 6
  18697895.070   -28584224.608 7 -22176703.686 9
 94  2 20  4 15 29.9920000  0  8 20 24  5  7  9 12 13  4
  22378959.289     -121310.837 3        -0.28111
  18363100.914   -25103426.439 7 -19356173.354 8
  19425206.211   -17566271.938 6 -13352269.418 8
  21918140.414     2596445.093 5   2093985.754 5
  19050115.492   -25892308.872 6  -2956185.375 9
  18559968.883   -26645287.536 7 -16994745.847 8
  19406385.664   -27753762.506 7 -20061182.249 6
  18700616.688   -28569936.627 7 -22165570.188 9
 94  2 20  4 15 59.9920000  0  8 20 24  5  7  9 12 13  4
  22355865.586     -242638.113 3    -94540.929 2
  18352732.000   -25157904.156 7 -19398623.515 8
  19407563.219   -17658977.304 6 -13424507.363 7
  21927904.578     2647753.694 5   2133966.463 5
  19052706.930   -25878683.200 6  -2945567.974 9
  18554615.453   -26673422.943 7 -17016669.544 8
  19413199.422   -27717948.798 7 -20033275.471 6
  18703432.875   -28555124.581 7 -22154028.334 9
 94  2 20  4 16 29.9920000  0  8 20 24  5  7  9 12 13  4
  22332785.172     -363983.540 3   -189095.722 1
  18342465.352   -25211852.613 7 -19440661.260 8
  19389959.125   -17751499.435 6 -13496602.514 8
  21937668.836     2699073.797 5   2173956.137 5
  19055400.711   -25864532.582 6  -2934541.524 9
  18549376.453   -26700962.780 7 -17038129.154 8
  19420047.313   -27681967.477 7 -20005238.072 6
  18706349.281   -28539784.521 7 -22142075.042 9
 94  2 20  4 16 59.9920000  0  8 20 24  5  7  9 12 13  4
  22309680.055     -485342.574 3   -283661.109 1
  18332298.258   -25265287.389 7 -19482298.730 8
  19372385.328   -17843839.416 6 -13568555.743 8
  21947436.758     2750414.133 5   2213961.576 5
  19058195.063   -25849851.447 6  -2923101.694 9
  18544249.078   -26727903.159 7 -17059121.666 8
  19426926.695   -27645817.208 7 -19977069.027 6
  18709373.461   -28523905.046 7 -22129701.413 9
 94  2 20  4 17 29.9920000  0  8 20 24  5  7  9 12 13  4
  22286592.141     -606716.207 3   -378237.870 2
  18322229.125   -25318208.947 7 -19523536.296 8
  19354848.805   -17935988.921 6 -13640360.543 8
  21957210.734     2801777.533 5   2253984.974 4
  19061089.727   -25834644.694 6  -2911252.275 9
  18539234.945   -26754245.918 7 -17079648.497 8
  19433834.383   -27609502.403 7 -19948771.776 6
  18712498.273   -28507502.083 7 -22116919.883 9
 94  2 20  4 17 59.9920000  0  8 20 24  5  7  9 12 13  4
  22263493.227     -728100.620 3   -472823.067 1
  18312257.258   -25370612.464 7 -19564370.192 8
  19337351.516   -18027947.596 6 -13712016.646 8
  21966991.570     2853158.287 5   2294021.913 3
  19064084.359   -25818893.368 6  -2898978.530 9
  18534335.203   -26779987.847 6 -17099707.139 8
  19440780.078   -27573022.707 7 -19920346.034 6
  18715713.203   -28490595.875 7 -22103746.211 9
 94  2 20  4 18 29.9920000  0  8 20 24  5  7  9 12 13  4
  22240385.961     -849503.970 3   -567423.028 2
  18302381.617   -25422504.893 7 -19604805.841 8
  19319886.039   -18119726.028 6 -13783532.294 8
  21976766.617     2904540.124 5   2334059.692 3
  19067185.641   -25802615.551 6  -2886294.519 9
  18529551.102   -26805137.968 6 -17119304.643 7
  19447746.875   -27536389.751 7 -19891800.880 6
  18719026.273   -28473187.821 7 -22090181.488 9
 94  2 20  4 18 59.9920000  0  8 20 24  5  7  9 12 13  4
  22217286.203     -970918.808 3   -662031.920 3
  18292607.094   -25473865.500 6 -19644827.076 8
  19302463.461   -18211286.832 6 -13854878.375 8
  21986551.781     2955930.976 5   2374104.492 3
  19070382.367   -25785819.797 6  -2873206.927 9
  18524878.195   -26829689.556 7 -17138435.757 8
  19454747.633   -27499599.538 7 -19863133.168 6
  18722436.586   -28455269.264 7 -22076218.972 9
 94  2 20  4 19 29.9920000  0  8 20 24  5  7  9 12 13  4
  22194179.969    -1092337.775 3   -756644.061 2
  18282942.969   -25524662.574 6 -19684409.202 8
  19285086.133   -18302603.334 6 -13926034.076 8
  21996327.516     3007326.674 5   2414153.065 5
  19073672.664   -25768502.259 6  -2859712.755 9
  18520321.836   -26853636.024 7 -17157095.344 8
  19461782.891   -27462647.884 7 -19834339.674 6
  18725942.555   -28436841.633 7 -22061859.777 9
 94  2 20  4 19 59.9920000  0  8 20 24  5  7  9 12 13  4
  22171070.141    -1213763.797 3   -851261.682 1
  18273381.250   -25574903.431 6 -19723557.912 8
  19267756.656   -18393678.837 6 -13997001.997 8
  22006107.672     3058719.985 4   2454199.773 4
  19077066.375   -25750671.520 6  -2845818.683 9
  18515879.633   -26876981.087 7 -17175286.310 7
  19468841.430   -27425541.244 7 -19805425.411 6
  18729549.594   -28417895.459 7 -22047096.519 9
 94  2 20  4 20 29.9920000  0  8 20 24  5  7  9 12 13  4
  22147965.023    -1335206.500 3   -945892.289 2
  18263925.227   -25624593.501 6 -19762277.425 8
  19250468.305   -18484517.102 6 -14067785.062 8
  22015888.000     3110109.584 4   2494243.581 3
  19080554.281   -25732347.712 6  -2831540.400 9
  18511549.398   -26899735.206 7 -17193016.799 8
  19475933.281   -27388292.795 7 -19776400.643 6
  18733247.977   -28398443.648 7 -22031939.255 9
 94  2 20  4 20 59.9920000  0  8 20 24  5  7  9 12 13  4
  22124853.969    -1456658.268 3  -1040529.944 2
  18254577.633   -25673719.698 7 -19800557.571 8
  19233226.961   -18575119.452 6 -14138384.285 8
  22025665.000     3161500.662 5   2534288.577 3
  19084138.633   -25713511.554 6  -2816862.879 9
  18507334.273   -26921892.054 7 -17210281.877 8
  19483047.797   -27350898.124 7 -19747261.942 6
  18737043.797   -28378511.002 7 -22016407.325 9
 94  2 20  4 21 29.9920000  0  8 20 24  5  7  9 12 13  4
  22101738.289    -1578110.118 3  -1135167.729 2
  18245334.328   -25722278.704 6 -19838395.740 8
  19216030.773   -18665506.183 7 -14208815.503 8
  22035447.250     3212889.842 4   2574332.040 4
  19087821.875   -25694147.846 6  -2801774.285 9
  18503233.820   -26943443.371 7 -17227075.116 8
  19490191.039   -27313351.864 7 -19718005.117 6
  18740928.539   -28358103.696 7 -22000505.532 9
 94  2 20  4 21 59.9920000  0  8 20 24  5  7  9 12 13  4
  22078630.523    -1699568.771 3  -1229810.751 1
  18236199.297   -25770299.373 6 -19875814.438 8
  19198867.242   -18755699.852 7 -14279096.277 8
  22045222.078     3264280.612 4   2614376.776 4
  19091608.688   -25674274.624 6  -2786288.672 9
  18499243.789   -26964396.972 7 -17243402.595 8
  19497363.953   -27275664.139 7 -19688638.052 6
  18744896.563   -28337239.304 7 -21984247.566 9
 94  2 20  4 22 29.9920000  0  8 20 24  5  7  9 12 13  4
  22055514.391    -1821030.171 3  -1324455.981 2
  18227163.805   -25817779.097 7 -19912811.609 8
  19181740.281   -18845688.752 6 -14349217.499 8
  22055004.672     3315668.116 5   2654418.979 4
  19095485.953   -25653892.275 6  -2770406.335 9
  18495371.859   -26984749.848 6 -17259261.985 8
  19504562.063   -27237834.456 6 -19659160.379 6
  18748951.180   -28315926.733 7 -21967640.365 9
 94  2 20  4 22 59.9920000  0  8 20 24  5  7  9 12 13  4
  22032394.055    -1942489.997 3  -1419099.960 2
  18218229.883   -25864730.273 6 -19949396.929 8
  19164657.742   -18935464.616 7 -14419172.711 8
  22064781.992     3367039.067 5   2694448.286 3
  19099460.149   -25633006.674 6  -2754131.851 9
  18491612.141   -27004498.801 7 -17274650.787 8
  19511784.484   -27199861.841 6 -19629571.326 6
  18753095.063   -28294154.498 7 -21950674.983 9
 94  2 20  4 23 29.9920000  0  8 20 24  5  7  9 12 13  4
  22009292.531    -2063944.333 3  -1513739.636 2
  18209393.000   -25911167.671 7 -19985581.900 8
  19147613.406   -19025015.410 6 -14488952.547 8
  22074558.094     3418401.637 4   2734471.019 4
  19103529.695   -25611628.723 6  -2737473.710 9
  18487970.750   -27023641.105 7 -17289566.865 7
  19519040.539   -27161745.774 6 -19599870.490 6
  18757328.883   -28271895.258 7 -21933330.112 9
 94  2 20  4 23 59.9920000  0  8 20 24  5  7  9 12 13  4
  21986174.477    -2185400.551 3  -1608380.835 2
  18200650.289   -25957103.282 6 -20021375.868 8
  19130617.531   -19114328.524 7 -14558547.170 8
  22084324.273     3469757.408 4   2774488.480 2
  19107686.594   -25589763.885 6  -2720436.185 8
  18484443.594   -27042185.182 6 -17304016.807 8
  19526321.086   -27123497.068 7 -19570066.313 6
  18761656.930   -28249153.381 7 -21915609.176 9
 94  2 20  4 24 29.9920000  0  8 20 24  5  7  9 12 13  4
  21963063.375    -2306855.570 3  -1703021.031 2
  18192008.641   -26002522.443 7 -20056767.413 8
  19113672.125   -19203392.927 6 -14627947.998 8
  22094098.320     3521105.957 5   2814500.314 3
  19111945.648   -25567394.600 6  -2703005.586 9
  18481029.539   -27060129.102 6 -17317999.089 8
  19533622.320   -27085116.248 6 -19540159.177 6
  18766076.492   -28225920.175 7 -21897505.372 9
 94  2 20  4 24 59.9920000  0  8 20 24  5  7  9 12 13  4
  21939953.414    -2428305.641 3  -1797657.435 3
  18183463.234   -26047418.085 6 -20091751.017 8
  19096770.414   -19292210.735 7 -14697156.673 8
  22103865.875     3572463.444 3   2854519.144 2
  19116298.695   -25544504.049 6  -2685168.801 8
  18477728.742   -27077470.534 7 -17331511.896 7
  19540951.461   -27046602.849 6 -19510148.733 6
  18770597.594   -28202189.971 7 -21879014.309 9
 94  2 20  4 25 29.9920000  0  8 20 24  5  7  9 12 13  4
  21916837.781    -2549747.868 3  -1892287.683 1
  18175025.969   -26091765.481 7 -20126307.413 8
  19079914.891   -19380783.969 7 -14766174.771 8
  22113645.703     3623843.558 3   2894555.533 4
  19120760.164   -25521078.310 6  -2666914.986 8
  18474542.477   -27094207.778 7 -17344553.908 8
  19548305.477   -27007957.439 6 -19480035.427 6
  18775202.352   -28177967.565 7 -21860139.707 9
 94  2 20  4 25 59.9920000  0  8 20 24  5  7  9 12 13  4
  21893742.023    -2671179.168 4  -1986909.448 3
  18166693.789   -26135544.426 6 -20160420.871 8
  19063105.945   -19469110.841 6 -14835000.905 8
  22123425.742     3675233.563 3   2934599.661 3
  19125320.055   -25497109.028 6  -2648237.633 8
  18471472.148   -27110339.041 6 -17357123.731 8
  19555685.969   -26969180.456 6 -19449819.597 6
  18779904.719   -28153268.335 7 -21840893.555 9
 94  2 20  4 26 29.9920000  0  8 20 24  5  7  9 12 13  4
  21870627.820    -2792603.994 3  -2081526.170 1
  18158470.938   -26178764.380 7 -20194098.745 8
  19046341.703   -19557210.335 7 -14903649.858 8
  22133210.484     3726624.212 4   2974644.310 2
  19129983.406   -25472622.952 6  -2629157.580 8
  18468515.508   -27125870.125 6 -17369225.880 8
  19563086.992   -26930279.888 6 -19419507.458 6
  18784688.984   -28128099.826 7 -21821281.722 9
 94  2 20  4 26 59.9920000  0  8 20 24  5  7  9 12 13  4
  21847523.789    -2914023.184 3  -2176138.489 1
  18150351.805   -26221436.213 7 -20227349.516 8
  19029618.898   -19645096.714 7 -14972132.741 8
  22142983.320     3777992.895 3   3014671.804 4
  19134729.680   -25447642.355 6  -2609692.187 9
  18465675.781   -27140802.964 7 -17380861.866 7
  19570510.930   -26891259.677 6 -19389102.104 6
  18789572.047   -28102471.473 7 -21801311.579 9
 94  2 20  4 27 29.9920000  0  8 20 24  5  7  9 12 13  4
  21824422.695    -3035431.719 3  -2270742.503 3
  18142333.586   -26263562.270 7 -20260174.999 8
  19012932.289   -19732773.586 7 -15040452.381 8
  22152755.930     3829322.229 4   3054668.674 3
  19139577.563   -25422184.135 6  -2589854.631 8
  18462948.672   -27155134.308 6 -17392029.155 7
  19577962.352   -26852118.527 6 -19358602.507 6
  18794532.680   -28076387.677 7 -21780986.539 9
 94  2 20  4 27 59.9920000  0  8 20 24  5  7  9 12 13  4
  21801321.195    -3156826.973 3  -2365336.157 2
  18134417.523   -26305155.500 7 -20292585.299 7
  18996291.023   -19820236.189 7 -15108605.051 8
  22162510.195     3880609.193 4   3094632.503 3
  19144511.703   -25396264.801 6  -2569657.762 8
  18460337.625   -27168862.873 6 -17402726.740 7
  19585430.398   -26812857.129 6 -19328009.207 6
  18799584.719   -28049846.930 7 -21760305.440 9
 94  2 20  4 28 29.9920000  0  8 20 24  5  7  9 12 13  4
  21778222.055    -3278202.001 3  -2459914.072 2
  18126603.773   -26346215.241 7 -20324579.893 8
  18979688.281   -19907482.758 7 -15176589.392 8
  22172263.977     3931873.282 4   3134578.515 3
  19149529.164   -25369888.945 6  -2549105.161 8
  18457839.609   -27181983.284 6 -17412950.445 8
  19592925.156   -26773472.202 6 -19297319.652 6
  18804726.797   -28022836.551 7 -21739258.389 9
 94  2 20  4 28 59.9920000  0  8 20 24  5  7  9 12 13  4
  21755127.164    -3399561.597 3  -2554479.919 3
  18118894.383   -26386737.260 6 -20356155.485 8
  18963129.242   -19994499.445 7 -15244394.605 8
  22182015.203     3983117.687 3   3174509.192 4
  19154637.836   -25343043.326 6  -2528186.513 8
  18455457.328   -27194501.729 6 -17422705.088 8
  19600445.063   -26733971.630 6 -19266539.985 6
  18809949.602   -27995364.569 7 -21717851.647 9
 94  2 20  4 29 29.9920000  0  8 20 24  5  7  9 12 13  4
  21732033.570    -3520903.831 3  -2649032.297 2
  18111289.375   -26426709.615 7 -20387302.761 7
  18946619.617   -20081258.580 7 -15311999.118 8
  22191765.609     4034371.296 4   3214447.048 2
  19159837.445   -25315717.245 6  -2506893.472 8
  18453187.883   -27206417.830 6 -17431990.361 7
  19607983.742   -26694357.066 6 -19235671.492 6
  18815268.570   -27967430.524 7 -21696084.856 9
 94  2 20  4 29 59.9920000  0  8 20 24  5  7  9 12 13  4
  21708955.031    -3642225.597 4  -2743568.702 2
  18103787.469   -26466127.490 7 -20418017.980 8
  18930162.516   -20167736.285 7 -15379384.346 8
  22201522.055     4085656.771 3   3254409.724 4
  19165129.352   -25287905.992 6  -2485222.381 8
  18451037.891   -27217730.021 6 -17440805.066 7
  19615542.633   -26654628.965 6 -19204714.534 6
  18820668.977   -27939040.319 7 -21673962.617 9
 94  2 20  4 30 29.9920000  0  8 20 24  5  7  9 12 13  4
  21685870.570    -3763528.774 4  -2838090.609 2
  18096389.555   -26504994.822 6 -20448304.202 7
  18913760.641   -20253929.127 7 -15446547.596 8
  22211289.875     4136981.734 3   3294403.158 4
  19170515.453   -25259605.376 6  -2463169.965 8
  18448998.867   -27228441.946 7 -17449152.025 8
  19623122.586   -26614792.632 6 -19173673.239 6
  18826156.399   -27910202.624 7 -21651491.687 9
 94  2 20  4 30 59.9920000  0  8 20 24  5  7  9 12 13  4
  21662790.219    -3884810.922 4  -2932596.150 2
  18089097.133   -26543321.376 7 -20478169.039 8
  18897415.258   -20339827.233 7 -15513481.180 8
  22221067.102     4188346.317 3   3334427.483 2
  19175992.688   -25230815.164 6  -2440736.052 8
  18447074.953   -27238552.928 7 -17457030.722 8
  19630723.555   -26574849.025 6 -19142548.343 6
  18831730.289   -27880928.793 7 -21628680.912 9
 94  2 20  4 31 29.9920000  0  8 20 24  5  7  9 12 13  4
  21639714.969    -4006070.460 3  -3027084.048 5
  18081906.070   -26581112.459 7 -20507616.627 8
  18881122.492   -20425449.464 7 -15580199.798 9
  22230837.828     4239739.103 3   3374473.784 5
  19181562.180   -25201550.584 6  -2417932.493 8
  18445263.695   -27248063.289 6 -17464441.399 8
  19638343.250   -26534800.357 6 -19111341.589 6
  18837379.719   -27851223.934 7 -21605534.268 9
 94  2 20  4 31 59.9920000  0  8 20 24  5  7  9 12 13  4
  21616641.367    -4127302.646 3  -3121550.621 2
  18074812.922   -26618381.291 7 -20536657.264 7
  18864878.914   -20510811.362 7 -15646715.563 9
  22240626.922     4291142.119 3   3414528.049 3
  19187223.398   -25171809.618 6  -2394757.730 8
  18443570.734   -27256969.573 6 -17471381.374 8
  19645985.469   -26494644.921 6 -19080051.642 6
  18843118.195   -27821079.031 7 -21582044.732 9
 94  2 20  4 32 29.9920000  0  7 20 24  5  9 12 13  4
  21593578.445    -4248504.734 3  -3215993.783 2
  18067822.922   -26655129.629 7 -20565292.328 8
  18848678.305   -20595932.704 7 -15713043.877 8
  19192969.031   -25141589.472 6  -2371209.589 8
  18441992.234   -27265271.051 7 -17477850.064 8
  19653645.906   -26454383.581 6 -19048679.162 6
  18848938.922   -27790476.168 7 -21558198.348 9
 94  2 20  4 32 59.9920000  0  7 20 24  5  9 12 13  4
  21570524.039    -4369676.744 4  -3310413.506 2
  18060925.438   -26691356.948 7 -20593521.397 7
  18832524.820   -20680825.263 7 -15779193.925 9
  19198810.477   -25110898.322 6  -2347294.414 8
  18440527.039   -27272969.335 6 -17483848.731 8
  19661327.570   -26414019.605 6 -19017226.717 6
  18854852.188   -27759410.683 7 -21533991.478 9
 94  2 20  4 33 29.9920000  0  7 20 24  5  9 12 13  4
  21547468.641    -4490824.426 4  -3404814.272 2
  18054131.172   -26727068.849 6 -20621348.844 8
  18816414.734   -20765481.044 7 -15845159.463 8
  19204741.391   -25079745.986 6  -2323019.886 8
  18439175.531   -27280072.205 6 -17489383.445 8
  19669026.953   -26373562.252 6 -18985701.504 6
  18860854.578   -27727875.863 7 -21509418.888 9
 94  2 20  4 33 59.9920000  0  7 20 24  5  9 12 13  4
  21524423.781    -4611934.428 4  -3499185.655 2
  18047434.664   -26762256.245 7 -20648767.588 8
  18800356.695   -20849865.081 7 -15910913.261 9
  19210760.023   -25048129.565 6  -2298383.725 8
  18437937.578   -27286567.931 6 -17494445.060 8
  19676746.844   -26333001.561 6 -18954095.785 6
  18866943.680   -27695860.004 7 -21484471.466 9
 94  2 20  4 34 29.9920000  0  7 20 24  5  9 12 13  4
  21501386.875    -4733011.458 4  -3593531.347 3
  18040838.828   -26796914.221 7 -20675773.793 8
  18784352.703   -20933980.696 7 -15976457.893 9
  19216859.078   -25016078.245 6  -2273408.684 8
  18436816.102   -27292463.288 6 -17499038.852 8
  19684481.719   -26292345.561 6 -18922415.780 6
  18873126.789   -27663386.976 7 -21459167.810 9
 94  2 20  4 34 59.9920000  0  7 20 24  5  9 12 13  4
  21478351.141    -4854048.569 4  -3687845.982 4
  18034347.680   -26831038.714 7 -20702364.298 8
  18768401.172   -21017798.903 7 -16041770.784 9
  19223038.297   -24983588.255 6  -2248091.830 8
  18435810.539   -27297753.192 6 -17503160.862 8
  19692236.117   -26251590.852 6 -18890658.864 6
  18879389.445   -27630477.005 7 -21433523.673 9
 94  2 20  4 35 29.9920000  0  7 20 24  5  9 12 13  4
  21455322.859    -4975044.038 4  -3782128.147 3
  18027955.883   -26864629.415 7 -20728538.863 8
  18752509.094   -21101316.692 7 -16106849.580 9
  19229304.844   -24950662.549 6  -2222435.450 8
  18434916.469   -27302438.122 6 -17506811.467 8
  19700010.133   -26210739.389 6 -18858826.567 6
  18885730.649   -27597149.881 7 -21407554.494 9
 94  2 20  4 35 59.9920000  0  7 20 24  5  9 12 13  4
  21432306.422    -5095997.234 4  -3876377.388 4
  18021665.086   -26897677.373 7 -20754290.513 8
  18736663.641   -21184568.448 7 -16171721.078 9
  19235653.617   -24917303.358 6  -2196441.293 8
  18434140.570   -27306519.456 6 -17509991.735 8
  19707804.000   -26169793.833 6 -18826920.933 6
  18892144.945   -27563423.765 7 -21381274.403 9
 94  2 20  4 36 29.9920000  0  7 20 24  5  9 12 13  4
  21409305.828    -5216909.500 4  -3970594.688 3
  18015478.461   -26930185.238 7 -20779621.311 8
  18720872.266   -21267562.626 7 -16236391.863 9
  19242087.297   -24883497.427 6  -2170099.023 8
  18433477.953   -27310000.712 6 -17512704.409 8
  19715610.164   -26128759.142 6 -18794945.855 6
  18898642.117   -27529310.231 7 -21354692.433 9
 94  2 20  4 36 59.9920000  0  7 20 24  5  9 12 13  4
  21386297.164    -5337778.624 4  -4064778.446 2
  18009392.961   -26962160.702 7 -20804537.237 7
  18705134.195   -21350281.601 7 -16300848.202 9
  19248607.727   -24849227.833 6  -2143395.462 8
  18432930.813   -27312881.787 6 -17514949.408 8
  19723438.242   -26087636.608 6 -18762902.324 6
  18905203.750   -27494804.845 7 -21327805.121 9
 94  2 20  4 37 29.9920000  0  7 20 24  5  9 12 13  4
  21363303.711    -5458603.574 4  -4158927.759 3
  18003409.227   -26993600.744 7 -20829035.969 8
  18689442.586   -21432733.249 7 -16365096.238 9
  19255215.273   -24814507.683 6
  18432496.188   -27315163.737 6 -17516727.562 8
  19731277.336   -26046428.494 6 -18730792.102 6
  18911845.344   -27459898.183 7
 94  2 20  4 37 59.9920000  0  7 20 24  5  9 12 13  4
  21340321.617    -5579381.759 5  -4253040.603 5
  17997527.758   -27024510.205 7 -20853121.254 8
  18673804.664   -21514897.780 7 -16429120.545 9
  19261909.805   -24779330.203 6
  18432179.219   -27316846.003 6 -17518038.431 8
  19739135.727   -26005135.518 6 -18698615.768 6
  18918567.711   -27424581.077 7
 94  2 20  4 38 29.9920000  0  7 20 24  5  9 12 13  4
  21317346.406    -5700117.984 4  -4347120.805 3
  17991743.789   -27054905.898 7 -20876806.202 8
  18658229.898   -21596745.290 7 -16492897.829 9
  19268690.289   -24743696.775 6
  18431970.539   -27317935.867 6 -17518887.684 8
  19747009.805   -25963765.977 6 -18666379.750 6
  18925368.680   -27388856.582 7
 94  2 20  4 38 59.9920000  0  7 20 24  5  9 12 13  4
  21294383.703    -5820806.154 5  -4441163.479 4
  17986058.336   -27084784.882 7 -20900088.516 7
  18642713.672   -21678286.848 7 -16556436.700 9
  19275552.906   -24707627.692 6
  18431875.297   -27318429.333 6
  19754897.148   -25922317.446 6 -18634082.212 6
  18932243.719   -27352719.516 7
 94  2 20  4 39 29.9920000  0  7 20 24  5  9 12 13  4
  21271427.625    -5941441.023 5  -4535164.665 4
  17980476.156   -27114129.344 7 -20922954.324 7
  18627254.156   -21759535.359 7 -16619747.223 9
  19282497.414   -24671128.926 6
  18431893.859   -27318323.468 6
  19762799.813   -25880787.854 6 -18601721.491 6
  18939201.094   -27316159.225 7
 94  2 20  4 39 59.9920000  0  7 20 24  5  9 12 13  4
  21248483.125    -6062017.488 5  -4629120.349 3
  17974995.781   -27142934.153 7 -20945399.632 7
  18611849.016   -21840487.469 7 -16682826.784 9
  19289527.156   -24634187.068 6
  18432030.320   -27317615.504 6 -17518638.079 8
  19770717.313   -25839175.485 6 -18569296.278 6
  18946238.797   -27279168.640 7
 94  2 20  4 40 29.9920000  0  8 20 24  5 16  9 12 13  4
  21225543.336    -6182529.046 4  -4723025.421 4
  17969616.102   -27171191.756 6 -20967418.538 8
  18596499.117   -21921153.291 7 -16745683.266 9
  22300492.203          -0.75513
  19296643.180   -24596810.180 6
  18432277.336   -27316301.335 6 -17517614.058 8
  19778654.344   -25797477.724 6 -18536804.519 6
  18953361.250   -27241748.666 7
 94  2 20  4 40 59.9920000  0  8 20 24  5 16  9 12 13  4
  21202624.078    -6302980.919 4  -4816884.015 4
  17964345.227   -27198897.729 7 -20989007.598 8
  18581198.000   -22001557.562 7 -16808335.946 9
  22278388.773     -116103.749 3        -0.27011
  19303834.477   -24559004.598 6
  18432642.211   -27314388.727 6 -17516123.727 8
  19786602.727   -25755702.943 6 -18504252.739 6
  18960562.969   -27203909.610 7
 94  2 20  4 41 29.9920000  0  8 20 24  5 16  9 12 13  4
  21179717.172    -6423375.246 5  -4910697.779 4
  17959176.188   -27226059.329 7 -21010172.476 8
  18565950.383   -22081677.397 7 -16870766.981 9
  22256282.047     -232289.100 3    -90534.250 1
  19311113.211   -24520747.370 6
  18433124.703   -27311881.771 6 -17514170.267 8
  19794563.774   -25713856.538 6 -18471645.159 6
  18967841.000   -27165653.115 7
 94  2 20  4 41 59.9920000  0  8 20 24  5 16  9 12 13  4
  21156816.273    -6543707.877 4  -5004463.425 4
  17954108.070   -27252701.943 7 -21030932.948 8
  18550760.094   -22161501.982 7 -16932967.950 9
  22234156.297     -348569.993 3   -181142.725 1
  19318486.320   -24482027.584 6
  18433716.109   -27308779.215 7 -17511752.703 8
  19802542.969   -25671937.917 6 -18438981.321 6
  18975197.203   -27126993.979 7
 94  2 20  4 42 59.9910000  0  8 20 24  5 16  9 12 13  4
  21111053.128    -6784168.423 4  -5191835.223 4
  17944261.855   -27304434.343 7 -21071243.895 8
  18520553.745   -22320260.475 7 -17056675.863 9
  22189852.480     -581441.452 3   -362600.916 1
  19333476.831   -24403226.009 6  -1795861.812 7
  18435233.636   -27300781.722 6 -17505520.907 8
  19818536.683   -25587883.854 6 -18373484.636 5
  18990130.511   -27048524.401 7 -20980054.136 9
 94  2 20  4 43 29.9910000  0  8 20 24  5 16  9 12 13  4
  21088196.870    -6904302.515 5  -5285446.196 3
  17939483.878   -27329536.444 7 -21090803.963 7
  18505534.862   -22399174.609 7 -17118167.390 9
  22167651.112     -698043.567 3   -453459.661 2
  19341098.441   -24363177.634 6  -1764655.303 8
  18436162.909   -27295893.853 6 -17501712.194 8
  19826556.487   -25545755.985 6 -18340657.744 6
  18997702.940   -27008729.284 7 -20949044.954 9
 94  2 20  4 43 59.9910000  0  8 20 24  5 16  9 12 13  4
  21065350.034    -7024366.366 5  -5379002.422 4
  17934806.995   -27354123.274 7 -21109962.532 7
  18490577.644   -22477772.749 7 -17179412.694 9
  22145443.300     -814734.881 3   -544387.916 4
  19348796.769   -24322731.922 6  -1733139.185 7
  18437209.737   -27290411.905 6 -17497440.556 8
  19834581.941   -25503560.900 6 -18307778.460 5
  19005345.019   -26968566.809 7 -20917749.525 9
 94  2 20  4 44 29.9910000  0  8 20 24  5 16  9 12 13  4
  21042522.058    -7144352.968 5  -5472498.436 5
  17930230.331   -27378170.745 7 -21128700.814 8
  18475684.198   -22556033.125 7 -17240394.805 9
  22123215.198     -931499.294 2   -635373.125 4
  19356565.714   -24281907.606 6  -1701328.051 7
  18438362.855   -27284331.691 6 -17492702.739 8
  19842624.456   -25461295.331 6 -18274844.257 5
  19013060.675   -26928024.069 7 -20886157.777 9
 94  2 20  4 44 59.9910000  0  8 20 24  5 16  9 12 13  4
  21019701.378    -7264268.897 5  -5565939.386 5
  17925752.480   -27401698.060 7 -21147033.783 7
  18460857.870   -22633944.399 7 -17301104.885 9
  22100993.206    -1048347.867 3   -726423.965 3
  19364406.081   -24240712.441 6  -1669227.941 8
  18439632.487   -27277662.272 6 -17487505.800 8
  19850680.870   -25418969.192 6 -18241862.855 6
  19020850.222   -26887098.072 7 -20854267.386 9
 94  2 20  4 45 29.9910000  0  8 20 24  5 16  9 12 13  4
  20996897.050    -7384106.460 5  -5659319.298 4
  17921372.940   -27424710.128 7 -21164965.251 8
  18446097.761   -22711514.094 7 -17361548.797 9
  22078746.534    -1165276.878 3   -817537.432 2
  19372317.206   -24199134.229 6  -1636829.349 7
  18441016.409   -27270398.721 6 -17481845.901 8
  19858746.089   -25376578.061 6 -18208830.814 6
  19028713.667   -26845772.433 7 -20822065.597 9
 94  2 20  4 45 59.9910000  0  8 20 24  5 16  9 12 13  4
  20974106.097    -7503863.916 5  -5752636.771 5
  17917093.339   -27447207.785 7 -21182495.897 7
  18431399.503   -22788749.849 7 -17421732.502 9
  22056471.175    -1282280.197 3   -908708.851 4
  19380304.237   -24157152.738 6  -1604116.526 7
  18442507.300   -27262542.212 6 -17475723.953 8
  19866825.456   -25334123.814 6 -18175749.585 6
  19036649.409   -26804056.423 7 -20789559.615 9
 94  2 20  4 46 29.9910000  0  8 20 24  5 16  9 12 13  4
  20951333.026    -7623541.726 5  -5845892.196 5
  17912911.120   -27469193.200 7 -21199627.387 7
  18416763.331   -22865664.209 7 -17481665.767 9
  22034193.151    -1399359.569 3   -999939.502 4
  19388371.925   -24114757.991 6
  18444116.433   -27254095.830 6 -17469142.369 8
  19874917.495   -25291610.130 6
  19044658.284   -26761956.995 7 -20756754.866 9
 94  2 20  4 46 59.9910000  0  8 20 24  5 16  9 12 13  4
  20928571.019    -7743141.335 5  -5939086.679 4
  17908822.628   -27490667.880 7 -21216360.894 8
  18402184.823   -22942274.358 7 -17541361.988 9
  22011896.159    -1516501.877 3  -1091219.201 3
  19396523.370   -24071939.105 6  -1537716.330 7
  18445836.331   -27245064.008 6 -17462104.603 8
  19883019.761   -25249042.032 6
  19052740.378   -26719481.883 7
 94  2 20  4 47 29.9910000  0  8 20 24  5 16  9 12 13  4
  20905831.628    -7862654.009 5  -6032213.428 5
  17904840.230   -27511602.160 7 -21232673.308 8
  18387663.183   -23018581.207 7 -17600821.862 9
  21989601.081    -1633677.466 3  -1182524.866 4
  19404751.753   -24028695.404 6  -1504019.952 7
  18447670.323   -27235440.827 6 -17454606.034 8
  19891127.761   -25206414.066 6 -18076236.010 5
  19060902.159   -26676622.124 7 -20690260.169 9
 94  2 20  4 47 59.9910000  0  8 20 24  5 16  9 12 13  4
  20883105.050    -7982079.713 5  -6125272.403 3
  17900957.808   -27531993.134 7 -21248562.379 7
  18373204.019   -23094577.841 7 -17660040.021 9
  21967303.448    -1750876.930 4  -1273849.137 3
  19413053.472   -23985041.333 6  -1470003.810 7
  18449611.355   -27225229.048 6 -17446648.814 8
  19899250.644   -25163729.754 6 -18042975.509 5
  19069132.073   -26633379.749 7 -20656564.812 9
 94  2 20  4 48 29.9910000  0  8 20 24  5 16  9 12 13  4
  20860396.206    -8101415.555 5  -6218261.363 5
  17897181.690   -27551842.980 7 -21264029.793 8
  18358802.589   -23170258.500 7 -17719011.961 9
  21944998.495    -1868107.638 4  -1365197.728 4
  19421437.948   -23940991.877 6  -1435679.576 7
  18451665.394   -27214428.827 6 -17438233.072 8
  19907385.722   -25120989.432 6 -18009671.387 5
  19077436.105   -26589741.034 7 -20622560.627 9
 94  2 20  4 48 59.9910000  0  8 20 24  5 16  9 12 13  4
  20837705.980    -8220660.092 5  -6311179.169 4
  17893506.050   -27571159.819 7 -21279081.869 8
  18344460.862   -23245621.103 7 -17777736.067 9
  21922675.980    -1985372.304 4  -1456572.794 3
  19429892.589   -23896558.626 6  -1401056.284 7
  18453833.144   -27203041.575 6 -17429359.897 8
  19915526.917   -25078195.255 6 -17976325.277 5
  19085812.753   -26545699.948 7 -20588242.893 8
 94  2 20  4 49 29.9910000  0  8 20 24  5 16  9 12 13  4
  20815028.026    -8339811.990 5  -6404024.776 5
  17889928.269   -27589956.122 7 -21293728.334 8
  18330180.144   -23320661.716 7 -17836209.273 9
  21900356.066    -2102677.059 4  -1547979.076 2
  19438421.941   -23851756.523 6  -1366145.579 7
  18456111.425   -27191068.987 6 -17420030.624 8
  19923680.972   -25035349.167 6 -17942938.716 5
  19094268.042   -26501271.194 7 -20553623.090 9
 94  2 20  4 49 59.9910000  0  8 20 24  5 16  9 12 13  4
  20792371.690    -8458870.551 5  -6496797.674 5
  17886443.081   -27608265.033 7 -21307995.012 8
  18315962.925   -23395373.183 7 -17894425.996 9
  21878023.456    -2220035.031 4  -1639426.826 2
  19447013.581   -23806588.260 6  -1330949.542 7
  18458500.933   -27178513.394 6 -17410247.054 8
  19931843.737   -24992454.016 6 -17909513.931 6
  19102791.081   -26456482.031 7 -20518722.446 8
 94  2 20  4 50 29.9910000  0  8 20 24  5 16  9 12 13  4
  20769729.964    -8577843.254 5  -6589503.655 5
  17883050.339   -27626101.075 7 -21321893.225 8
  18301808.948   -23469752.662 7 -17952384.033 9
  21855680.933    -2337453.085 3  -1730921.428 1
  19455677.612   -23761066.142 6  -1295477.779 7
  18460998.136   -27165385.464 6 -17400017.513 8
  19940010.894   -24949520.513 6 -17876059.264 5
  19111378.698   -26411363.720 7 -20483565.315 9
 94  2 20  4 50 59.9910000  0  8 20 24  5 16  9 12 13  4
  20747111.855    -8696720.241 5  -6682135.063 5
  17879749.284   -27643448.820 7 -21335410.948 8
  18287723.464   -23543779.479 7 -18010067.273 9
  21833334.870    -2454907.099 3  -1822444.054 2
  19464410.448   -23715187.056 6  -1259727.858 7
  18463607.019   -27151678.464 6 -17389336.745 8
  19948191.948   -24906542.322 6 -17842569.775 5
  19120022.995   -26365928.860 7 -20448161.533 8
 94  2 20  4 51 29.9910000  0  8 20 24  5 16  9 12 13  4
  20724511.901    -8815494.356 5  -6774686.314 5
  17876542.628   -27660303.107 7 -21348544.144 8
  18273706.378   -23617437.200 7 -18067462.896 9
  21810977.417    -2572398.483 3  -1913995.772 1
  19473210.011   -23668941.090 6  -1223692.061 7
  18466327.401   -27137388.186 6 -17378201.478 8
  19956381.355   -24863515.553 6 -17809042.426 6
  19128727.730   -26320173.499 7 -20412508.008 8
 94  2 20  4 51 59.9910000  0  8 20 24  5 16  9 12 13  4
  20701929.026    -8934163.647 5  -6867155.858 5
  17873430.245   -27676655.210 7 -21361286.039 8
  18259760.714   -23690721.834 7 -18124567.805 9
  21788611.589    -2689931.074 3  -2005579.614 1
  19482077.456   -23622318.450 6  -1187362.751 7
  18469157.261   -27122516.084 6 -17366612.835 8
  19964579.261   -24820441.828 6 -17775478.493 5
  19137497.909   -26274090.196 7 -20376598.943 8
 94  2 20  4 52 29.9910000  0  8 20 24  5 16  9 12 13  4
  20679367.792    -9052727.600 5  -6959543.344 5
  17870416.878   -27692478.471 7 -21373615.854 8
  18245883.511   -23763642.081 7 -18181388.765 9
  21766235.456    -2807502.144 3  -2097193.433 2
  19491024.230   -23575318.122 6  -1150739.143 7
  18472097.909   -27107064.983 6 -17354573.033 8
  19972781.292   -24777324.082 6 -17741880.259 5
  19146330.940   -26227661.618 7 -20340420.826 8
 94  2 20  4 52 59.9910000  0  8 20 24  5 16  9 12 13  4
  20656825.573    -9171186.677 5  -7051849.108 4
  17867509.925   -27707771.452 7 -21385532.455 8
  18232073.081   -23836218.644 7 -18237941.941 9
  21743846.448    -2925114.231 2  -2188839.207 1
  19500039.300   -23527939.878 6  -1113821.041 7
  18475146.823   -27091038.511 6 -17342084.886 8
  19980994.198   -24734166.169 6 -17708250.721 5
  19155238.472   -26180876.642 7 -20303965.002 8
 94  2 20  4 53 29.9910000  0  8 20 24  5 16  9 12 13  4
  20634304.605    -9289534.723 5  -7144068.343 5
  17864702.073   -27722537.628 7 -21397038.570 7
  18218327.565   -23908453.295 7 -18294228.676 9
  21721461.417    -3042757.990 3  -2280509.663 3
  19509129.081   -23480169.736 6  -1076597.588 7
  18478306.644   -27074433.753 6 -17329146.128 8
  19989215.316   -24690965.206 6 -17674587.637 5
  19164207.839   -26133727.542 7 -20267225.455 8
 94  2 20  4 53 59.9910000  0  8 20 24  5 16  9 12 13  4
  20611802.034    -9407773.217 5  -7236202.210 5
  17861989.230   -27736782.310 7 -21408138.310 8
  18204646.534   -23980350.675 7 -18350252.616 9
  21699080.659    -3160416.915 3  -2372191.899 1
  19518291.019   -23432019.318 6  -1039077.790 7
  18481575.511   -27057255.136 6 -17315760.207 8
  19997442.792   -24647725.944 6 -17640894.713 5
  19173248.566   -26086227.214 7 -20230212.214 8
 94  2 20  4 54 29.9910000  0  8 20 24  5 16  9 12 13  4
  20589323.800    -9525895.468 5  -7328245.514 5
  17859375.792   -27750509.696 7 -21418834.968 8
  18191029.136   -24051906.418 7 -18406010.336 9
  21676689.886    -3278074.020 3  -2463872.776 3
  19527528.190   -23383494.943 6  -1001266.607 7
  18484954.956   -27039499.467 6 -17301924.626 8
  20005679.917   -24604444.778 6 -17607169.143 5
  19182354.526   -26038370.370 7 -20192921.181 8
 94  2 20  4 54 59.9910000  0  8 20 24  5 16  9 12 13  4
  20566869.167    -9643902.234 5  -7420198.816 5
  17856859.120   -27763734.869 7 -21429140.300 8
  18177477.987   -24123111.154 7 -18461494.543 9
  21654300.558    -3395731.428 3  -2555553.863 3
  19536836.503   -23334606.693 6   -963171.880 7
  18488442.128   -27021170.915 6 -17287642.652 8
  20013921.183   -24561126.298 6 -17573414.483 5
  19191527.847   -25990168.424 7 -20155361.223 8
 94  2 20  4 55 29.9910000  0  8 20 24  5 16  9 12 13  4
  20544433.253    -9761794.778 5
  17854439.034   -27776466.044 7 -21439060.689 8
  18164000.284   -24193952.268 7 -18516695.417 9
  21631907.776    -3513392.581 4
  19546202.362   -23285357.983 6   -924796.292 7
  18492035.722   -27002274.227 6 -17272917.974 8
  20022171.222   -24517775.088 6 -17539634.321 5
  19200768.261   -25941623.898 7 -20117534.315 8
 94  2 20  4 55 59.9910000  0  8 20 24  5 16  9 12 13  4
  20522023.917    -9879568.193 5
  17852110.269   -27788695.477 7 -21448590.108 8
  18150587.222   -24264435.828 7 -18571617.662 9
  21609514.003    -3631065.331 4
  19555641.284   -23235759.619 6   -886148.228 7
  18495743.112   -26982807.795 6 -17257749.336 8
  20030429.253   -24474389.377 6 -17505827.292 5
  19210067.925   -25892735.575 7 -20079439.517 8
 94  2 20  4 56 29.9910000  0  8 20 24  5 16  9 12 13  4
  20499631.175    -9997220.036 5
  17849879.565   -27800423.066 7 -21457728.481 8
  18137244.355   -24334560.053 7 -18626259.911 9
  21587118.206    -3748756.666 4
  19565140.519   -23185817.493 6   -847232.304 7
  18499555.050   -26962772.967 6 -17242137.799 8
  20038689.972   -24430970.376 6 -17471994.299 5
  19219439.394   -25843506.991 7 -20041079.586 8
 94  2 20  4 56 59.9910000  0  8 20 24  5 16  9 12 13  4
  20477269.331   -10114747.027 5  -7787090.810 5
  17847743.315   -27811653.824 7 -21466479.726 8
  18123967.120   -24404316.209 7 -18680615.356 9
  21564720.089    -3866458.723 4  -2922354.287 3
  19574712.112   -23135534.543 6   -808050.808 7
  18503474.753   -26942169.911 6 -17226083.481 8
  20046958.448   -24387518.312 6 -17438135.556 5
  19228870.308   -25793944.551 7 -20002459.504 8
 94  2 20  4 57 29.9910000  0  8 20 24  5 16  9 12 13  4
  20454929.894   -10232152.128 5  -7878575.279 5
  17845698.190   -27822391.208 7 -21474846.510 8
  18110764.519   -24473714.190 7 -18734691.697 9
  21542322.183    -3984170.101 4  -3014077.475 4
  19584346.120   -23084918.602 6   -768609.827 7
  18507503.620   -26921005.046 6 -17209591.391 8
  20055234.167   -24344039.210 6 -17404255.736 5
  19238361.409   -25744060.264 6 -19963588.639 8
 94  2 20  4 57 59.9910000  0  8 20 24  5 16  9 12 13  4
  20432610.026   -10349432.785 5  -7969962.805 5
  17843748.136   -27832637.985 7 -21482831.001 8
  18097623.237   -24542757.017 7 -18788491.307 9
  21519925.964    -4101884.004 5  -3105802.585 5
  19594035.448   -23033984.247 6   -728920.741 7
  18511634.792   -26899279.457 6 -17192662.376 8
  20063512.292   -24300534.186 6 -17370355.717 5
  19247913.175   -25693867.922 7 -19924477.721 8
 94  2 20  4 58 29.9910000  0  8 20 24  5 16  9 12 13  4
  20410320.651   -10466583.046 5  -8061248.706 5
  17841891.362   -27842400.328 7 -21490438.023 8
  18084558.800   -24611422.524 7 -18841996.896 9
  21497521.065    -4219590.919 4  -3197522.222 5
  19603791.839   -22982722.793 6   -688976.767 7
  18515878.644   -26876990.932 6 -17175294.712 8
  20071794.761   -24257000.437 6 -17336433.339 5
  19257522.511   -25643361.649 6 -19885122.182 8
 94  2 20  4 58 59.9910000  0  8 20 24  5 16  9 12 13  4
  20388048.480   -10583600.632 5  -8152431.229 5
  17840127.917   -27851670.888 7 -21497661.829 8
  18071561.737   -24679715.235 7 -18895211.992 9
  21475125.698    -4337290.032 5  -3289235.800 4
  19613610.378   -22931125.709 6   -648771.267 7
  18520224.847   -26854140.590 6 -17157489.260 8
  20080082.167   -24213439.045 6 -17302489.394 5
  19267193.222   -25592544.283 6 -19845524.241 8
 94  2 20  4 59 29.9910000  0  8 20 24  5 16  9 12 13  4
  20365806.972   -10700483.182 5  -8243508.532 5
  17838459.308   -27860436.168 7 -21504491.914 8
  18058634.925   -24747639.522 7 -18948140.004 9
  21452731.065    -4454981.592 5  -3380943.514 5
  19623494.480   -22879189.226 6   -608301.295 7
  18524683.026   -26830729.546 6 -17139246.904 8
  20088378.589   -24169850.893 6 -17268524.596 5
  19276924.003   -25541418.640 7 -19805686.075 8
 94  2 20  4 59 59.9910000  0  8 20 24  5 16  9 12 13  4
  20343590.300   -10817230.697 5  -8334480.600 5
  17836885.565   -27868702.201 7 -21510932.984 8
  18045782.862   -24815188.192 7 -19000775.326 9
  21430330.136    -4572666.161 5  -3472645.766 5
  19633439.855   -22826914.593 6   -567567.839 7
  18529245.065   -26806761.612 6 -17120570.607 8
  20096674.870   -24126239.022 6 -17234541.322 5
  19286708.862   -25489986.386 6 -19765609.002 8
 94  2 20  5  0 29.9910000  0  8 20 24  5 16  9 12 13  4
  20321397.112   -10933842.651 5  -8425347.048 5
  17835408.659   -27876467.094 7 -21516983.543 8
  18033001.730   -24882349.329 7 -19053108.682 9
  21407940.558    -4690344.852 5  -3564343.439 5
  19643455.394   -22774287.189 6   -526559.492 7
  18533908.808   -26782240.091 6 -17101462.950 8
  20104980.862   -24082606.708 6 -17200542.131 5
  19296555.511   -25438249.367 6 -19725294.451 8
 94  2 20  5  0 59.9910000  0  8 20 24  5 16  9 12 13  4
  20299237.245   -11050314.047 5  -8516103.972 5
  17834025.987   -27883724.731 7 -21522638.839 8
  18020297.019   -24949119.384 7 -19105137.292 9
  21385552.761    -4807996.194 4  -3656019.792 5
  19653540.409   -22721315.972 6   -485283.240 7
  18538679.315   -26757163.920 6 -17081923.082 8
  20113289.081   -24038952.301 6 -17166525.713 5
  19306453.737   -25386215.996 6 -19684748.967 7
 94  2 20  5  1 29.9910000  0  8 20 24  5 16  9 12 13  4
  20277104.839   -11166643.212 5  -8606750.061 5
  17832738.394   -27890493.484 7 -21527913.191 8
  18007666.440   -25015484.002 7 -19156849.988 9
  21363173.401    -4925612.236 5  -3747668.637 5
  19663682.394   -22668012.847 6   -443748.357 6
  18543558.370   -26731535.154 6 -17061952.625 8
  20121600.042   -23995277.400 6 -17132493.317 5
  19316417.042   -25333882.353 6 -19643969.512 8
 94  2 20  5  1 59.9910000  0  8 20 24  5 16  9 12 13  4
  20254994.433   -11282825.378 5  -8697281.615 5
  17831542.034   -27896786.824 7 -21532817.090 8
  17995116.847   -25081431.434 7 -19208237.590 9
  21340795.183    -5043200.775 4  -3839296.049 4
  19673882.315   -22614390.122 6   -401964.430 6
  18548537.800   -26705352.787 6 -17041550.795 8
  20129914.933   -23951580.556 6 -17098443.837 5
  19326434.815   -25281242.476 6 -19602951.423 7
 94  2 20  5  2 29.9910000  0  8 20 24  5 16  9 12 13  4
  20232915.808   -11398856.617 5  -8787695.550 5
  17830433.987   -27902603.122 7 -21537349.269 8
  17982646.362   -25146962.979 7 -19259301.131 9
  21318427.964    -5160755.262 4  -3930896.934 5
  19684150.198   -22560456.974 6   -359938.635 6
  18553624.956   -26678616.759 6 -17020717.545 8
  20138234.925   -23907861.091 6 -17064376.726 5
  19336508.776   -25228298.206 6 -19561696.155 7
 94  2 20  5  2 59.9910000  0  8 20 24  5 16  9 12 13  4
  20210863.386   -11514735.389 5  -8877990.692 5
  17829417.792   -27907949.065 7 -21541514.934 8
  17970254.776   -25212090.106 7 -19310049.537 9
  21296061.128    -5278276.162 3  -4022471.651 4
  19694464.292   -22506231.358 6   -317684.932 6
  18558818.831   -26651329.529 6 -16999454.783 8
  20146556.956   -23864120.916 6 -17030293.470 5
  19346639.644   -25175053.378 6 -19520206.671 7
 94  2 20  5  3 29.9910000  0  8 20 24  5 16  9 12 13  4
  20188840.761   -11630459.492 5  -8968165.300 5
  17828490.292   -27912824.841 7 -21545314.236 8
  17957935.769   -25276816.903 7 -19360486.003 9
  21273695.089    -5395781.096 3  -4114033.911 2
  19704838.526   -22451713.233 6   -275203.286 6
  18564116.972   -26623492.794 6 -16977763.834 8
  20154886.433   -23820361.117 6 -16996194.935 5
  19356828.589   -25121501.662 6 -19478478.075 8
 94  2 20  5  3 59.9910000  0  8 20 24  5 16  9 12 13  4
  20166847.909   -11746033.693 5  -9058223.120 5
  17827650.440   -27917225.098 7 -21548743.008 8
  17945695.667   -25341158.494 7 -19410622.310 9
  21251345.003    -5513275.160 4  -4205587.682 2
  19715270.448   -22396901.929 6   -232493.204 6
  18569519.542   -26595115.189 6 -16955651.429 8
  20163214.612   -23776589.838 6 -16962087.450 5
  19367075.464   -25067660.463 6 -19436523.895 7
 94  2 20  5  4 29.9910000  0  8 20 24  5 16  9 12 13  4
  20144884.003   -11861451.203 5  -9148158.832 5
  17826908.175   -27921142.157 7 -21551795.254 8
  17933522.362   -25405114.138 7 -19460457.873 9
  21228990.292    -5630734.948 4  -4297114.796 2
  19725759.605   -22341773.911 6   -189536.315 6
  18575021.948   -26566193.644 6 -16933115.166 8
  20171547.206   -23732803.349 6 -16927968.100 5
  19377376.386   -25013537.485 6 -19394350.147 7
 94  2 20  5  4 59.9910000  0  8 20 24  5 16  9 12 13  4
  20122951.558   -11976707.682 5  -9237969.054 5
  17826250.159   -27924585.645 7 -21554478.491 8
  17921428.269   -25468685.333 7 -19509993.871 9
  21206647.855    -5748161.195 5  -4388615.769 4
  19736312.901   -22286327.023 6   -146330.967 6
  18580628.581   -26536727.949 6 -16910154.897 8
  20179883.175   -23689000.666 6 -16893836.160 5
  19387727.136   -24959133.063 6 -19351957.097 7
 94  2 20  5  5 29.9910000  0  8 20 24  5 16  9 12 13  4
  20101048.480   -12091800.192 5  -9327651.528 5
  17825685.198   -27927551.174 7 -21556789.294 8
  17909401.948   -25531871.245 7 -19559229.651 9
  21184307.644    -5865542.544 5  -4480081.731 3
  19746926.409   -22230561.290 6   -102877.176 6
  18586338.581   -26506719.384 6 -16886771.620 8
  20188220.659   -23645182.211 6 -16859691.912 5
  19398134.065   -24904446.377 6 -19309344.101 7
 94  2 20  5  5 59.9910000  0  8 20 24  5 16  9 12 13  4
  20079180.362   -12206728.974 5  -9417206.419 5
  17825209.128   -27930047.010 7 -21558734.096 8
  17897451.315   -25594672.759 7 -19608165.892 9
  21161984.214    -5982867.919 5  -4571504.094 4
  19757594.034   -22174480.437 6    -59177.832 6
  18592151.066   -26476172.236 6 -16862968.671 8
  20196561.370   -23601351.717 6 -16825538.287 5
  19408591.870   -24849490.862 6 -19266521.620 7
 94  2 20  5  6 29.9910000  0  8 20 24  5 16  9 12 13  4
  20057339.839   -12321494.701 5  -9506634.256 5
  17824824.808   -27932084.384 7 -21560321.657 8
  17885575.065   -25657083.435 7 -19656797.589 9
  21139667.300    -6100138.645 5  -4662883.858 5
  19768320.769   -22118112.723 6    -15254.941 6
  18598065.589   -26445091.269 6 -16838749.737 8
  20204904.706   -23557512.916 6 -16791378.187 5
  19419098.339   -24794267.710 6 -19223490.595 7
 94  2 20  5  6 59.9910000  0  8 20 24  5 16  9 12 13  4
  20035533.964   -12436085.473 5  -9595925.757 5
  17824524.190   -27933655.973 7 -21561546.272 8
  17873776.128   -25719091.638 7 -19705115.667 9
  21117361.612    -6217344.960 5  -4754213.427 5
  19779102.956   -22061472.531 6     28880.261 6
  18604082.183   -26413468.598 6 -16814108.708 8
  20213250.284   -23513657.154 6 -16757204.868 5
  19429665.815   -24738757.070 6 -19180235.559 7
 94  2 20  5  7 29.9910000  0  8 20 24  5 16  9 12 13  4
  20013761.448   -12550505.672 5  -9685084.351 5
  17824317.315   -27934753.184 7 -21562401.236 8
  17862051.753   -25780704.804 7 -19753125.928 9
  21095067.589    -6334481.717 5  -4845488.814 5
  19789930.409   -22004569.032 6     73220.630 6
  18610203.667   -26381312.999 6 -16789052.409 8
  20221596.370   -23469792.472 6 -16723024.614 5
  19440279.019   -24682965.936 6 -19136761.957 7
 94  2 20  5  7 59.9910000  0  8 20 24  5 16  9 12 13  4
  19992019.847   -12664754.103 5  -9774109.083 5
  17824194.151   -27935383.189 7 -21562892.150 8
  17850401.769   -25841911.596 7 -19800819.534 9
  21072797.206    -6451561.928 5  -4936720.111 5
  19800807.972   -21947392.368 6    117773.864 6
  18616423.230   -26348627.288 6 -16763583.030 8
  20229947.550   -23425920.760 6 -16688838.860 5
  19450950.050   -24626893.328 6 -19093069.011 7
 94  2 20  5  8 29.9910000  0  8 20 24  5 16  9 12 13  4
  19970314.034   -12778831.349 5  -9863000.440 5
  17824165.800   -27935540.680 7
  17838833.409   -25902709.940 7 -19848194.873 9
  21050521.909    -6568584.006 5  -5027906.126 5
  19811744.870   -21889945.221 6    162537.862 6
  18622744.378   -26315416.210 6 -16737704.282 8
  20238294.065   -23382045.761 6 -16654650.559 5
  19461673.331   -24570540.063 6 -19049157.385 7
 94  2 20  5  8 59.9910000  0  8 20 24  5 16  9 12 13  4
  19948636.761   -12892728.872 5  -9951751.749 5
  17824228.378   -27935210.526 7
  17827341.198   -25963103.429 7 -19895254.723 9
  21028269.409    -6685536.068 5  -5119037.575 5
  19822727.589   -21832205.454 6    207529.869 6
  18629164.058   -26281675.423 6 -16711412.771 8
  20246645.753   -23338162.345 6 -16620455.697 5
  19472454.011   -24513895.284 6 -19005018.605 7
 94  2 20  5  9 29.9910000  0  8 20 24  5 16  9 12 13  4
  19926998.901   -13006439.444 6 -10040357.379 5
  17824387.980   -27934377.453 7 -21562108.451 8
  17815931.737   -26023062.404 7 -19941976.005 9
  21006024.300    -6802415.733 5  -5210112.615 5
  19833774.956   -21774159.098 6    252760.761 6
  18635684.558   -26247402.138 6 -16684706.335 8
  20254995.722   -23294266.315 6 -16586250.992 5
  19483285.198   -24456966.379 6 -18960658.414 7
 94  2 20  5  9 59.9910000  0  8 20 24  5 16  9 12 13  4
  19905394.933   -13119968.630 5 -10128821.689 6
  17824637.519   -27933066.111 7 -21561086.623 9
  17804607.987   -26082570.258 7 -19988345.761 9
  20983797.237    -6919227.596 5  -5301134.787 5
  19844874.230   -21715819.796 6    298219.945 6
  18642309.730   -26212605.972 6 -16657592.454 8
  20263351.495   -23250366.473 6 -16552043.339 5
  19494172.565   -24399757.163 6 -18916079.815 7
 94  2 20  5 10 29.9910000  0  8 20 24  5 16  9 12 13  4
  19883829.339   -13233311.332 6 -10217140.663 5
  17824978.972   -27931278.827 7 -21559693.932 9
  17793368.464   -26141631.482 7 -20034367.492 9
  20961583.011    -7035950.374 5  -5392087.558 5
  19856027.534   -21657206.547 6    343892.590 6
  18649027.378   -26177286.145 6 -16630070.521 8
  20271708.394   -23206461.247 6 -16517831.487 5
  19505112.644   -24342274.100 6 -18871287.823 7
 94  2 20  5 10 59.9910000  0  8 20 24  5 16  9 12 13  4
  19862294.698   -13346463.377 6 -10305311.077 5
  17825405.948   -27929027.676 7 -21557939.786 8
  17782213.370   -26200246.411 7 -20080041.459 9
  20939387.386    -7152588.802 5  -5482974.587 5
  19867238.386   -21598328.980 6    389771.197 6
  18655847.698   -26141442.783 6 -16602140.636 8
  20280062.847   -23162549.373 6 -16483614.434 5
  19516100.308   -24284522.760 6 -18826286.784 7
 94  2 20  5 11 29.9910000  0  8 20 24  5 16  9 12 13  4
  19840802.362   -13459427.297 6 -10393334.907 6
  17825918.198   -27926340.120 7 -21555845.581 8
  17771145.440   -26258409.922 7 -20125363.676 9
  20917207.620    -7269147.302 5  -5573799.341 5
  19878485.097   -21539199.014 6    435846.469 6
  18662768.144   -26105083.093 6 -16573808.430 8
  20288417.370   -23118636.800 6 -16449396.859 5
  19527140.948   -24226518.244 6 -18781088.466 7
 94  2 20  5 11 59.9910000  0  8 20 24  5 16  9 12 13  4
  19819336.347   -13572204.844 5 -10481213.526 6
  17826509.878   -27923232.549 7 -21553424.097 8
  17760155.191   -26316164.892 7 -20170367.549 9
  20895047.065    -7385620.453 5  -5664557.627 5
  19889781.566   -21479831.635 6    482106.737 6
  18669783.714   -26068213.194 6 -16545078.647 8
  20296775.042   -23074728.562 6 -16415182.653 5
  19538224.964   -24168269.511 6 -18735699.843 7
 94  2 20  5 12 29.9910000  0  8 20 24  5 16  9 12 13  4
  19797914.558   -13684784.351 6 -10568937.805 6
  17827183.855   -27919687.585 7 -21550661.786 9
  17749239.550   -26373525.403 7 -20215064.056 9
  20872898.901    -7501998.171 5  -5755241.553 5
  19901129.620   -21420219.480 6    528557.753 6
  18676897.612   -26030825.732 6 -16515945.575 8
  20305132.058   -23030816.353 6 -16380965.353 5
  19549353.464   -24109786.710 6 -18690128.830 7
 94  2 20  5 12 59.9910000  0  8 20 24  5 16  9 12 13  4
  19776526.745   -13797165.008 5 -10656507.137 6
  17827944.011   -27915700.355 7 -21547554.851 9
  17738402.315   -26430480.912 7 -20259444.965 9
  20850768.355    -7618281.202 5  -5845851.679 5
  19912516.956   -21360355.412 6    575205.068 6
  18684111.706   -25992924.364 6 -16486412.054 8
  20313487.534   -22986902.413 6 -16346746.696 5
  19560524.831   -24051071.777 6 -18644376.935 7
 94  2 20  5 13 29.9910000  0  8 20 24  5 16  9 12 13  4
  19755182.495   -13909346.768 6 -10743921.490 6
  17828784.909   -27911259.568 7 -21544094.498 9
  17727641.597   -26487031.494 7 -20303510.362 9
  20828664.776    -7734456.998 5  -5936378.253 5
  19923955.175   -21300234.453 6    622052.554 6
  18691419.347   -25954513.437 6 -16456481.473 8
  20321843.542   -22942990.063 6 -16312529.286 5
  19571741.995   -23992131.813 6 -18598449.702 7
 94  2 20  5 13 59.9910000  0  8 20 24  5 16  9 12 13  4
  19733871.581   -14021323.112 6 -10831175.783 6
  17829723.925   -27906341.942 7 -21540262.573 9
  17716957.315   -26543166.077 7 -20347251.592 9
  20806581.261    -7850513.676 5  -6026812.011 5
  19935448.308   -21239857.409 6    669099.579 6
  18698824.761   -25915590.983 6 -16426152.305 8
  20330198.542   -22899075.870 6 -16278310.450 5
  19583000.003   -23932968.181 6 -18552348.173 7
 94  2 20  5 14 29.9910000  0  8 20 24  5 16  9 12 13  4
  19712604.175   -14133094.686 6 -10918270.504 6
  17830750.042   -27900941.517 7 -21536054.446 9
  17706361.526   -26598855.296 7 -20390645.791 9
  20784516.745    -7966461.296 5  -6117160.758 5
  19946985.808   -21179214.177 6    716354.034 6
  18706326.940   -25876162.251 6 -16395428.633 8
  20338555.550   -22855163.690 6 -16244093.181 5
  19594300.542   -23873581.575 6 -18506072.894 7
 94  2 20  5 14 59.9910000  0  8 20 24  5 16  9 12 13  4
  19691372.565   -14244664.003 6 -11005207.628 6
  17831868.167   -27895067.238 7 -21531477.083 9
  17695850.526   -26654093.293 7 -20433688.383 8
  20762468.784    -8082308.665 5  -6207431.414 5
  19958583.105   -21118304.950 6    763815.750 6
  18713927.980   -25836234.424 6 -16364316.057 8
  20346914.784   -22811259.377 6 -16209882.023 5
  19605640.183   -23813971.370 6 -18459623.392 7
 94  2 20  5 15 29.9910000  0  8 20 24  5 16  9 12 13  4
  19670182.839   -14356024.725 6 -11091982.201 6
  17833074.901   -27888728.536 7 -21526537.826 9
  17685425.628   -26708881.127 7 -20476380.203 8
  20740443.667    -8198056.465 5  -6297624.463 5
  19970216.206   -21057140.291 5    811476.512 6
  18721625.003   -25795805.513 6 -16332813.023 8
  20355263.034   -22767359.807 5 -16175674.587 5
  19617027.058   -23754135.273 6 -18412997.862 7
 94  2 20  5 16 29.9900000  0  8 20 24  5 16  9 12 13  4
  19627922.483   -14578109.624 6 -11265035.353 6
  17835737.701   -27874727.351 7 -21515627.813 9
  17664832.201   -26817099.713 7 -20560706.379 8
  20696441.201    -8429282.585 5  -6477800.613 5
  19993632.912   -20934095.177 6    907355.784 6
  18737291.639   -25713457.795 6 -16268646.000 8
  20371969.537   -22679582.116 6 -16107276.399 5
  19639944.256   -23633732.357 6 -18319177.418 7
 94  2 20  5 16 59.9900000  0  8 20 24  5 16  9 12 13  4
  19606849.647   -14688830.216 6 -11351311.137 6
  17837189.834   -27867101.447 7 -21509685.550 9
  17654660.990   -26870546.917 7 -20602353.556 8
  20674473.412    -8544751.200 5  -6567776.140 5
  20005403.006   -20872240.756 6    955554.014 6
  18745265.959   -25671539.303 6 -16235982.258 8
  20380322.803   -22635701.449 6 -16073083.677 5
  19651472.225   -23573144.078 6 -18271965.773 7
 94  2 20  5 17 29.9900000  0  8 20 24  5 16  9 12 13  4
  19585824.522   -14799330.927 6 -11437415.576 6
  17838721.865   -27859062.137 7 -21503421.142 9
  17644573.608   -26923547.479 7 -20643652.691 8
  20652516.639    -8660102.253 5  -6657660.045 5
  20017212.443   -20810184.830 5   1003909.275 6
  18753337.420   -25629126.971 6 -16202933.706 8
  20388672.818   -22591826.636 6 -16038895.518 5
  19663053.779   -23512294.582 6 -18224550.588 6
 94  2 20  5 17 59.9900000  0  8 20 24  5 16  9 12 13  4
  19564837.686   -14909609.092 6 -11523346.610 6
  17840330.975   -27850597.862 7 -21496825.596 9
  17634574.373   -26976097.943 7 -20684601.105 8
  20630595.037    -8775326.500 5  -6747445.149 5
  20029062.686   -20747916.614 6   1052429.949 6
  18761502.904   -25586222.690 6 -16169501.810 8
  20397012.678   -22547958.367 5 -16004712.456 4
  19674681.514   -23451182.766 6 -18176930.985 7
 94  2 20  5 18 29.9900000  0  8 20 24  5 16  9 12 13  4
  19543894.920   -15019665.595 6 -11609104.916 6
  17842020.436   -27841718.750 7 -21489906.804 9
  17624659.834   -27028197.330 7 -20725198.034 8
  20608693.279    -8890419.526 5  -6837127.997 5
  20040950.967   -20685431.103 6   1101119.956 6
  18769761.975   -25542832.501 6 -16135691.290 8
  20405365.123   -22504100.862 6 -15970537.794 4
  19686355.889   -23389833.906 6 -18129126.690 6
 94  2 20  5 18 59.9900000  0  8 20 24  5 16  9 12 13  4
  19522995.483   -15129494.394 6 -11694685.784 6
  17843789.170   -27832415.852 7 -21482657.789 9
  17614835.318   -27079824.752 7 -20765427.194 8
  20586818.076    -9005373.415 5  -6926702.421 5
  20052885.998   -20622727.530 6   1149979.873 6
  18778111.482   -25498954.488 6 -16101500.646 7
  20413708.803   -22460250.779 6 -15936368.381 5
  19698071.811   -23328268.771 6 -18081153.861 7
 94  2 20  5 19 29.9900000  0  8 20 24  5 16  9 12 13  4
  19502137.272   -15239094.059 6 -11780088.105 6
  17845647.678   -27822668.549 7 -21475062.483 9
  17605099.115   -27130986.079 7 -20805293.166 8
  20564968.389    -9120199.388 5  -7016177.161 5
  20064860.006   -20559797.768 6   1199016.032 6
  18786554.053   -25454592.234 6 -16066932.660 7
  20422048.897   -22416410.069 5 -15902206.831 4
  19709824.248   -23266503.190 6 -18033024.831 6
 94  2 20  5 19 59.9900000  0  8 20 24  5 16  9 12 13  4
  19481325.701   -15348462.037 6 -11865309.896 6
  17847581.029   -27812485.776 7 -21467127.857 9
  17595454.287   -27181677.242 7 -20844792.768 8
  20543138.365    -9234898.856 5  -7105553.345 5
  20076881.717   -20496636.830 6   1248232.328 6
  18795087.865   -25409748.101 6 -16031989.196 7
  20430392.920   -22372579.339 6 -15868053.013 5
  19721611.350   -23204539.847 6 -17984741.709 6
 94  2 20  5 20 29.9900000  0  8 20 24  5 16  9 12 13  4
  19460561.170   -15457597.006 6 -11950350.134 6
  17849605.459   -27801871.253 7 -21458856.796 9
  17585896.232   -27231910.211 7 -20883935.345 8
  20521340.123    -9349461.160 5  -7194822.637 5
  20088939.709   -20433259.076 6   1297617.582 6
  18803711.014   -25364425.375 6 -15996672.803 7
  20438727.061   -22328760.558 5 -15833908.544 5
  19733442.522   -23142390.854 6 -17936313.926 6
 94  2 20  5 20 59.9900000  0  8 20 24  5 16  9 12 13  4
  19439835.537   -15566498.841 6 -12035208.690 6
  17851708.701   -27790801.011 7 -21450230.631 9
  17576420.428   -27281695.910 7 -20922729.391 8
  20499570.943    -9463874.383 5  -7283975.780 5
  20101041.131   -20369668.626 6   1347168.559 6
  18812426.654   -25318629.043 6 -15960987.364 7
  20447064.022   -22284956.619 6 -15799775.606 5
  19745306.959   -23080056.489 6 -17887741.706 6
 94  2 20  5 21 29.9900000  0  8 20 24  5 16  9 12 13  4
  19419158.248   -15675162.462 6 -12119881.645 6
  17853901.561   -27779272.451 7 -21441247.336 9
  17567031.467   -27331037.460 7 -20961177.357 8
  20477824.818    -9578130.527 5  -7373006.503 6
  20113184.623   -20305850.521 5   1396896.943 6
  18821228.795   -25272358.897 6 -15924932.719 7
  20455400.428   -22241165.769 6 -15765652.870 4
  19757205.990   -23017514.669 6 -17839007.828 6
 94  2 20  5 21 59.9900000  0  8 20 24  5 16  9 12 13  4
  19398525.568   -15783581.454 6 -12204363.966 6
  17856178.912   -27767307.140 7 -21431923.721 9
  17557727.662   -27379929.158 7 -20999274.782 8
  20456112.287    -9692219.771 5  -7461907.179 6
  20125369.139   -20241815.329 5   1446794.481 6
  18830126.287   -25225613.271 6 -15888507.578 7
  20463729.615   -22197384.623 6 -15731537.685 5
  19769144.631   -22954770.528 6 -17790116.292 6
 94  2 20  5 22 29.9900000  0  8 20 24  5 16  9 12 13  4
  19377942.279   -15891757.770 6 -12288657.199 6
  17858537.748   -27754912.174 7 -21422265.295 9
  17548509.818   -27428376.744 7 -21037026.152 8
  20434431.100    -9806151.794 5  -7550685.346 6
  20137598.725   -20177576.517 5   1496850.680 6
  18839111.475   -25178398.992 6 -15851717.235 7
  20472061.201   -22153618.184 5 -15697433.990 5
  19781120.787   -22891844.560 6 -17741083.069 6
 94  2 20  5 22 59.9900000  0  8 20 24  5 16  9 12 13  4
  19357401.272   -15999691.515 6 -12372761.405 6
  17860974.475   -27742113.755 7 -21412292.501 9
  17539378.904   -27476358.376 7 -21074414.433 8
  20412777.279    -9919951.058 5  -7639360.050 6
  20149855.639   -20113137.618 5   1547062.781 6
  18848183.568   -25130721.102 6 -15814565.658 7
  20480384.647   -22109869.856 5 -15663344.390 5
  19793127.943   -22828729.789 6 -17691902.741 6
 94  2 20  5 23 29.9900000  0  8 20 24  5 16  9 12 13  4
  19336909.178   -16107376.941 6 -12456672.119 6
  17863481.725   -27728942.552 7 -21402029.220 9
  17530337.232   -27523870.069 7 -21111436.530 8
  20391151.201   -10033625.144 5  -7727937.231 6
  20162154.209   -20048514.219 5   1597418.693 6
  18857343.272   -25082579.027 6 -15777052.361 7
  20488704.295   -22066136.813 5 -15629266.694 5
  19805177.920   -22765420.814 6 -17642571.076 6
 94  2 20  5 23 59.9900000  0  8 20 24  5 16  9 12 13  4
  19316469.553   -16214808.298 6 -12540384.866 6
  17866058.115   -27715396.560 7 -21391473.895 9
  17521387.014   -27570904.465 7 -21148086.717 8
  20369541.186   -10147164.257 5  -7816409.232 6
  20174481.068   -19983721.174 5   1647906.756 5
  18866591.436   -25033971.861 6 -15739176.661 7
  20497023.233   -22022416.653 5 -15595199.058 4
  19817263.131   -22701916.113 6 -17593086.899 6
 94  2 20  5 24 29.9900000  0  8 20 24  5 16  9 12 13  4
  19296070.522   -16321987.324 6 -12623900.983 6
  17868708.318   -27701464.710 7 -21380617.914 9
  17512525.068   -27617468.891 7 -21184370.681 8
  20347962.123   -10260554.654 5  -7904765.370 5
  20186845.108   -19918758.315 5   1698527.168 6
  18875929.084   -24984906.181 6 -15700943.679 7
  20505337.553   -21978713.735 5 -15561144.832 4
  19829390.873   -22638184.492 6 -17543425.903 6
 94  2 20  5 24 59.9900000  0  8 20 24  5 16  9 12 13  4
  19275726.326   -16428912.160 6 -12707219.033 6
  17871438.576   -27687129.095 7 -21369447.291 9
  17503753.842   -27663572.374 7 -21220295.478 8
  20326417.287   -10373777.277 5  -7992990.770 5
  20199241.756   -19853627.252 5   1749278.629 6
  18885351.256   -24935385.267 6 -15662355.970 7
  20513653.045   -21935029.779 5 -15527105.401 4
  19841562.834   -22574209.969 6 -17493575.628 6
 94  2 20  5 25 29.9900000  0  8 20 24  5 16  9 12 13  4
  19255424.404   -16535581.578 6 -12790338.057 6
  17874246.256   -27672368.159 7 -21357945.264 9
  17495063.858   -27709229.800 7 -21255872.696 8
  20304908.123   -10486811.705 5  -8081069.524 6
  20211664.561   -19788331.161 5   1800158.677 6
  18894858.498   -24885412.630 6 -15623416.279 7
  20521960.529   -21891366.171 5 -15493081.826 5
  19853780.826   -22510010.234 6 -17443549.866 6
 94  2 20  5 25 59.9900000  0  8 20 24  5 16  9 12 13  4
  19235176.795   -16641994.483 6 -12873257.194 6
  17877136.209   -27657167.761 7 -21346100.795 9
  17486462.233   -27754431.622 7 -21291094.890 8
  20283436.522   -10599647.396 5  -8168993.399 6
  20224122.123   -19722862.395 5   1851173.288 6
  18904456.998   -24834992.421 6 -15584127.821 7
  20530269.295   -21847725.188 5 -15459075.877 4
  19866039.748   -22445594.936 6 -17393356.132 6
 94  2 20  5 26 29.9900000  0  8 20 24  5 16  9 12 13  4
  19214976.467   -16748148.186 6 -12955974.369 6
  17880113.764   -27641538.165 7 -21333921.891 9
  17477947.561   -27799175.339 7 -21325960.126 8
  20261998.678   -10712285.637 5  -8256763.439 5
  20236610.162   -19657212.437 5   1902329.093 5
  18914135.467   -24784126.748 6 -15544492.248 7
  20538565.186   -21804106.769 5 -15425087.505 4
  19878332.170   -22380995.646 6 -17343019.020 6
 94  2 20  5 26 59.9900000  0  8 20 24  5 16  9 12 13  4
  19194827.045   -16854033.549 6 -13038482.437 6
  17883165.178   -27625491.785 7 -21321418.217 9
  17469525.615   -27843439.184 7 -21360451.439 8
  20240601.467   -10824737.850 5  -8344388.512 5
  20249149.264   -19591384.445 5   1953623.620 6
  18923902.764   -24732811.478 6 -15504506.335 7
  20546865.233   -21760505.017 5 -15391112.131 4
  19890650.686   -22316255.964 6 -17292572.519 6
 94  2 20  5 27 29.9900000  0  8 20 24  5 16  9 12 13  4
  19174728.045   -16959652.270 6 -13120782.734 6
  17886291.568   -27609060.529 7 -21308614.642 9
  17461194.881   -27887215.074 7 -21394562.519 8
  20219238.100   -10937013.288 5  -8431875.850 5
  20261696.115   -19525392.528 5   2005045.885 6
  18933754.436   -24681053.827 6 -15464175.719 7
  20555155.162   -21716924.755 5 -15357153.498 3
  19902994.670   -22251390.093 6 -17242027.694 6
 94  2 20  5 27 59.9900000  0  8 20 24  5 16  9 12 13  4
  19154679.436   -17065000.308 6 -13202872.106 6
  17889492.772   -27592243.461 7 -21295510.426 9
  17452962.678   -27930484.388 7 -21428278.870 8
  20197903.561   -11049112.459 6  -8519225.830 6
  20274287.303   -19459236.264 5   2056596.219 5
  18943684.545   -24628854.534 6 -15423500.961 7
  20563447.732   -21673365.127 5 -15323210.935 4
  19915363.670   -22186385.913 6 -17191375.093 6
 94  2 20  5 28 29.9900000  0  8 20 24  5 16  9 12 13  4
  19134684.178   -17170076.210 6 -13284749.428 6
  17892763.264   -27575046.546 7 -21282110.223 9
  17444822.553   -27973249.006 7 -21461601.952 8
  20176605.412   -11161043.900 6  -8606445.124 6
  20286907.858   -19392933.991 5   2108260.310 5
  18953698.865   -24576217.516 6 -15382485.122 7
  20571731.303   -21629827.456 5 -15289285.483 4
  19927762.029   -22121237.680 6 -17140610.239 6
 94  2 20  5 28 59.9900000  0  8 20 24  5 16  9 12 13  4
  19114743.451   -17274875.261 6 -13366411.028 6
  17896113.928   -27557458.836 7 -21268405.527 9
  17436781.904   -28015505.137 7 -21494528.817 8
  20155337.897   -11272800.492 5  -8693528.158 5
  20299550.037   -19326494.215 5   2160031.554 5
  18963799.412   -24523142.775 6 -15341128.203 7
  20580013.334   -21586310.067 5 -15255375.828 4
  19940191.467   -22055920.795 6 -17089713.983 6
 94  2 20  5 29 29.9900000  0  8 20 24  5 16  9 12 13  4
  19094855.022   -17379398.333 6 -13447857.573 6
  17899535.334   -27539474.641 7 -21254391.861 9
  17428837.014   -28057255.746 7 -21527061.746 8
  20134110.490   -11384370.908 6  -8780466.107 6
  20312222.014   -19259911.579 5   2211914.109 5
  18973983.647   -24469636.545 6 -15299435.042 7
  20588283.959   -21542816.855 5 -15221485.033 4
  19952655.568   -21990416.489 6 -17038671.659 6
 94  2 20  5 29 59.9900000  0  8 20 24  5 16  9 12 13  4
  19075015.045   -17483643.096 6 -13529087.257 6
  17903032.842   -27521098.616 7 -21240072.886 9
  17420989.076   -28098503.584 7 -21559202.925 8
  20112911.983   -11495753.435 6  -8867257.677 5
  20324920.217   -19193178.379 5   2263914.009 5
  18984247.709   -24415701.783 6 -15257407.974 7
  20596559.498   -21499348.542 5 -15187613.625 4
  19965154.451   -21924733.063 6 -16987489.782 6
 94  2 20  5 30 29.9900000  0  8 20 24  5 16  9 12 13  4
  19055232.420   -17587603.669 6 -13610095.498 6
  17906600.451   -27502352.346 7 -21225465.401 9
  17413232.529   -28139262.960 7 -21590963.474 8
  20091758.482   -11606937.262 6  -8953894.421 6
  20337646.639   -19126291.185 5   2316033.875 5
  18994593.686   -24361337.510 6 -15215046.236 7
  20604828.248   -21455902.012 5 -15153759.202 4
  19977686.006   -21858881.899 6 -16936177.190 6
 94  2 20  5 30 59.9900000  0  8 20 24  5 16  9 12 13  4
  19035505.975   -17691279.532 6 -13690881.874 6
  17910235.865   -27483235.757 7 -21210569.358 9
  17405568.967   -28179534.874 7 -21622344.187 8
  20070635.365   -11717910.231 5  -9040366.833 6
  20350410.193   -19059239.017 5   2368282.300 5
  19005016.068   -24306548.477 6 -15172353.495 7
  20613094.576   -21412479.793 5 -15119923.720 4
  19990246.717   -21792872.255 6 -16884741.107 6
 94  2 20  5 31 29.9900000  0  8 20 24  5 16  9 12 13  4
  19015828.647   -17794668.534 6 -13771444.731 7
  17913945.482   -27463752.282 7 -21195387.427 9
  17397997.732   -28219323.427 7 -21653348.262 8
  20049562.467   -11828665.674 6  -9126669.764 6
  20363196.998   -18992021.379 5   2420659.655 5
  19015525.600   -24251337.736 6 -15129332.156 7
  20621345.537   -21369082.926 5 -15086107.974 3
  20002837.928   -21726705.902 6 -16833182.913 6
 94  2 20  5 31 59.9900000  0  8 20 24  5 16  9 12 13  4
  18996209.006   -17897766.921 6 -13851781.140 6
  17917720.693   -27443900.942 7 -21179918.847 9
  17390517.303   -28258630.403 7 -21683977.069 8
  20028526.334   -11939202.336 6  -9212802.207 6
  20376022.154   -18924653.065 5   2473154.443 5
  19026113.061   -24195706.897 6 -15085983.465 7
  20629600.678   -21325710.289 5 -15052311.142 4
  20015456.623   -21660386.635 6 -16781505.579 6
 94  2 20  5 32 29.9900000  0  8 20 24  5 16  9 12 13  4
  18976648.483   -18000576.042 6 -13931892.134 6
  17921574.615   -27423657.185 7 -21164144.491 9
  17383126.928   -28297463.252 7 -21714236.436 8
  20007531.014   -12049532.748 6  -9298773.927 6
  20388863.264   -18857148.259 5   2525755.575 5
  19036776.436   -24139662.375 6 -15042312.427 7
  20637853.420   -21282366.307 5 -15018536.611 4
  20028104.201   -21593917.362 6 -16729711.353 6
 94  2 20  5 32 59.9900000  0  8 20 24  5 16  9 12 13  4
  18957139.131   -18103088.751 6 -14011772.160 7
  17925508.342   -27403000.315 7 -21148048.228 9
  17375829.061   -28335814.986 7 -21744120.905 8
  19986576.248   -12159663.121 6  -9384589.785 6
  20401737.443   -18789509.613 5   2578460.982 5
  19047519.725   -24083202.282 6 -14998317.571 7
  20646090.568   -21239046.694 5 -14984781.090 4
  20040788.662   -21527282.925 6 -16677788.405 6
 94  2 20  5 33 29.9900000  0  8 20 24  5 16  9 12 13  4
  18937688.951   -18205307.067 6 -14091422.796 7
  17929510.568   -27381947.788 7 -21131643.665 9
  17368620.482   -28373691.133 7 -21773634.791 8
  19965651.951   -12269607.969 6  -9470261.071 6
  20414627.748   -18721751.898 5   2631259.188 5
  19058340.186   -24026333.984 6 -14954004.631 7
  20654333.803   -21195756.511 5 -14951048.482 3
  20053495.717   -21460486.974 6 -16625739.624 6
 94  2 20  5 33 59.9900000  0  8 20 24  5 16  9 12 13  4
  18918293.631   -18307225.245 6 -14170839.541 7
  17933592.717   -27360492.595 7 -21114925.330 9
  17361506.107   -28411079.350 7 -21802768.465 8
  19944765.186   -12379370.640 6  -9555790.424 6
  20427546.795   -18653872.779 5   2684151.996 5
  19069240.772   -23969057.050 6 -14909373.268 7
  20662566.920   -21152493.061 5 -14917336.729 5
  20066236.514   -21393532.632 6 -16573567.415 6
 94  2 20  5 34 29.9900000  0  8 20 24  5 16  9 12 13  4
  18898952.100   -18408844.650 6 -14250023.482 7
  17937750.982   -27338643.491 7 -21097900.053 9
  17354483.068   -28447982.489 7 -21831524.165 8
  19923915.365   -12488947.569 6  -9641175.019 6
  20440486.943   -18585881.844 5   2737131.922 5
  19080218.600   -23911378.249 6 -14864428.760 7
  20670791.154   -21109260.425 5 -14883648.975 4
  20079009.287   -21326417.719 6 -16521270.093 6
 94  2 20  5 34 59.9900000  0  8 20 24  5 16  9 12 13  4
  18879674.498   -18510158.282 6 -14328969.172 7
  17941982.084   -27316419.916 7 -21080582.975 9
  17347558.443   -28484380.185 7 -21859886.005 8
  19903106.483   -12598305.104 6  -9726388.664 6
  20453437.178   -18517778.210 5   2790199.648 5
  19091267.264   -23853295.860 6 -14819169.771 7
  20679011.178   -21066054.907 5 -14849982.313 3
  20091814.334   -21259136.737 6 -16468843.358 6
 94  2 20  5 35 29.9900000  0  8 20 24  5 16  9 12 13  4
  18860456.412   -18611164.512 6 -14407675.316 6
  17946279.420   -27293824.535 7 -21062976.188 9
  17340729.897   -28520255.988 7 -21887841.179 8
  19882340.287   -12707424.218 6  -9811416.516 6
  20466427.084   -18449565.371 5   2843352.507 5
  19102397.381   -23794813.442 6 -14773599.075 7
  20687228.451   -21022877.314 5 -14816337.464 4
  20104644.404   -21191706.544 6 -16416300.365 6
 94  2 20  5 35 59.9900000  0  8 20 24  5 16  9 12 13  4
  18841292.592   -18711860.992 6 -14486140.094 7
  17950651.186   -27270861.590 7 -21045082.984 9
  17334002.014   -28555612.711 7 -21915391.874 8
  19861622.201   -12816286.745 6  -9896244.444 6
  20479419.022   -18381243.520 5   2896590.299 5
  19113603.889   -23735933.989 6 -14727718.992 7
  20695444.357   -20979728.281 5 -14782714.845 4
  20117504.045   -21124129.811 6 -16363643.173 6
 94  2 20  5 36 29.9900000  0  8 20 24  5 16  9 12 13  4
  18822190.709   -18812249.763 6 -14564365.105 7
  17955084.764   -27247558.302 7 -21026924.568 9
  17327371.740   -28590454.445 7 -21942541.282 8
  19840959.686   -12924886.509 6  -9980867.645 6
  20492450.522   -18312810.486 5   2949914.746 5
  19124880.990   -23676664.733 6 -14681535.173 7
  20703646.334   -20936612.780 5 -14749118.365 4
  20130386.115   -21056424.319 6 -16310885.650 6
 94  2 20  5 36 59.9900000  0  8 20 24  5 16  9 12 13  4
  18803144.764   -18912327.943 6 -14642348.085 7
  17959581.451   -27223927.547 7 -21008510.997 9
  17320839.842   -28624783.539 7 -21969291.230 8
  19820341.342   -13033228.244 6 -10065289.749 6
  20505491.193   -18244249.759 5   3003338.668 5
  19136234.756   -23617008.272 6 -14635049.635 7
  20711842.623   -20893530.648 5 -14715547.900 4
  20143292.654   -20988609.392 6 -16258042.854 6
 94  2 20  5 37 29.9900000  0  8 20 24  5 16  9 12 13  4
  18784162.998   -19012088.053 6 -14720083.228 7
  17964141.115   -27199970.471 7 -20989843.140 9
  17314403.037   -28658601.471 7 -21995642.860 8
  19799767.522   -13141327.276 6 -10149522.733 6
  20518565.537   -18175547.033 5   3056873.239 5
  19147659.936   -23556962.659 6 -14588260.868 7
  20720038.678   -20850477.527 5 -14682000.024 3
  20156220.248   -20920683.579 6 -16205113.657 6
 94  2 20  5 37 59.9900000  0  8 20 24  5 16  9 12 13  4
  18765238.772   -19111531.695 6 -14797571.780 7
  17968759.084   -27175700.003 7 -20970931.092 9
  17308064.334   -28691918.354 7 -22021604.069 8
  19779246.772   -13249186.426 6 -10233568.811 6
  20531666.529   -18106699.114 5   3110520.943 5
  19159159.748   -23496534.781 6 -14541174.230 7
  20728224.678   -20807457.780 5 -14648478.144 3
  20169164.670   -20852649.397 6 -16152100.020 6
 94  2 20  5 38 29.9900000  0  8 20 24  5 16  9 12 13  4
  18746376.076   -19210650.945 6 -14874807.555 7
  17973441.209   -27151097.905 7 -20951760.631 9
  17301824.326   -28724717.532 7 -22047161.872 8
  19758769.764   -13356803.204 6 -10317426.016 6
  20544792.490   -18037712.683 5   3164276.616 5
  19170731.818   -23435722.183 6 -14493787.795 7
  20736401.982   -20764466.492 5 -14614978.442 4
  20182130.818   -20784505.443 6 -16099000.838 6
 94  2 20  5 38 59.9900000  0  8 20 24  5 16  9 12 13  4
  18727576.693   -19309444.052 6 -14951789.191 7
  17978189.451   -27126140.391 7 -20932313.212 9
  17295678.631   -28757005.189 7 -22072321.085 8
  19738335.811   -13464176.620 6 -10401093.591 6
  20557950.850   -17968613.188 5   3218120.371 5
  19182374.686   -23374528.566 6 -14446104.475 7
  20744576.139   -20721504.695 5 -14581501.735 3
  20195121.436   -20716232.571 5 -16045801.206 6
 94  2 20  5 39 29.9900000  0  8 20 24  5 16  9 12 13  4
  18708839.834   -19407907.808 6 -15028514.187 7
  17983010.357   -27100816.961 7 -20912580.663 9
  17289633.967   -28788776.092 7 -22097077.639 8
  19717951.920   -13571289.843 6 -10484558.412 6
  20571111.795   -17899419.694 5   3272037.336 5
  19194092.279   -23312955.887 6 -14398125.769 7
  20752752.029   -20678571.623 5 -14548047.404 3
  20208142.943   -20647815.052 6 -15992488.866 6
 94  2 20  5 39 59.9900000  0  8 20 24  5 16  9 12 13  4
  18690163.311   -19506047.087 6 -15104986.341 7
  17987895.334   -27075129.630 7 -20892564.571 9
  17283683.233   -28820045.097 7 -22121443.098 8
  19697617.436   -13678135.717 6 -10567814.911 6
  20584295.264   -17830156.171 5   3326008.939 5
  19205880.178   -23251014.347 6 -14349859.651 6
  20760912.483   -20635674.918 5 -14514621.395 4
  20221187.639   -20579262.105 5 -15939070.990 6
 94  2 20  5 40 29.9900000  0  8 20 24  5 16  9 12 13  4
  18671551.709   -19603855.204 6 -15181200.457 7
  17992855.178   -27049071.752 7 -20872259.730 9
  17277826.912   -28850815.719 7 -22145420.207 8
  19677338.865   -13784715.870 6 -10650864.355 6
  20597484.053   -17760842.774 5   3380019.342 5
  19217734.217   -23188702.621 6 -14301305.084 6
  20769066.858   -20592810.831 5 -14481220.828 3
  20234255.373   -20510574.543 5 -15885548.225 6
 94  2 20  5 40 59.9900000  0  8 20 24  5 16  9 12 13  4
  18653002.256   -19701331.345 6 -15257155.892 7
  17997882.811   -27022656.615 7 -20851676.511 9
  17272065.647   -28881095.019 7 -22169014.468 8
  19657104.834   -13891034.056 6 -10733709.677 6
  20610681.834   -17691472.063 5   3434074.455 5
  19229665.764   -23126025.725 6 -14252465.947 7
  20777218.529   -20549981.346 5 -14447847.222 3
  20247353.850   -20441764.479 5 -15831930.001 6
 94  2 20  5 41 29.9900000  0  8 20 24  5 16  9 12 13  4
  18634516.326   -19798472.670 6 -15332850.425 7
  18002973.842   -26995907.131 7 -20830832.746 9
  17266397.881   -28910875.139 7 -22192219.764 8
  19636923.279   -13997090.897 6 -10816351.357 6
  20623899.053   -17622037.217 5   3488179.525 5
  19241657.975   -23062986.092 6 -14203344.169 6
  20785364.373   -20507186.611 5 -14414500.684 4
  20260466.865   -20372851.569 6 -15778231.635 6
 94  2 20  5 41 59.9900000  0  8 20 24  5 16  9 12 13  4
  18616097.811   -19895272.344 6 -15408278.735 7
  18008128.545   -26968813.443 7 -20809720.785 9
  17260826.272   -28940149.308 7 -22215030.806 8
  19616790.733   -14102886.969 6 -10898789.838 6
  20637124.295   -17552539.561 5   3542333.546 5
  19253722.061   -22999582.109 6 -14153938.482 6
  20793501.397   -20464422.216 5 -14381177.790 2
  20273601.951   -20303845.729 6 -15724460.859 5
 94  2 20  5 42 29.9900000  0  8 20 24  5 16  9 12 13  4
  18597742.631   -19991734.875 6 -15483444.344 7
  18013347.959   -26941385.708 7 -20788348.530 9
  17255356.756   -28968908.797 7 -22237440.801 8
  19596705.654   -14208430.906 6 -10981031.848 6
  20650358.529   -17482987.507 5   3596529.913 5
  19265861.600   -22935824.054 6 -14104256.886 6
  20801629.311   -20421695.556 5 -14347884.306 5
  20286750.662   -20234742.992 6 -15670614.573 6
 94  2 20  5 42 59.9900000  0  8 20 24  5 16  9 12 13  4
  18579449.568   -20087854.099 6 -15558342.437 7
  18018628.959   -26913630.154 7 -20766720.823 9
  17249981.975   -28997143.026 7 -22259441.504 8
  19576673.076   -14313704.453 6 -11063063.150 6
  20663600.029   -17413370.248 5   3650777.137 5
  19278058.670   -22871711.403 6 -14054298.991 6
  20809753.131   -20379003.430 5 -14314617.721 4
  20299920.748   -20165528.714 5 -15616681.373 5
 94  2 20  5 43 29.9900000  0  8 20 24  5 16  9 12 13  4
  18561224.451   -20183627.152 6 -15632970.788 7
  18023973.108   -26885544.201 7 -20744835.660 9
  17244708.443   -29024858.055 7 -22281037.636 8
  19556694.623   -14418695.564 6 -11144874.385 6
  20676862.225   -17343692.957 5   3705071.123 5
  19290324.537   -22807246.541 6 -14004066.653 6
  20817872.318   -20336345.682 5 -14281377.923 3
  20313115.717   -20096195.685 5 -15562655.637 5
 94  2 20  5 43 59.9900000  0  8 20 24  5 16  9 12 13  4
  18543066.256   -20279054.582 6 -15707329.827 7
  18029382.982   -26857121.294 7 -20722687.950 9
  17239534.881   -29052051.461 7 -22302227.311 8
  19536772.326   -14523396.135 6 -11226459.213 6
  20690132.131   -17273957.792 5   3759410.206 5
  19302659.561   -22742435.480 6 -13953564.533 6
  20825983.287   -20293725.338 5 -14248167.275 4
  20326329.732   -20026743.898 5 -15508537.371 6
 94  2 20  5 44 29.9900000  0  8 20 24  5 16  9 12 13  4
  18524974.608   -20374129.089 6 -15781413.851 7
  18034851.959   -26828374.949 7 -20700288.194 9
  17234459.717   -29078719.988 7 -22323007.979 8
  19516904.756   -14627797.527 6 -11307810.924 6
  20703421.748   -17204154.909 5   3813802.052 5
  19315059.498   -22677276.250 6 -13902791.124 6
  20834085.936   -20251137.733 5 -14214982.152 3
  20339569.748   -19957168.758 5 -15454322.982 5
 94  2 20  5 44 59.9900000  0  8 20 24  5 16  9 12 13  4
  18506950.897   -20468849.611 6 -15855222.047 7
  18040383.475   -26799306.089 7 -20677637.132 9
  17229483.451   -29104873.046 7 -22343386.991 8
  19497090.592   -14731908.442 6 -11388936.279 6
  20716713.092   -17134280.583 5
  19327523.412   -22611773.580 6 -13851750.088 6
  20842182.670   -20208584.586 5 -14181823.856 3
  20352827.279   -19887493.378 5
 94  2 20  5 45 29.9900000  0  8 20 24  5 16  9 12 13  4
  18488994.475   -20563212.554 6 -15928751.606 7
  18045980.342   -26769906.056 7 -20654728.018 9
  17224606.670   -29130495.957 7 -22363352.896 8
  19477334.943   -14835741.624 6 -11469845.224 6
  20730024.381   -17064333.063 5
  19340052.248   -22545929.059 6 -13800442.677 6
  20850275.647   -20166065.040 5 -14148691.752 2
  20366105.256   -19817727.926 5
 94  2 20  5 45 59.9900000  0  8 20 24  5 16  9 12 13  4
  18471103.873   -20657214.552 6 -16001999.910 7
  18051633.553   -26740180.319 7 -20631565.105 9
  17219832.311   -29155580.129 7 -22382899.009 8
  19457628.709   -14939298.891 6 -11550539.168 6
  20743345.139   -16994322.498 5
  19352645.818   -22479744.879 6 -13748870.606 6
  20858359.061   -20123578.301 5 -14115585.220 3
  20379397.154   -19747874.620 5
 94  2 20  5 46 29.9900000  0  8 20 24  5 16  9 12 13  4
  18453282.389   -20750853.890 6 -16074965.619 7
  18057352.475   -26710133.947 7 -20608152.351 9
  17215160.959   -29180136.328 7 -22402033.715 8
  19437972.990   -15042588.980 6 -11631024.923 6
  20756682.725   -16924246.521 5
  19365306.428   -22413225.066 6 -13697036.998 6
  20866436.193   -20081125.474 5 -14082505.108 1
  20392708.037   -19677935.854 5
 94  2 20  5 46 59.9900000  0  8 20 24  5 16  9 12 13  4
  18435537.045   -20844128.066 6 -16147646.801 7
  18063132.873   -26679756.167 7 -20584481.356 9
  17210589.607   -29204149.119 7 -22420744.987 8
  19418370.529   -15145600.958 6 -11711293.967 6
  20770033.639   -16854104.400 5
  19378029.670   -22346372.596 6 -13644944.177 6
  20874511.451   -20038706.654 5 -14049451.480 4
  20406030.600   -19607912.861 5
 94  2 20  5 47 29.9900000  0  8 20 24  5 16  9 12 13  4
  18417858.022   -20937034.163 6 -16220041.157 7
  18068977.123   -26649049.314 7 -20560553.936 9
  17206123.365   -29227621.852 7 -22439035.434 8
  19398826.670   -15248302.897 6 -11791321.430 6
  20783387.412   -16783904.334 5
  19390810.779   -22279189.868 6 -13592594.012 6
  20882578.022   -19996321.273 5 -14016423.952 3
  20419372.686   -19537801.821 5
 94  2 20  5 47 59.9900000  0  8 20 24  5 16  9 12 13  4
  18400247.709   -21029571.473 6 -16292148.146 7
  18074882.209   -26618020.701 7 -20536375.789 9
  17201755.592   -29250570.405 7 -22456917.431 8
  19379346.678   -15350680.015 6 -11871095.768 6
  20796760.850   -16713655.666 5
  19403659.826   -22211681.887 6 -13539990.401 6
  20890634.045   -19953971.462 5 -13983424.095 2
  20432729.889   -19467605.035 5
 94  2 20  5 48 29.9900000  0  8 20 24  5 16  9 12 13  4
  18382709.029   -21121736.008 6 -16363964.661 7
  18080848.248   -26586671.779 7 -20511948.064 9
  17197490.318   -29272989.867 7 -22474387.148 8
  19359924.186   -15452725.257 6 -11950611.522 6
  20810131.983   -16643355.070 5
  19416564.373   -22143850.131 6 -13487134.497 6
  20898689.115   -19911656.027 5 -13950451.032 1
  20446103.170   -19397327.334 5
 94  2 20  5 48 59.9900000  0  8 20 24  5 16  9 12 13  4
  18365241.108   -21213526.397 6 -16435489.633 7
  18086872.576   -26555009.155 7 -20487275.890 9
  17193324.928   -29294882.443 7 -22491446.300 8
  19340571.701   -15554430.288 6 -12029862.169 6
  20823525.061   -16573023.025 5
  19429532.811   -22075698.644 6 -13434029.472 6
  20906734.576   -19869375.875 5 -13917505.477 2
  20459493.350   -19326970.963 5
 94  2 20  5 49 59.9890000  0  8 20 24  5 16  9 12 13  4
  18330524.728   -21395967.565 6 -16577651.574 7
  18099095.282   -26490780.143 7 -20437227.312 9
  17185282.993   -29337141.381 7 -22524375.358 8
  19302054.446   -15756854.452 6 -12187595.221 6
  20850299.470   -16432310.957 5
  19455650.774   -21938446.991 6 -13327080.151 6
  20922803.454   -19784919.060 5 -13851694.983 3
  20486316.071   -19186011.440 5
 94  2 20  5 50 29.9890000  0  8 20 24  5 16  9 12 13  4
  18313274.915   -21486619.172 6 -16648289.184 7
  18105292.314   -26458223.470 7 -20411858.476 9
  17181409.946   -29357490.840 7 -22540232.086 8
  19282877.040   -15857604.493 6 -12266101.720 6
  20863684.571   -16361940.324 3        -0.41313
  19468797.993   -21869353.575 6 -13273241.133 6
  20930827.650   -19742744.109 5 -13818831.400 2
  20499750.290   -19115422.548 5 -14798416.947 5
 94  2 20  5 50 59.9890000  0  8 20 24  5 16  9 12 13  4
  18296097.009   -21576884.998 6 -16718626.193 8
  18111542.220   -26425371.345 7 -20386259.415 9
  17177637.720   -29377320.924 7 -22555684.107 8
  19263769.110   -15958037.768 6 -12344361.387 6
  20877081.267   -16291559.192 4     54841.969 3
  19482006.064   -21799951.170 6 -13219161.354 6
  20938848.392   -19700603.258 5 -13785994.393 3
  20513196.142   -19044758.574 5 -14743354.130 5
 94  2 20  5 51 29.9890000  0  8 20 24  5 16  9 12 13  4
  18278991.735   -21666764.587 6 -16788662.230 8
  18117850.376   -26392229.868 7 -20360434.881 9
  17173965.329   -29396620.744 7 -22570722.932 8
  19244714.884   -16058164.503 6 -12422382.208 7
  20890473.892   -16221162.544 3    109696.525 3
  19495272.743   -21730245.025 6 -13164844.886 6
  20946864.017   -19658498.526 5 -13753185.525 2
  20526657.087   -18974024.896 5 -14688236.984 5
 94  2 20  5 51 59.9890000  0  8 20 24  5 16  9 12 13  4
  18261964.485   -21756253.513 6 -16858393.854 8
  18124209.782   -26358789.024 7 -20334377.086 9
  17170393.954   -29415376.748 7 -22585338.012 8
  19225717.821   -16157978.745 6 -12500159.503 7
  20903872.845   -16150739.626 4    164571.499 3
  19508595.556   -21660235.901 6 -13110292.341 6
  20954872.915   -19616428.018 5 -13720403.316 3
  20540131.985   -18903220.259 5 -14633064.550 5
